ftp/pub/palmer/observations_modified/2019/November/AR191121_BASE.txt

Download

Sample DateTime	Unit Id	WS Avg 2min	WD Avg 2min	WGS 10min	WGD 10min	Air Temp	Rel Humidity	Dew Point	Pyranometer	Quantum	Air Pressure	Snow Level	Rainfall	PW Current	Visibility	CBase 1	CBase 2	CBase 3	Vert Vis
2019/11/21 00:00:01	BASE	3.93	275	4.63	265	-7.2	73	-11.2	40	0	982.6	NA	0.0000		9999	3900	0	0	0
2019/11/21 00:01:02	BASE	4.22	277	4.99	276	-7.2	72	-11.3	39	0	982.7	NA	0.0000		9999	3900	0	0	0
2019/11/21 00:02:01	BASE	3.70	275	4.99	276	-7.2	72	-11.4	39	0	982.7	NA	0.0000		9999	3900	0	0	0
2019/11/21 00:03:02	BASE	3.53	280	4.99	276	-7.2	71	-11.5	38	0	982.6	NA	0.0000		9999	4270	0	0	0
2019/11/21 00:04:01	BASE	4.48	281	5.76	271	-7.1	71	-11.6	37	0	982.6	NA	0.0000		9999	4270	0	0	0
2019/11/21 00:05:02	BASE	4.55	274	5.76	271	-7.1	70	-11.6	37	0	982.7	NA	0.0000		9999	4200	0	0	0
2019/11/21 00:06:01	BASE	3.91	276	5.76	271	-7.1	70	-11.7	35	0	982.7	NA	0.0000		9999	4100	0	0	0
2019/11/21 00:07:02	BASE	3.41	279	5.76	271	-7.1	70	-11.6	34	0	982.7	NA	0.0000		9999	4130	0	0	0
2019/11/21 00:08:01	BASE	3.58	276	5.76	271	-7.1	70	-11.6	33	0	982.7	NA	0.0000		9999	4130	0	0	0
2019/11/21 00:09:01	BASE	3.88	266	5.76	271	-7.1	70	-11.6	32	0	982.7	NA	0.0000		9999	4100	0	0	0
2019/11/21 00:10:01	BASE	3.84	261	5.76	271	-7.1	70	-11.6	31	0	982.7	NA	0.0000		9999	4130	0	0	0
2019/11/21 00:11:01	BASE	3.55	271	5.76	271	-7.1	70	-11.6	31	0	982.7	NA	0.0000		9999	4200	0	0	0
2019/11/21 00:12:01	BASE	4.05	274	6.38	267	-7.1	70	-11.6	30	0	982.7	NA	0.0000		9999	4300	0	0	0
2019/11/21 00:13:01	BASE	4.27	273	6.38	267	-7.1	70	-11.7	30	0	982.7	NA	0.0000		9999	4000	0	0	0
2019/11/21 00:14:02	BASE	4.38	270	6.74	261	-7.1	69	-11.9	29	0	982.7	NA	0.0000		9999	4130	0	0	0
2019/11/21 00:15:02	BASE	5.24	264	6.74	261	-7.1	68	-12.0	29	0	982.7	NA	0.0000		9999	4170	0	0	0
2019/11/21 00:16:02	BASE	5.52	263	6.74	261	-7.1	67	-12.2	28	0	982.7	NA	0.0000		9999	3940	22570	0	0
2019/11/21 00:17:02	BASE	5.48	264	6.74	261	-7.1	66	-12.4	28	0	982.7	NA	0.0000		9999	3900	0	0	0
2019/11/21 00:18:02	BASE	4.86	260	6.74	261	-7.1	65	-12.6	27	0	982.7	NA	0.0000		9999	3940	0	0	0
2019/11/21 00:19:02	BASE	4.18	261	6.74	261	-7.1	65	-12.6	26	0	982.7	NA	0.0000		9999	4100	0	0	0
2019/11/21 00:20:02	BASE	4.15	266	6.74	261	-7.1	65	-12.6	25	0	982.7	NA	0.0000		9999	4170	0	0	0
2019/11/21 00:21:02	BASE	4.70	269	6.74	261	-7.1	65	-12.5	25	0	982.7	NA	0.0000		9999	4230	0	0	0
2019/11/21 00:22:02	BASE	5.21	274	6.84	269	-7.1	66	-12.4	24	0	982.7	NA	0.0000		9999	4230	0	0	0
2019/11/21 00:23:02	BASE	5.82	275	7.77	257	-7.1	66	-12.3	24	0	982.7	NA	0.0000		9999	4300	0	0	0
2019/11/21 00:24:02	BASE	5.80	269	7.77	257	-7.1	67	-12.3	23	0	982.7	NA	0.0000		9999	4230	0	0	0
2019/11/21 00:25:02	BASE	5.87	264	7.77	264	-7.1	67	-12.3	22	0	982.7	NA	0.0000		9999	4300	0	0	0
2019/11/21 00:26:02	BASE	5.59	266	7.77	264	-7.2	67	-12.3	21	0	982.8	NA	0.0000		9999	4300	0	0	0
2019/11/21 00:27:03	BASE	5.41	269	7.77	264	-7.2	67	-12.3	20	0	982.7	NA	0.0000		9999	4170	0	0	0
2019/11/21 00:28:03	BASE	6.45	268	7.77	264	-7.2	67	-12.2	20	0	982.7	NA	0.0000		9999	4040	0	0	0
2019/11/21 00:29:02	BASE	6.09	269	7.77	264	-7.2	67	-12.2	19	0	982.8	NA	0.0000		9999	3810	0	0	0
2019/11/21 00:30:02	BASE	4.91	270	7.77	264	-7.2	68	-12.1	18	0	982.8	NA	0.0000		9999	3770	0	0	0
2019/11/21 00:31:02	BASE	4.92	266	7.77	264	-7.2	68	-12.1	18	0	982.8	NA	0.0000		9999	3810	0	0	0
2019/11/21 00:32:02	BASE	5.24	265	7.77	264	-7.2	68	-12.1	18	0	982.8	NA	0.0000		9999	3840	0	0	0
2019/11/21 00:33:02	BASE	5.11	262	7.77	264	-7.2	68	-12.1	17	0	982.8	NA	0.0000		9999	3810	0	0	0
2019/11/21 00:34:02	BASE	5.46	261	7.77	264	-7.3	68	-12.2	17	0	982.8	NA	0.0000		9999	3770	0	0	0
2019/11/21 00:35:02	BASE	5.77	264	7.72	263	-7.3	68	-12.2	16	0	982.8	NA	0.0000		9999	3770	0	0	0
2019/11/21 00:36:02	BASE	5.67	266	7.72	263	-7.3	67	-12.3	16	0	982.8	NA	0.0000		9999	3770	0	0	0
2019/11/21 00:37:02	BASE	5.70	265	7.72	263	-7.3	67	-12.4	16	0	982.8	NA	0.0000		9999	3770	0	0	0
2019/11/21 00:38:02	BASE	6.74	258	8.23	258	-7.3	66	-12.6	15	0	982.8	NA	0.0000		9999	3740	0	0	0
2019/11/21 00:39:02	BASE	7.69	255	8.64	255	-7.3	65	-12.7	15	0	982.8	NA	0.0000		9999	3670	0	0	0
2019/11/21 00:40:02	BASE	7.31	255	8.95	254	-7.3	64	-12.9	14	0	982.9	NA	0.0000		9999	3740	0	0	0
2019/11/21 00:41:02	BASE	6.45	258	8.95	254	-7.3	64	-13.0	14	0	982.9	NA	0.0000		9999	3810	0	0	0
2019/11/21 00:42:02	BASE	5.86	261	8.95	254	-7.3	63	-13.2	14	0	982.9	NA	0.0000		9999	3840	0	0	0
2019/11/21 00:43:03	BASE	6.91	259	9.83	269	-7.3	62	-13.3	13	0	982.8	NA	0.0000		9999	3770	0	0	0
2019/11/21 00:44:02	BASE	7.86	257	9.83	269	-7.3	61	-13.5	13	0	982.9	NA	0.0000		9999	3770	0	0	0
2019/11/21 00:45:02	BASE	7.28	256	9.83	269	-7.3	60	-13.7	12	0	982.9	NA	0.0000		9999	3770	0	0	0
2019/11/21 00:46:02	BASE	6.57	252	9.83	269	-7.3	60	-13.8	12	0	982.9	NA	0.0000		9999	3810	0	0	0
2019/11/21 00:47:02	BASE	6.40	244	9.83	269	-7.3	59	-14.0	12	0	982.8	NA	0.0000		9999	3770	0	0	0
2019/11/21 00:48:02	BASE	6.20	239	9.83	269	-7.3	58	-14.1	12	0	982.9	NA	0.0000		9999	3770	0	0	0
2019/11/21 00:49:02	BASE	6.01	240	9.83	269	-7.3	58	-14.2	11	0	982.9	NA	0.0000		9999	3870	0	0	0
2019/11/21 00:50:02	BASE	5.91	243	9.83	269	-7.4	57	-14.3	11	0	982.9	NA	0.0000		9999	3940	0	0	0
2019/11/21 00:51:02	BASE	5.22	247	9.83	269	-7.4	57	-14.3	10	0	982.9	NA	0.0000		9999	3870	0	0	0
2019/11/21 00:52:02	BASE	4.80	249	9.83	269	-7.4	57	-14.4	10	0	982.9	NA	0.0000		9999	3940	0	0	0
2019/11/21 00:53:02	BASE	4.77	255	8.69	253	-7.4	58	-14.3	10	0	982.9	NA	0.0000		9999	3940	0	0	0
2019/11/21 00:54:02	BASE	3.98	260	7.72	236	-7.3	58	-14.1	10	0	982.9	NA	0.0000		9999	4070	0	0	0
2019/11/21 00:55:02	BASE	4.01	261	7.72	236	-7.3	59	-14.0	9	0	982.9	NA	0.0000		9999	4040	0	0	0
2019/11/21 00:56:02	BASE	4.76	263	7.72	236	-7.3	60	-13.8	9	0	982.9	NA	0.0000		9999	3940	0	0	0
2019/11/21 00:57:02	BASE	4.74	263	7.36	238	-7.3	61	-13.7	9	0	982.9	NA	0.0000		9999	3840	0	0	0
2019/11/21 00:58:02	BASE	5.48	255	7.41	246	-7.4	61	-13.6	8	0	982.9	NA	0.0000		9999	3870	0	0	0
2019/11/21 00:59:02	BASE	5.71	253	7.41	246	-7.4	61	-13.6	8	0	982.9	NA	0.0000		9999	3970	0	0	0
2019/11/21 01:00:03	BASE	5.12	255	7.41	246	-7.4	61	-13.7	8	0	982.9	NA	0.0000		9999	3740	0	0	0
2019/11/21 01:01:02	BASE	4.98	258	7.41	246	-7.4	61	-13.7	8	0	982.9	NA	0.0000		9999	3840	0	0	0
2019/11/21 01:02:02	BASE	4.59	260	7.41	246	-7.4	61	-13.7	7	0	982.9	NA	0.0000		9999	3840	0	0	0
2019/11/21 01:03:02	BASE	4.24	257	7.41	246	-7.4	61	-13.7	7	0	982.9	NA	0.0000		9999	3810	0	0	0
2019/11/21 01:04:02	BASE	3.98	254	7.41	246	-7.4	61	-13.5	7	0	982.9	NA	0.0000		9999	3810	0	0	0
2019/11/21 01:05:02	BASE	3.54	256	7.41	246	-7.4	62	-13.4	6	0	982.9	NA	0.0000		9999	3940	0	0	0
2019/11/21 01:06:02	BASE	3.04	264	7.41	246	-7.4	63	-13.3	6	0	983.0	NA	0.0000		9999	4170	0	0	0
2019/11/21 01:07:03	BASE	3.19	266	7.41	246	-7.4	63	-13.2	6	0	983.0	NA	0.0000		9999	4200	0	0	0
2019/11/21 01:08:02	BASE	3.50	269	5.81	261	-7.4	64	-13.1	6	0	983.1	NA	0.0000		9999	4270	0	0	0
2019/11/21 01:09:02	BASE	3.35	274	5.81	261	-7.4	64	-13.1	5	0	983.0	NA	0.0000		9999	4230	0	0	0
2019/11/21 01:10:02	BASE	3.12	269	5.71	270	-7.4	64	-13.0	5	0	983.1	NA	0.0000		9999	4170	0	0	0
2019/11/21 01:11:02	BASE	3.54	265	4.99	257	-7.4	64	-13.0	5	0	983.1	NA	0.0000		9999	4000	0	0	0
2019/11/21 01:12:02	BASE	4.05	262	4.89	256	-7.4	64	-12.9	5	0	982.9	NA	0.0000		9999	3840	0	0	0
2019/11/21 01:13:02	BASE	4.28	259	5.14	254	-7.4	64	-12.9	5	0	982.9	NA	0.0000		9999	3940	0	0	0
2019/11/21 01:14:02	BASE	4.55	255	5.14	253	-7.4	64	-13.0	5	0	982.9	NA	0.0000		9999	4100	0	0	0
2019/11/21 01:15:02	BASE	4.36	251	5.14	253	-7.4	64	-13.0	4	0	982.9	NA	0.0000		9999	3970	0	0	0
2019/11/21 01:16:02	BASE	4.44	249	5.76	254	-7.4	63	-13.2	4	0	982.9	NA	0.0000		9999	4040	0	0	0
2019/11/21 01:17:02	BASE	4.92	248	5.97	243	-7.4	63	-13.3	4	0	982.9	NA	0.0000		9999	4040	0	0	0
2019/11/21 01:18:03	BASE	5.57	247	7.25	240	-7.4	62	-13.5	4	0	982.9	NA	0.0000		9999	3970	0	0	0
2019/11/21 01:19:02	BASE	5.47	254	7.25	240	-7.4	61	-13.6	4	0	982.9	NA	0.0000		9999	4130	0	0	0
2019/11/21 01:20:03	BASE	4.15	264	7.25	240	-7.4	60	-13.8	3	0	982.9	NA	0.0000		9999	4170	0	0	0
2019/11/21 01:21:02	BASE	3.13	274	7.25	240	-7.4	60	-13.9	3	0	982.9	NA	0.0000		9999	4300	0	0	0
2019/11/21 01:22:02	BASE	3.27	284	7.25	240	-7.3	60	-13.8	3	0	982.9	NA	0.0000		9999	4200	0	0	0
2019/11/21 01:23:02	BASE	3.50	289	7.25	240	-7.3	60	-13.7	3	0	982.9	NA	0.0000		9999	4200	0	0	0
2019/11/21 01:24:02	BASE	3.42	291	7.25	240	-7.3	62	-13.4	3	0	982.9	NA	0.0000		9999	4230	0	0	0
2019/11/21 01:25:02	BASE	3.53	294	7.25	240	-7.3	63	-13.1	3	0	982.9	NA	0.0000		9999	4230	0	0	0
2019/11/21 01:26:02	BASE	3.69	293	7.25	240	-7.4	65	-12.9	3	0	982.9	NA	0.0000		9999	4200	0	0	0
2019/11/21 01:27:02	BASE	3.81	283	7.25	240	-7.4	66	-12.7	3	0	982.9	NA	0.0000		9999	4230	0	0	0
2019/11/21 01:28:02	BASE	3.87	271	5.66	265	-7.4	66	-12.6	3	0	982.9	NA	0.0000		9999	4100	0	0	0
2019/11/21 01:29:02	BASE	3.75	259	4.78	288	-7.4	66	-12.6	3	0	983.0	NA	0.0000		9999	4170	0	0	0
2019/11/21 01:30:02	BASE	3.78	252	4.78	288	-7.4	66	-12.7	3	0	982.9	NA	0.0000		9999	4170	0	0	0
2019/11/21 01:31:02	BASE	3.80	251	5.35	246	-7.4	66	-12.8	2	0	983.0	NA	0.0000		9999	4200	0	0	0
2019/11/21 01:32:02	BASE	3.49	258	5.35	246	-7.4	65	-12.8	2	0	983.0	NA	0.0000		9999	4170	0	0	0
2019/11/21 01:33:02	BASE	3.24	268	5.35	246	-7.4	65	-12.9	2	0	983.1	NA	0.0000		9999	4170	0	0	0
2019/11/21 01:34:02	BASE	2.98	265	5.35	246	-7.4	65	-12.8	2	0	983.1	NA	0.0000		9999	4200	0	0	0
2019/11/21 01:35:02	BASE	4.03	256	5.56	263	-7.4	66	-12.7	2	0	983.1	NA	0.0000		9999	4170	0	0	0
2019/11/21 01:36:02	BASE	5.08	255	5.56	263	-7.4	66	-12.7	2	0	983.1	NA	0.0000		9999	4170	0	0	0
2019/11/21 01:37:02	BASE	5.07	252	5.56	263	-7.4	66	-12.7	2	0	983.1	NA	0.0000		9999	4170	0	0	0
2019/11/21 01:38:02	BASE	5.12	252	5.56	263	-7.4	66	-12.7	2	0	983.1	NA	0.0000		9999	4130	0	0	0
2019/11/21 01:39:02	BASE	4.94	255	6.02	258	-7.4	65	-12.8	2	0	983.1	NA	0.0000		9999	4100	0	0	0
2019/11/21 01:40:02	BASE	5.28	256	6.43	256	-7.4	65	-12.9	2	0	983.1	NA	0.0000		9999	4130	0	0	0
2019/11/21 01:41:02	BASE	5.82	255	6.43	249	-7.4	64	-13.1	2	0	983.1	NA	0.0000		9999	4070	0	0	0
2019/11/21 01:42:02	BASE	5.42	255	6.43	249	-7.4	64	-13.1	2	0	983.1	NA	0.0000		9999	4100	0	0	0
2019/11/21 01:43:02	BASE	5.23	254	6.43	249	-7.4	63	-13.2	2	0	983.1	NA	0.0000		9999	4100	0	0	0
2019/11/21 01:44:02	BASE	5.29	253	6.43	249	-7.4	63	-13.2	2	0	983.1	NA	0.0000		9999	4070	0	0	0
2019/11/21 01:45:02	BASE	5.02	253	6.43	249	-7.5	63	-13.2	2	0	983.1	NA	0.0000		9999	4040	0	0	0
2019/11/21 01:46:02	BASE	5.03	256	6.43	249	-7.5	64	-13.2	2	0	983.1	NA	0.0000		9999	3900	0	0	0
2019/11/21 01:47:02	BASE	5.12	259	6.43	249	-7.5	64	-13.1	1	0	983.1	NA	0.0000		9999	4000	0	0	0
2019/11/21 01:48:02	BASE	4.95	256	6.43	249	-7.5	65	-13.0	1	0	983.1	NA	0.0000		9999	4040	0	0	0
2019/11/21 01:49:02	BASE	4.21	259	6.43	249	-7.5	65	-13.0	1	0	983.1	NA	0.0000		9999	4040	0	0	0
2019/11/21 01:50:02	BASE	3.66	264	6.43	249	-7.5	65	-13.0	1	0	983.1	NA	0.0000		9999	4000	0	0	0
2019/11/21 01:51:02	BASE	3.78	263	6.17	242	-7.5	65	-13.0	1	0	983.1	NA	0.0000		9999	4000	0	0	0
2019/11/21 01:52:02	BASE	3.59	263	6.17	242	-7.5	65	-12.9	1	0	983.1	NA	0.0000		9999	3970	0	0	0
2019/11/21 01:53:03	BASE	3.18	263	5.81	261	-7.5	65	-12.9	1	0	983.2	NA	0.0000		9999	4000	0	0	0
2019/11/21 01:54:02	BASE	3.47	258	5.81	261	-7.5	66	-12.8	1	0	983.2	NA	0.0000		9999	3900	0	0	0
2019/11/21 01:55:02	BASE	3.84	255	5.81	261	-7.5	66	-12.7	1	0	983.2	NA	0.0000		9999	3900	0	0	0
2019/11/21 01:56:02	BASE	3.89	257	5.81	261	-7.5	67	-12.6	1	0	983.2	NA	0.0000		9999	3940	0	0	0
2019/11/21 01:57:02	BASE	4.37	257	5.25	256	-7.5	67	-12.5	1	0	983.2	NA	0.0000		9999	4000	0	0	0
2019/11/21 01:58:02	BASE	4.44	257	5.25	256	-7.6	68	-12.5	1	0	983.2	NA	0.0000		9999	3940	0	0	0
2019/11/21 01:59:02	BASE	4.09	257	5.25	256	-7.6	68	-12.4	1	0	983.2	NA	0.0000		9999	3900	0	0	0
2019/11/21 02:00:02	BASE	4.10	257	5.25	256	-7.6	69	-12.3	1	0	983.2	NA	0.0000		9999	3900	0	0	0
2019/11/21 02:01:02	BASE	4.77	259	5.92	255	-7.6	69	-12.3	1	0	983.2	NA	0.0000		9999	3870	0	0	0
2019/11/21 02:02:02	BASE	4.94	261	5.92	255	-7.6	69	-12.3	1	0	983.2	NA	0.0000		9999	3940	0	0	0
2019/11/21 02:03:02	BASE	4.84	261	6.12	248	-7.6	69	-12.3	1	0	983.2	NA	0.0000		9999	3840	0	0	0
2019/11/21 02:04:02	BASE	5.19	258	6.12	248	-7.6	69	-12.3	1	0	983.2	NA	0.0000		9999	3940	0	0	0
2019/11/21 02:05:02	BASE	5.06	258	6.12	248	-7.6	69	-12.4	1	0	983.2	NA	0.0000		9999	3900	0	0	0
2019/11/21 02:06:02	BASE	4.88	257	6.12	248	-7.6	68	-12.5	1	0	983.2	NA	0.0000		9999	3900	0	0	0
2019/11/21 02:07:03	BASE	4.70	257	6.12	248	-7.6	68	-12.5	1	0	983.2	NA	0.0000		9999	3900	0	0	0
2019/11/21 02:08:02	BASE	4.53	257	6.12	248	-7.6	67	-12.6	1	0	983.2	NA	0.0000		9999	3940	0	0	0
2019/11/21 02:09:02	BASE	4.46	253	6.12	248	-7.6	67	-12.6	1	0	983.3	NA	0.0000		9999	3970	0	0	0
2019/11/21 02:10:04	BASE	4.30	252	6.12	248	-7.6	67	-12.7	1	0	983.3	NA	0.0000		9999	3940	0	0	0
2019/11/21 02:11:02	BASE	4.36	254	6.12	248	-7.6	67	-12.6	1	0	983.3	NA	0.0000		9999	3900	0	0	0
2019/11/21 02:12:03	BASE	4.53	256	6.12	248	-7.6	67	-12.6	0	0	983.3	NA	0.0000		9999	3870	0	0	0
2019/11/21 02:13:02	BASE	4.41	254	5.76	256	-7.6	67	-12.6	0	0	983.3	NA	0.0000		9999	3810	0	0	0
2019/11/21 02:14:03	BASE	4.52	253	5.61	246	-7.6	68	-12.6	0	0	983.3	NA	0.0000		9999	3870	0	0	0
2019/11/21 02:15:02	BASE	4.36	254	5.61	246	-7.6	68	-12.6	0	0	983.3	NA	0.0000		9999	3870	0	0	0
2019/11/21 02:16:02	BASE	4.02	252	5.61	246	-7.6	67	-12.6	0	0	983.3	NA	0.0000		9999	3810	0	0	0
2019/11/21 02:17:02	BASE	4.06	252	5.61	246	-7.6	67	-12.6	0	0	983.3	NA	0.0000		9999	3840	0	0	0
2019/11/21 02:18:02	BASE	3.95	253	5.61	246	-7.6	67	-12.6	0	0	983.3	NA	0.0000		9999	3900	0	0	0
2019/11/21 02:19:01	BASE	3.37	256	5.45	260	-7.6	67	-12.7	0	0	983.3	NA	0.0000		9999	3870	0	0	0
2019/11/21 02:20:02	BASE	3.01	261	5.45	260	-7.6	67	-12.7	0	0	983.3	NA	0.0000		9999	3770	0	0	0
2019/11/21 02:21:01	BASE	2.74	261	5.14	264	-7.6	67	-12.6	0	0	983.3	NA	0.0000		9999	3870	0	0	0
2019/11/21 02:22:01	BASE	2.39	265	5.14	264	-7.6	68	-12.6	0	0	983.3	NA	0.0000		9999	3870	0	0	0
2019/11/21 02:23:02	BASE	2.41	271	5.09	254	-7.6	68	-12.5	0	0	983.3	NA	0.0000		9999	3710	0	0	0
2019/11/21 02:24:02	BASE	2.75	270	4.84	253	-7.6	68	-12.4	0	0	983.3	NA	0.0000		9999	3740	0	0	0
2019/11/21 02:25:02	BASE	3.35	266	4.84	253	-7.6	69	-12.3	0	0	983.2	NA	0.0000		9999	3810	0	0	0
2019/11/21 02:26:01	BASE	3.65	263	4.84	253	-7.6	69	-12.3	0	0	983.3	NA	0.0000		9999	3710	0	0	0
2019/11/21 02:27:02	BASE	3.84	263	4.58	253	-7.6	69	-12.4	0	0	983.3	NA	0.0000		9999	3670	0	0	0
2019/11/21 02:28:02	BASE	3.32	268	4.42	253	-7.6	68	-12.4	0	0	983.3	NA	0.0000		9999	3710	0	0	0
2019/11/21 02:29:02	BASE	2.88	269	4.42	253	-7.6	68	-12.4	0	0	983.3	NA	0.0000		9999	3710	0	0	0
2019/11/21 02:30:02	BASE	3.50	264	4.58	262	-7.6	68	-12.5	0	0	983.3	NA	0.0000		9999	3670	0	0	0
2019/11/21 02:31:02	BASE	3.40	261	4.58	262	-7.6	68	-12.5	0	0	983.3	NA	0.0000		9999	3710	0	0	0
2019/11/21 02:32:02	BASE	3.06	261	4.58	262	-7.6	68	-12.5	0	0	983.3	NA	0.0000		9999	3710	0	0	0
2019/11/21 02:33:02	BASE	2.91	260	4.58	262	-7.6	68	-12.5	0	0	983.3	NA	0.0000		9999	3740	0	0	0
2019/11/21 02:34:01	BASE	2.65	265	4.58	262	-7.6	68	-12.5	0	0	983.3	NA	0.0000		9999	3670	0	0	0
2019/11/21 02:35:02	BASE	2.93	268	4.58	262	-7.6	68	-12.5	0	0	983.3	NA	0.0000		9999	3770	0	0	0
2019/11/21 02:36:01	BASE	3.08	261	4.58	262	-7.6	68	-12.5	0	0	983.3	NA	0.0000		9999	3740	0	0	0
2019/11/21 02:37:01	BASE	2.73	261	4.58	262	-7.6	68	-12.4	0	0	983.3	NA	0.0000		9999	3640	0	0	0
2019/11/21 02:38:02	BASE	2.33	273	4.58	262	-7.5	68	-12.4	0	0	983.3	NA	0.0000		9999	3670	0	0	0
2019/11/21 02:39:02	BASE	2.19	276	4.58	262	-7.5	68	-12.3	0	0	983.3	NA	0.0000		9999	3770	0	0	0
2019/11/21 02:40:01	BASE	2.31	271	3.76	270	-7.5	69	-12.3	0	0	983.3	NA	0.0000		9999	3770	0	0	0
2019/11/21 02:41:02	BASE	2.97	266	4.22	256	-7.5	69	-12.2	0	0	983.3	NA	0.0000		9999	3770	0	0	0
2019/11/21 02:42:01	BASE	3.71	262	4.27	272	-7.5	69	-12.2	0	0	983.3	NA	0.0000		9999	3770	0	0	0
2019/11/21 02:43:02	BASE	3.49	261	4.27	272	-7.5	69	-12.2	0	0	983.3	NA	0.0000		9999	3810	0	0	0
2019/11/21 02:44:01	BASE	3.35	261	4.27	272	-7.6	69	-12.2	0	0	983.3	NA	0.0000		9999	3810	0	0	0
2019/11/21 02:45:02	BASE	3.29	262	4.27	272	-7.6	69	-12.3	0	0	983.3	NA	0.0000		9999	3810	0	0	0
2019/11/21 02:46:02	BASE	3.33	259	4.27	272	-7.6	69	-12.3	0	0	983.3	NA	0.0000		9999	3710	0	0	0
2019/11/21 02:47:02	BASE	3.39	256	4.27	272	-7.6	68	-12.4	0	0	983.3	NA	0.0000		9999	3770	0	0	0
2019/11/21 02:48:02	BASE	3.30	257	4.27	272	-7.6	68	-12.4	0	0	983.4	NA	0.0000		9999	3770	0	0	0
2019/11/21 02:49:02	BASE	3.40	257	4.27	272	-7.6	68	-12.4	0	0	983.4	NA	0.0000		9999	3710	0	0	0
2019/11/21 02:50:01	BASE	3.35	254	4.27	272	-7.6	69	-12.4	0	0	983.4	NA	0.0000		9999	3870	0	0	0
2019/11/21 02:51:02	BASE	3.15	254	4.27	272	-7.6	69	-12.3	0	0	983.4	NA	0.0000		9999	3940	0	0	0
2019/11/21 02:52:01	BASE	3.32	256	4.17	271	-7.6	69	-12.3	0	0	983.4	NA	0.0000		9999	3840	0	0	0
2019/11/21 02:53:02	BASE	3.59	253	4.12	258	-7.6	69	-12.3	0	0	983.4	NA	0.0000		9999	3870	0	0	0
2019/11/21 02:54:01	BASE	3.58	252	4.12	258	-7.6	69	-12.3	0	0	983.4	NA	0.0000		9999	3840	0	0	0
2019/11/21 02:55:02	BASE	3.69	252	4.37	255	-7.6	69	-12.3	0	0	983.4	NA	0.0000		9999	4000	0	0	0
2019/11/21 02:56:02	BASE	3.91	255	4.78	263	-7.6	69	-12.2	0	0	983.4	NA	0.0000		9999	3870	0	0	0
2019/11/21 02:57:02	BASE	4.16	256	5.35	262	-7.6	70	-12.2	0	0	983.4	NA	0.0000		9999	3770	0	0	0
2019/11/21 02:58:02	BASE	4.37	254	5.35	262	-7.6	70	-12.1	0	0	983.4	NA	0.0000		9999	3810	0	0	0
2019/11/21 02:59:02	BASE	4.47	256	5.35	262	-7.6	71	-12.0	0	0	983.4	NA	0.0000		9999	3670	0	0	0
2019/11/21 03:00:02	BASE	4.57	252	5.40	247	-7.6	71	-12.0	0	0	983.4	NA	0.0000		9999	3710	0	0	0
2019/11/21 03:01:02	BASE	4.65	247	5.40	247	-7.6	71	-12.0	0	0	983.4	NA	0.0000		9999	3610	0	0	0
2019/11/21 03:02:01	BASE	4.46	250	5.40	247	-7.6	71	-12.0	0	0	983.4	NA	0.0000		9999	3610	0	0	0
2019/11/21 03:03:02	BASE	4.32	252	5.40	247	-7.6	71	-12.0	0	0	983.5	NA	0.0000		9999	3870	0	0	0
2019/11/21 03:04:02	BASE	4.60	249	5.40	247	-7.6	71	-12.0	0	0	983.4	NA	0.0000		9999	3770	0	0	0
2019/11/21 03:05:02	BASE	4.92	250	5.81	247	-7.7	71	-12.0	0	0	983.5	NA	0.0000		9999	3580	0	0	0
2019/11/21 03:06:02	BASE	4.98	255	5.81	247	-7.7	71	-12.0	0	0	983.4	NA	0.0000		9999	3670	0	0	0
2019/11/21 03:07:03	BASE	5.00	254	5.81	247	-7.7	71	-12.0	0	0	983.4	NA	0.0000		9999	3610	0	0	0
2019/11/21 03:08:02	BASE	4.85	253	5.81	247	-7.7	71	-12.0	0	0	983.4	NA	0.0000		9999	3640	0	0	0
2019/11/21 03:09:02	BASE	4.98	256	6.02	263	-7.7	71	-12.0	0	0	983.4	NA	0.0000		9999	3670	0	0	0
2019/11/21 03:10:02	BASE	5.01	256	6.02	263	-7.7	71	-12.0	0	0	983.4	NA	0.0000		9999	3610	0	0	0
2019/11/21 03:11:02	BASE	4.48	260	6.02	263	-7.7	71	-12.0	0	0	983.4	NA	0.0000		9999	3670	0	0	0
2019/11/21 03:12:02	BASE	4.51	261	6.02	263	-7.7	71	-12.0	0	0	983.4	NA	0.0000		9999	3510	0	0	0
2019/11/21 03:13:02	BASE	4.68	258	6.02	263	-7.7	71	-12.0	0	0	983.4	NA	0.0000		9999	3640	0	0	0
2019/11/21 03:14:02	BASE	4.46	258	6.02	263	-7.7	72	-11.9	0	0	983.4	NA	0.0000		9999	3740	0	0	0
2019/11/21 03:15:02	BASE	4.65	252	6.02	263	-7.7	72	-11.9	0	0	983.5	NA	0.0000		9999	3610	0	0	0
2019/11/21 03:16:02	BASE	4.22	252	6.02	263	-7.7	72	-11.8	0	0	983.5	NA	0.0000		9999	3740	0	0	0
2019/11/21 03:17:02	BASE	3.79	257	6.02	263	-7.7	73	-11.8	0	0	983.5	NA	0.0000		9999	3610	0	0	0
2019/11/21 03:18:02	BASE	4.29	254	6.02	263	-7.7	73	-11.7	0	0	983.5	NA	0.0000		9999	3640	0	0	0
2019/11/21 03:19:02	BASE	4.36	251	5.45	245	-7.8	73	-11.7	0	0	983.5	NA	0.0000		9999	3640	0	0	0
2019/11/21 03:20:01	BASE	4.06	254	5.45	245	-7.8	74	-11.7	0	0	983.5	NA	0.0000		9999	3540	0	0	0
2019/11/21 03:21:02	BASE	4.03	253	5.45	245	-7.8	74	-11.6	0	0	983.5	NA	0.0000		9999	3610	0	0	0
2019/11/21 03:22:01	BASE	4.02	248	5.45	245	-7.8	74	-11.6	0	0	983.5	NA	0.0000		9999	3640	0	0	0
2019/11/21 03:23:02	BASE	3.93	247	5.45	245	-7.8	74	-11.6	0	0	983.5	NA	0.0000		9999	3900	0	0	0
2019/11/21 03:24:01	BASE	4.36	246	5.81	248	-7.8	75	-11.5	0	0	983.5	NA	0.0000		9999	3670	0	0	0
2019/11/21 03:25:02	BASE	4.90	242	5.81	248	-7.8	75	-11.5	0	0	983.5	NA	0.0000		9999	3640	0	0	0
2019/11/21 03:26:02	BASE	5.07	240	5.92	235	-7.8	75	-11.4	0	0	983.5	NA	0.0000		9999	3640	0	0	0
2019/11/21 03:27:02	BASE	5.32	238	5.92	235	-7.8	76	-11.4	0	0	983.5	NA	0.0000		9999	3810	4330	0	0
2019/11/21 03:28:02	BASE	5.15	238	5.92	235	-7.8	76	-11.3	0	0	983.5	NA	0.0000		9999	4130	0	0	0
2019/11/21 03:29:02	BASE	5.06	236	6.22	228	-7.8	76	-11.3	0	0	983.5	NA	0.0000		9999	4130	0	0	0
2019/11/21 03:30:02	BASE	5.42	235	6.28	239	-7.8	76	-11.3	0	0	983.5	NA	0.0000		9999	4330	0	0	0
2019/11/21 03:31:02	BASE	5.13	237	6.28	239	-7.8	76	-11.2	0	0	983.5	NA	0.0000		9999	4360	0	0	0
2019/11/21 03:32:02	BASE	4.82	236	6.28	239	-7.8	77	-11.2	0	0	983.5	NA	0.0000		9999	4400	0	0	0
2019/11/21 03:33:02	BASE	5.03	234	6.28	239	-7.9	77	-11.2	0	0	983.5	NA	0.0000		9999	4170	0	0	0
2019/11/21 03:34:01	BASE	5.17	236	6.28	239	-7.9	77	-11.1	0	0	983.5	NA	0.0000		9999	2660	4860	0	0
2019/11/21 03:35:02	BASE	5.15	236	6.28	239	-7.9	78	-11.1	0	0	983.5	NA	0.0000		9999	1710	3410	4660	0
2019/11/21 03:36:02	BASE	5.35	234	6.28	235	-7.9	78	-11.0	0	0	983.5	NA	0.0000		9999	1380	2850	4330	0
2019/11/21 03:37:02	BASE	5.39	236	6.28	235	-7.9	79	-11.0	0	0	983.5	NA	0.0000		9999	2070	4330	0	0
2019/11/21 03:38:02	BASE	5.13	235	6.28	235	-8.0	79	-10.9	0	0	983.5	NA	0.0000		9999	2000	2990	5220	0
2019/11/21 03:39:02	BASE	4.91	234	6.28	235	-8.0	80	-10.9	0	0	983.5	NA	0.0000		9999	2360	5410	0	0
2019/11/21 03:40:01	BASE	4.38	236	6.28	235	-8.0	80	-10.9	0	0	983.5	NA	0.0000		9999	2660	5380	0	0
2019/11/21 03:41:02	BASE	3.95	240	6.28	235	-8.0	80	-10.8	0	0	983.5	NA	0.0000		9999	2230	3050	5220	0
2019/11/21 03:42:02	BASE	3.85	244	6.28	235	-8.0	81	-10.7	0	0	983.5	NA	0.0000		9999	2000	5220	0	0
2019/11/21 03:43:02	BASE	3.98	244	6.28	235	-8.0	81	-10.7	0	0	983.5	NA	0.0000		9999	4950	0	0	0
2019/11/21 03:44:02	BASE	4.17	245	6.28	235	-8.0	82	-10.6	0	0	983.5	NA	0.0000		9999	5350	0	0	0
2019/11/21 03:45:02	BASE	3.89	249	6.28	235	-8.0	82	-10.5	0	0	983.5	NA	0.0000		9999	5410	0	0	0
2019/11/21 03:46:01	BASE	3.90	252	6.22	241	-8.0	82	-10.5	0	0	983.6	NA	0.0000		9999	5810	0	0	0
2019/11/21 03:47:02	BASE	4.60	251	6.12	250	-8.0	83	-10.4	0	0	983.5	NA	0.0000		9999	5710	0	0	0
2019/11/21 03:48:02	BASE	4.84	252	6.12	245	-8.0	83	-10.4	0	0	983.5	NA	0.0000		9999	5640	0	0	0
2019/11/21 03:49:02	BASE	4.86	253	6.12	245	-8.0	83	-10.4	0	0	983.5	NA	0.0000		9999	5480	0	0	0
2019/11/21 03:50:02	BASE	5.02	249	6.12	245	-8.1	83	-10.4	0	0	983.6	NA	0.0000		9999	5150	0	0	0
2019/11/21 03:51:02	BASE	4.64	245	6.12	245	-8.1	84	-10.4	0	0	983.6	NA	0.0000		9999	5020	0	0	0
2019/11/21 03:52:02	BASE	4.49	245	6.12	245	-8.1	84	-10.3	0	0	983.6	NA	0.0000		9999	4950	0	0	0
2019/11/21 03:53:03	BASE	4.71	246	6.12	245	-8.1	84	-10.3	0	0	983.6	NA	0.0000		9999	4920	0	0	0
2019/11/21 03:54:01	BASE	4.75	249	6.12	245	-8.1	85	-10.2	0	0	983.6	NA	0.0000		9999	4860	0	0	0
2019/11/21 03:55:02	BASE	4.77	249	6.12	245	-8.1	85	-10.2	0	0	983.6	NA	0.0000		9999	4790	0	0	0
2019/11/21 03:56:01	BASE	4.85	250	6.12	245	-8.2	85	-10.2	0	0	983.6	NA	0.0000		9999	4790	0	0	0
2019/11/21 03:57:02	BASE	4.72	253	6.12	245	-8.2	86	-10.1	0	0	983.7	NA	0.0000		9999	4690	0	0	0
2019/11/21 03:58:02	BASE	4.49	252	5.71	253	-8.2	86	-10.1	0	0	983.7	NA	0.0000		9999	4590	0	0	0
2019/11/21 03:59:02	BASE	4.41	251	5.71	253	-8.2	87	-10.0	0	0	983.7	NA	0.0000		9999	4490	0	0	0
2019/11/21 04:00:02	BASE	4.06	256	5.35	242	-8.2	87	-10.0	0	0	983.7	NA	0.0000		9999	4560	0	0	0
2019/11/21 04:02:00	BASE	4.22	255	5.35	242	-8.2	87	-9.9	0	0	983.6	NA	0.0000		9999	4490	0	0	0
2019/11/21 04:03:00	BASE	4.25	252	5.35	242	-8.2	88	-9.9	0	0	983.7	NA	0.0000		9999	4400	0	0	0
2019/11/21 04:04:00	BASE	4.24	253	5.35	242	-8.2	88	-9.8	0	0	983.7	NA	0.0000		9999	4490	0	0	0
2019/11/21 04:05:00	BASE	4.39	253	5.30	252	-8.2	89	-9.7	0	0	983.7	NA	0.0000		9999	4360	0	0	0
2019/11/21 04:06:00	BASE	3.84	254	5.25	250	-8.2	89	-9.7	0	0	983.7	NA	0.0000		9999	4360	0	0	0
2019/11/21 04:07:00	BASE	3.86	253	5.25	250	-8.2	89	-9.6	0	0	983.7	NA	0.0000		9999	4460	0	0	0
2019/11/21 04:08:00	BASE	3.86	254	5.14	252	-8.1	89	-9.6	0	0	983.7	NA	0.0000		9999	4430	0	0	0
2019/11/21 04:09:00	BASE	3.68	257	5.14	252	-8.1	89	-9.6	0	0	983.7	NA	0.0000		9999	4360	0	0	0
2019/11/21 04:10:00	BASE	3.95	258	5.14	252	-8.1	89	-9.6	0	0	983.7	NA	0.0000		9999	4400	0	0	0
2019/11/21 04:11:00	BASE	3.89	256	5.14	252	-8.1	89	-9.6	0	0	983.7	NA	0.0000		9999	4460	0	0	0
2019/11/21 04:12:00	BASE	3.46	255	5.14	252	-8.1	88	-9.7	0	0	983.7	NA	0.0000		9999	4530	0	0	0
2019/11/21 04:13:00	BASE	3.05	256	5.14	252	-8.1	88	-9.7	0	0	983.7	NA	0.0000		9999	4430	0	0	0
2019/11/21 04:14:00	BASE	2.83	256	4.99	256	-8.1	88	-9.8	0	0	983.7	NA	0.0000		9999	4660	0	0	0
2019/11/21 04:15:00	BASE	3.07	255	4.99	256	-8.0	87	-9.8	0	0	983.7	NA	0.0000		9999	4460	0	0	0
2019/11/21 04:16:00	BASE	3.27	254	4.99	256	-8.0	87	-9.8	0	0	983.7	NA	0.0000		9999	4790	0	0	0
2019/11/21 04:17:00	BASE	3.23	253	4.89	252	-8.0	87	-9.8	0	0	983.7	NA	0.0000		9999	4720	0	0	0
2019/11/21 04:18:00	BASE	3.19	250	4.89	252	-8.0	87	-9.8	0	0	983.7	NA	0.0000		9999	4950	0	0	0
2019/11/21 04:19:00	BASE	3.37	254	4.53	254	-8.0	86	-9.9	0	0	983.7	NA	0.0000		9999	4890	0	0	0
2019/11/21 04:20:00	BASE	3.60	256	4.53	254	-8.0	86	-9.9	0	0	983.7	NA	0.0000		9999	5050	0	0	0
2019/11/21 04:21:00	BASE	3.16	256	4.12	266	-8.0	86	-10.0	0	0	983.7	NA	0.0000		9999	5150	0	0	0
2019/11/21 04:22:00	BASE	3.09	258	4.12	266	-8.0	85	-10.0	0	0	983.7	NA	0.0000		9999	5180	0	0	0
2019/11/21 04:23:00	BASE	3.47	258	4.12	266	-8.0	85	-10.1	0	0	983.7	NA	0.0000		9999	5120	0	0	0
2019/11/21 04:24:00	BASE	3.45	259	4.12	266	-8.0	84	-10.2	0	0	983.7	NA	0.0000		9999	5150	0	0	0
2019/11/21 04:25:00	BASE	3.29	261	4.48	259	-8.0	84	-10.2	0	0	983.7	NA	0.0000		9999	5280	0	0	0
2019/11/21 04:26:00	BASE	3.26	263	4.48	259	-8.0	84	-10.3	0	0	983.7	NA	0.0000		9999	5380	0	0	0
2019/11/21 04:27:00	BASE	3.40	267	4.48	259	-8.0	83	-10.3	0	0	983.7	NA	0.0000		9999	4990	0	0	0
2019/11/21 04:28:00	BASE	3.30	269	4.48	259	-8.0	83	-10.3	0	0	983.7	NA	0.0000		9999	4860	0	0	0
2019/11/21 04:29:00	BASE	2.93	267	4.48	259	-8.0	83	-10.4	0	0	983.7	NA	0.0000		9999	4890	0	0	0
2019/11/21 04:30:00	BASE	3.15	265	4.48	259	-7.9	83	-10.4	0	0	983.7	NA	0.0000		9999	4400	0	0	0
2019/11/21 04:31:00	BASE	3.67	261	4.48	259	-7.9	82	-10.4	0	0	983.7	NA	0.0000		9999	4530	0	0	0
2019/11/21 04:32:00	BASE	3.85	259	4.48	259	-7.9	82	-10.5	0	0	983.7	NA	0.0000		9999	4590	0	0	0
2019/11/21 04:33:00	BASE	3.87	261	4.48	257	-8.0	81	-10.6	0	0	983.7	NA	0.0000		9999	4720	0	0	0
2019/11/21 04:34:00	BASE	3.77	258	4.48	257	-8.0	81	-10.6	0	0	983.7	NA	0.0000		9999	4790	0	0	0
2019/11/21 04:35:00	BASE	3.64	256	4.48	257	-8.0	81	-10.7	0	0	983.7	NA	0.0000		9999	0	0	0	0
2019/11/21 04:36:00	BASE	3.63	256	4.48	257	-8.0	81	-10.8	0	0	983.7	NA	0.0000		9999	0	0	0	0
2019/11/21 04:37:00	BASE	3.86	254	4.78	249	-8.1	81	-10.8	0	0	983.7	NA	0.0000		9999	0	0	0	0
2019/11/21 04:38:00	BASE	3.92	256	4.78	249	-8.1	81	-10.8	0	0	983.7	NA	0.0000		9999	0	0	0	0
2019/11/21 04:39:00	BASE	3.84	256	4.78	249	-8.1	81	-10.8	0	0	983.7	NA	0.0000		9999	0	0	0	0
2019/11/21 04:40:00	BASE	3.73	256	4.78	249	-8.1	81	-10.8	0	0	983.7	NA	0.0000		9999	0	0	0	0
2019/11/21 04:41:00	BASE	3.50	257	4.78	249	-8.1	81	-10.8	0	0	983.7	NA	0.0000		9999	0	0	0	0
2019/11/21 04:42:00	BASE	3.48	256	4.78	249	-8.2	81	-10.8	0	0	983.7	NA	0.0000		9999	0	0	0	0
2019/11/21 04:43:00	BASE	3.40	256	4.78	249	-8.2	82	-10.8	0	0	983.7	NA	0.0000		9999	0	0	0	0
2019/11/21 04:44:00	BASE	3.22	257	4.78	249	-8.2	82	-10.8	0	0	983.7	NA	0.0000		9999	0	0	0	0
2019/11/21 04:45:01	BASE	3.18	258	4.78	249	-8.2	82	-10.7	0	0	983.7	NA	0.0000		9999	0	0	0	0
2019/11/21 04:46:00	BASE	3.07	261	4.78	249	-8.2	82	-10.7	0	0	983.7	NA	0.0000		9999	0	0	0	0
2019/11/21 04:47:00	BASE	3.13	260	4.68	250	-8.3	83	-10.7	0	0	983.7	NA	0.0000		9999	0	0	0	0
2019/11/21 04:48:00	BASE	3.44	258	4.78	263	-8.3	83	-10.6	0	0	983.7	NA	0.0000		9999	0	0	0	0
2019/11/21 04:49:00	BASE	3.58	259	4.78	263	-8.3	83	-10.6	0	0	983.7	NA	0.0000		9999	0	0	0	0
2019/11/21 04:50:00	BASE	3.44	260	4.78	263	-8.3	84	-10.5	0	0	983.7	NA	0.0000		9999	0	0	0	0
2019/11/21 04:51:00	BASE	2.87	259	4.78	263	-8.3	84	-10.5	0	0	983.7	NA	0.0000		9999	0	0	0	0
2019/11/21 04:52:00	BASE	2.84	257	4.78	263	-8.3	84	-10.5	0	0	983.8	NA	0.0000		9999	0	0	0	0
2019/11/21 04:53:00	BASE	3.09	260	4.78	263	-8.3	84	-10.5	0	0	983.7	NA	0.0000		9999	0	0	0	0
2019/11/21 04:54:00	BASE	2.98	259	4.78	263	-8.3	84	-10.6	0	0	983.7	NA	0.0000		9999	0	0	0	0
2019/11/21 04:55:00	BASE	2.90	260	4.78	263	-8.4	84	-10.6	0	0	983.7	NA	0.0000		9999	0	0	0	0
2019/11/21 04:56:00	BASE	2.95	264	4.78	263	-8.4	84	-10.6	0	0	983.7	NA	0.0000		9999	0	0	0	0
2019/11/21 04:57:00	BASE	2.68	265	4.78	263	-8.4	84	-10.6	0	0	983.7	NA	0.0000		9999	0	0	0	0
2019/11/21 04:58:00	BASE	2.44	267	3.81	265	-8.4	84	-10.6	0	0	983.8	NA	0.0000		9999	0	0	0	0
2019/11/21 04:59:00	BASE	2.72	264	3.76	270	-8.4	84	-10.6	0	0	983.9	NA	0.0000		9999	0	0	0	0
2019/11/21 05:00:01	BASE	2.58	265	3.76	270	-8.5	84	-10.6	0	0	983.9	NA	0.0000		9999	0	0	0	0
2019/11/21 05:01:00	BASE	2.80	266	4.01	259	-8.5	85	-10.6	0	0	983.9	NA	0.0000		9999	0	0	0	0
2019/11/21 05:02:00	BASE	3.27	262	4.01	259	-8.5	85	-10.6	0	0	983.9	NA	0.0000		9999	0	0	0	0
2019/11/21 05:03:00	BASE	3.32	260	4.17	259	-8.5	85	-10.6	0	0	983.9	NA	0.0000		9999	0	0	0	0
2019/11/21 05:04:00	BASE	3.62	260	4.37	251	-8.5	85	-10.6	0	0	983.9	NA	0.0000		9999	0	0	0	0
2019/11/21 05:05:00	BASE	3.72	259	4.37	251	-8.5	85	-10.6	0	0	983.9	NA	0.0000		9999	0	0	0	0
2019/11/21 05:06:00	BASE	3.47	256	4.37	251	-8.6	85	-10.6	0	0	983.9	NA	0.0000		9999	0	0	0	0
2019/11/21 05:07:00	BASE	3.59	256	4.37	251	-8.6	85	-10.7	0	0	983.9	NA	0.0000		9999	0	0	0	0
2019/11/21 05:08:00	BASE	3.88	258	4.37	251	-8.6	85	-10.7	0	0	983.9	NA	0.0000		9999	0	0	0	0
2019/11/21 05:09:00	BASE	3.86	257	4.37	251	-8.7	85	-10.7	0	0	983.9	NA	0.0000		9999	0	0	0	0
2019/11/21 05:10:00	BASE	3.89	256	4.48	265	-8.7	86	-10.7	0	0	983.9	NA	0.0000		9999	0	0	0	0
2019/11/21 05:11:00	BASE	4.00	256	4.48	265	-8.7	86	-10.7	0	0	983.9	NA	0.0000		9999	0	0	0	0
2019/11/21 05:12:00	BASE	4.04	254	4.84	255	-8.7	86	-10.7	0	0	983.9	NA	0.0000		9999	0	0	0	0
2019/11/21 05:13:00	BASE	4.28	255	4.84	255	-8.8	86	-10.7	0	0	983.9	NA	0.0000		9999	0	0	0	0
2019/11/21 05:14:00	BASE	4.23	254	4.84	255	-8.8	86	-10.7	0	0	983.9	NA	0.0000		9999	0	0	0	0
2019/11/21 05:15:00	BASE	3.92	252	4.84	255	-8.8	86	-10.7	0	0	983.9	NA	0.0000		9999	0	0	0	0
2019/11/21 05:16:00	BASE	3.68	253	4.84	255	-8.8	86	-10.8	0	0	984.0	NA	0.0000		9999	0	0	0	0
2019/11/21 05:17:00	BASE	3.65	254	4.84	255	-8.9	86	-10.7	0	0	983.9	NA	0.0000		9999	0	0	0	0
2019/11/21 05:18:00	BASE	3.80	251	4.84	255	-8.9	86	-10.7	0	0	983.9	NA	0.0000		9999	0	0	0	0
2019/11/21 05:19:00	BASE	3.65	252	4.84	255	-8.9	87	-10.7	0	0	983.9	NA	0.0000		9999	0	0	0	0
2019/11/21 05:20:00	BASE	3.18	256	4.84	255	-8.9	87	-10.7	0	0	983.9	NA	0.0000		9999	0	0	0	0
2019/11/21 05:21:00	BASE	3.12	256	4.84	255	-8.9	87	-10.7	0	0	983.9	NA	0.0000		9999	0	0	0	0
2019/11/21 05:22:00	BASE	3.26	256	4.78	254	-8.9	87	-10.7	0	0	983.9	NA	0.0000		9999	0	0	0	0
2019/11/21 05:23:00	BASE	3.18	256	4.37	246	-8.9	87	-10.7	0	0	983.9	NA	0.0000		9999	0	0	0	0
2019/11/21 05:24:00	BASE	3.24	256	4.32	244	-8.9	87	-10.7	0	0	983.9	NA	0.0000		9999	0	0	0	0
2019/11/21 05:25:00	BASE	3.02	256	4.32	244	-8.9	87	-10.7	0	0	983.9	NA	0.0000		9999	0	0	0	0
2019/11/21 05:26:00	BASE	2.83	257	4.32	244	-8.9	87	-10.7	0	0	984.0	NA	0.0000		9999	0	0	0	0
2019/11/21 05:27:00	BASE	2.79	259	4.32	244	-8.9	87	-10.7	0	0	984.0	NA	0.0000		9999	0	0	0	0
2019/11/21 05:28:00	BASE	2.77	261	4.17	256	-8.9	87	-10.7	0	0	984.0	NA	0.0000		9999	0	0	0	0
2019/11/21 05:29:00	BASE	2.80	263	4.17	256	-8.9	87	-10.7	0	0	984.0	NA	0.0000		9999	6790	0	0	0
2019/11/21 05:30:00	BASE	2.52	262	4.17	256	-8.9	87	-10.7	0	0	984.0	NA	0.0000		9999	6690	0	0	0
2019/11/21 05:31:00	BASE	2.52	261	4.01	251	-8.9	87	-10.7	0	0	984.0	NA	0.0000		9999	6690	0	0	0
2019/11/21 05:32:00	BASE	2.81	263	4.01	251	-8.9	87	-10.7	0	0	984.0	NA	0.0000		9999	6630	0	0	0
2019/11/21 05:33:00	BASE	3.05	263	4.01	251	-8.9	87	-10.7	0	0	984.0	NA	0.0000		9999	6820	0	0	0
2019/11/21 05:34:00	BASE	2.87	265	3.65	257	-8.9	87	-10.7	0	0	984.1	NA	0.0000		9999	6660	0	0	0
2019/11/21 05:35:00	BASE	2.62	270	3.65	270	-9.0	87	-10.7	0	0	984.1	NA	0.0000		9999	6590	0	0	0
2019/11/21 05:36:00	BASE	2.45	270	3.65	270	-9.0	87	-10.7	1	0	984.1	NA	0.0000		9999	6560	0	0	0
2019/11/21 05:37:00	BASE	2.27	272	3.65	270	-9.0	87	-10.8	1	0	984.1	NA	0.0000		9999	6590	0	0	0
2019/11/21 05:38:00	BASE	2.16	273	3.65	270	-9.0	87	-10.8	1	0	984.1	NA	0.0000		9999	6530	0	0	0
2019/11/21 05:39:00	BASE	1.98	272	3.65	270	-9.0	87	-10.8	1	0	984.1	NA	0.0000		9999	6730	0	0	0
2019/11/21 05:40:00	BASE	2.42	268	3.65	269	-9.1	87	-10.8	1	0	984.1	NA	0.0000		9999	6660	0	0	0
2019/11/21 05:41:00	BASE	2.87	269	3.65	269	-9.1	87	-10.8	1	0	984.1	NA	0.0000		9999	6730	0	0	0
2019/11/21 05:42:00	BASE	2.44	268	3.65	269	-9.1	87	-10.9	1	0	984.1	NA	0.0000		9999	6630	0	0	0
2019/11/21 05:43:00	BASE	1.79	268	3.65	269	-9.1	87	-10.9	1	0	984.1	NA	0.0000		9999	6590	0	0	0
2019/11/21 05:44:00	BASE	2.23	270	3.76	257	-9.1	87	-10.9	1	0	984.1	NA	0.0000		9999	6590	0	0	0
2019/11/21 05:45:00	BASE	2.79	268	3.76	257	-9.1	87	-10.9	1	0	984.1	NA	0.0000		9999	6500	0	0	0
2019/11/21 05:46:00	BASE	2.80	267	3.76	257	-9.2	87	-10.9	1	0	984.1	NA	0.0000		9999	6660	0	0	0
2019/11/21 05:47:00	BASE	2.79	265	3.76	257	-9.2	87	-10.9	1	0	984.2	NA	0.0000		9999	6630	0	0	0
2019/11/21 05:48:00	BASE	2.73	262	3.76	257	-9.2	87	-11.0	1	0	984.2	NA	0.0000		9999	6530	0	0	0
2019/11/21 05:49:00	BASE	2.76	265	3.76	257	-9.2	87	-11.0	1	0	984.2	NA	0.0000		9999	6730	0	0	0
2019/11/21 05:50:00	BASE	2.58	266	3.76	257	-9.2	87	-11.0	1	0	984.2	NA	0.0000		9999	6630	0	0	0
2019/11/21 05:51:00	BASE	1.91	267	3.76	257	-9.2	87	-11.0	1	0	984.2	NA	0.0000		9999	2430	6560	0	0
2019/11/21 05:52:00	BASE	1.84	268	3.76	257	-9.2	86	-11.1	1	0	984.2	NA	0.0000		9999	6530	0	0	0
2019/11/21 05:53:00	BASE	2.46	265	3.76	257	-9.2	86	-11.1	1	0	984.2	NA	0.0000		9999	6500	0	0	0
2019/11/21 05:54:00	BASE	2.40	261	3.45	259	-9.2	86	-11.1	1	0	984.2	NA	0.0000		9999	6460	0	0	0
2019/11/21 05:55:00	BASE	1.87	263	3.45	259	-9.2	86	-11.1	1	0	984.2	NA	0.0000		9999	6460	0	0	0
2019/11/21 05:56:00	BASE	1.90	263	3.45	259	-9.2	86	-11.2	1	0	984.2	NA	0.0000		9999	6500	0	0	0
2019/11/21 05:57:00	BASE	2.24	260	3.45	259	-9.2	86	-11.2	1	0	984.2	NA	0.0000		9999	6430	0	0	0
2019/11/21 05:58:00	BASE	2.32	266	3.24	255	-9.2	85	-11.2	2	0	984.2	NA	0.0000		9999	6430	0	0	0
2019/11/21 05:59:00	BASE	2.15	267	3.24	255	-9.2	85	-11.3	2	0	984.3	NA	0.0000		9999	6400	0	0	0
2019/11/21 06:00:00	BASE	1.85	265	3.24	255	-9.2	85	-11.3	2	0	984.3	NA	0.0000		9999	6370	0	0	0
2019/11/21 06:01:00	BASE	1.64	270	3.24	255	-9.2	85	-11.3	2	0	984.3	NA	0.0000		9999	6300	0	0	0
2019/11/21 06:02:00	BASE	1.66	268	3.24	255	-9.2	85	-11.3	2	0	984.3	NA	0.0000		9999	6230	0	0	0
2019/11/21 06:03:00	BASE	2.09	262	3.29	250	-9.2	85	-11.3	2	0	984.3	NA	0.0000		9999	6300	0	0	0
2019/11/21 06:04:00	BASE	2.18	257	3.29	250	-9.2	84	-11.3	2	0	984.3	NA	0.0000		9999	6230	0	0	0
2019/11/21 06:05:00	BASE	2.27	254	3.29	250	-9.2	84	-11.4	2	0	984.3	NA	0.0000		9999	6460	0	0	0
2019/11/21 06:06:00	BASE	2.24	250	3.29	250	-9.2	84	-11.4	2	0	984.3	NA	0.0000		9999	6370	0	0	0
2019/11/21 06:07:00	BASE	2.20	248	3.29	250	-9.2	84	-11.4	2	0	984.3	NA	0.0000		9999	6400	0	0	0
2019/11/21 06:08:00	BASE	2.47	248	3.50	238	-9.2	84	-11.4	2	0	984.3	NA	0.0000		9999	6370	0	0	0
2019/11/21 06:09:00	BASE	2.33	247	3.50	238	-9.1	84	-11.4	2	0	984.3	NA	0.0000		9999	6140	0	0	0
2019/11/21 06:10:00	BASE	2.18	246	3.50	238	-9.1	84	-11.4	2	0	984.3	NA	0.0000		9999	6100	0	0	0
2019/11/21 06:11:00	BASE	2.01	248	3.50	238	-9.1	83	-11.4	2	0	984.3	NA	0.0000		9999	6530	0	0	0
2019/11/21 06:12:00	BASE	1.97	247	3.50	238	-9.1	83	-11.4	2	0	984.3	NA	0.0000		9999	6300	0	0	0
2019/11/21 06:13:00	BASE	2.13	245	3.50	238	-9.1	83	-11.4	2	0	984.3	NA	0.0000		9999	6040	0	0	0
2019/11/21 06:14:00	BASE	1.99	247	3.50	238	-9.1	83	-11.4	2	0	984.3	NA	0.0000		9999	6170	0	0	0
2019/11/21 06:15:00	BASE	2.00	244	3.50	238	-9.0	83	-11.4	2	0	984.3	NA	0.0000		9999	6140	0	0	0
2019/11/21 06:16:00	BASE	2.08	246	3.50	238	-9.0	83	-11.4	2	0	984.3	NA	0.0000		9999	6230	0	0	0
2019/11/21 06:17:00	BASE	2.03	246	3.50	238	-9.0	83	-11.3	2	0	984.3	NA	0.0000		9999	6300	0	0	0
2019/11/21 06:18:00	BASE	1.81	239	2.78	253	-8.9	83	-11.3	2	0	984.4	NA	0.0000		9999	6330	0	0	0
2019/11/21 06:19:00	BASE	1.53	241	2.78	253	-8.9	83	-11.3	2	0	984.5	NA	0.0000		9999	6300	0	0	0
2019/11/21 06:20:00	BASE	1.40	242	2.78	253	-8.9	83	-11.3	3	0	984.5	NA	0.0000		9999	6140	0	0	0
2019/11/21 06:21:00	BASE	1.46	239	2.78	253	-8.9	83	-11.2	3	0	984.5	NA	0.0000		9999	6000	0	0	0
2019/11/21 06:22:00	BASE	1.80	245	2.78	253	-8.9	83	-11.2	3	0	984.5	NA	0.0000		9999	5910	0	0	0
2019/11/21 06:23:00	BASE	1.92	244	2.78	253	-8.8	83	-11.2	3	0	984.5	NA	0.0000		9999	6200	0	0	0
2019/11/21 06:24:00	BASE	1.45	233	2.78	253	-8.8	83	-11.2	3	0	984.5	NA	0.0000		9999	5610	0	0	0
2019/11/21 06:25:00	BASE	1.40	228	2.57	233	-8.8	83	-11.2	3	0	984.5	NA	0.0000		9999	5510	0	0	0
2019/11/21 06:26:00	BASE	1.59	234	2.57	233	-8.7	82	-11.2	3	0	984.5	NA	0.0000		9999	5680	0	0	0
2019/11/21 06:27:00	BASE	1.40	238	2.52	234	-8.7	82	-11.2	3	0	984.5	NA	0.0000		9999	5480	6100	0	0
2019/11/21 06:28:00	BASE	1.18	232	2.52	234	-8.7	82	-11.2	3	0	984.5	NA	0.0000		9999	6100	0	0	0
2019/11/21 06:29:00	BASE	0.85	233	2.52	234	-8.7	82	-11.2	3	0	984.5	NA	0.0000		9999	5870	0	0	0
2019/11/21 06:30:00	BASE	0.95	230	2.52	234	-8.7	82	-11.2	3	0	984.5	NA	0.0000		9999	6300	0	0	0
2019/11/21 06:31:00	BASE	1.16	225	2.42	242	-8.7	82	-11.2	3	0	984.6	NA	0.0000		9999	5580	0	0	0
2019/11/21 06:32:00	BASE	1.01	224	2.42	242	-8.7	82	-11.2	3	0	984.6	NA	0.0000		9999	5510	0	0	0
2019/11/21 06:33:00	BASE	0.53	226	2.31	244	-8.7	82	-11.2	4	0	984.6	NA	0.0000		9999	6040	0	0	0
2019/11/21 06:34:00	BASE	0.62	235	2.31	244	-8.7	82	-11.2	4	0	984.6	NA	0.0000		9999	5910	0	0	0
2019/11/21 06:35:01	BASE	0.67	230	2.31	244	-8.6	82	-11.2	4	0	984.6	NA	0.0000		9999	5510	0	0	0
2019/11/21 06:36:01	BASE	0.16	225	2.31	244	-8.6	82	-11.1	4	0	984.6	NA	0.0000		9999	5220	0	0	0
2019/11/21 06:37:01	BASE	0.56	228	2.06	229	-8.6	82	-11.1	4	0	984.6	NA	0.0000		9999	5970	0	0	0
2019/11/21 06:38:01	BASE	1.23	235	2.31	256	-8.6	82	-11.1	4	0	984.6	NA	0.0000		9999	5770	0	0	0
2019/11/21 06:39:01	BASE	1.25	233	2.31	256	-8.6	82	-11.1	4	0	984.6	NA	0.0000		9999	5710	0	0	0
2019/11/21 06:40:01	BASE	0.62	227	2.31	256	-8.6	82	-11.1	4	0	984.6	NA	0.0000		9999	5380	0	0	0
2019/11/21 06:41:01	BASE	0.04	221	2.31	256	-8.6	82	-11.1	5	0	984.7	NA	0.0000		9999	5610	0	0	0
2019/11/21 06:42:01	BASE	0.13	221	2.31	256	-8.6	82	-11.1	5	0	984.7	NA	0.0000		9999	5150	0	0	0
2019/11/21 06:43:01	BASE	0.13	238	2.31	256	-8.6	82	-11.1	5	0	984.7	NA	0.0000		9999	5150	5810	0	0
2019/11/21 06:44:01	BASE	0.14	242	2.31	256	-8.6	82	-11.1	5	0	984.7	NA	0.0000		9999	5810	0	0	0
2019/11/21 06:45:01	BASE	0.14	234	2.31	256	-8.6	82	-11.1	5	0	984.7	NA	0.0000		9999	5380	0	0	0
2019/11/21 06:46:01	BASE	0.13	256	2.31	256	-8.6	82	-11.1	5	0	984.7	NA	0.0000		9999	5090	0	0	0
2019/11/21 06:47:01	BASE	0.38	270	2.31	256	-8.6	82	-11.1	6	0	984.8	NA	0.0000		9999	5050	0	0	0
2019/11/21 06:48:01	BASE	0.85	265	2.06	236	-8.6	82	-11.1	6	0	984.8	NA	0.0000		9999	5020	5770	0	0
2019/11/21 06:49:01	BASE	1.22	254	1.65	254	-8.6	82	-11.1	6	0	984.8	NA	0.0000		9999	5610	0	0	0
2019/11/21 06:50:01	BASE	0.72	249	1.65	254	-8.6	82	-11.1	6	0	984.8	NA	0.0000		9999	5680	0	0	0
2019/11/21 06:51:01	BASE	0.24	260	1.65	254	-8.5	82	-11.1	6	0	984.8	NA	0.0000		9999	5120	0	0	0
2019/11/21 06:52:01	BASE	0.46	272	1.65	254	-8.5	82	-11.0	7	0	984.8	NA	0.0000		9999	5120	0	0	0
2019/11/21 06:53:01	BASE	0.64	275	1.65	254	-8.5	82	-11.0	7	0	984.8	NA	0.0000		9999	5050	5770	0	0
2019/11/21 06:54:01	BASE	0.33	278	1.65	254	-8.5	82	-11.0	7	0	984.8	NA	0.0000		9999	4990	5510	0	0
2019/11/21 06:55:01	BASE	0.09	274	1.65	254	-8.5	82	-11.0	8	0	984.8	NA	0.0000		9999	4950	5810	0	0
2019/11/21 06:56:01	BASE	0.19	265	1.65	254	-8.5	83	-10.9	8	0	984.8	NA	0.0000		9999	4990	5840	0	0
2019/11/21 06:57:01	BASE	0.26	268	1.65	259	-8.5	83	-10.9	8	0	984.8	NA	0.0000		9999	4990	0	0	0
2019/11/21 06:58:01	BASE	0.87	265	1.65	259	-8.5	83	-10.9	8	0	984.8	NA	0.0000		9999	4950	0	0	0
2019/11/21 06:59:01	BASE	0.86	277	1.65	259	-8.5	83	-10.9	8	0	984.8	NA	0.0000		9999	4890	5710	0	0
2019/11/21 07:00:01	BASE	0.21	286	1.65	259	-8.5	83	-10.9	9	0	984.8	NA	0.0000		9999	4920	5680	0	0
2019/11/21 07:01:01	BASE	0.19	284	1.65	259	-8.5	83	-10.8	9	0	984.8	NA	0.0000		9999	4860	5580	0	0
2019/11/21 07:02:01	BASE	0.46	277	1.65	259	-8.5	83	-10.8	9	0	984.9	NA	0.0000		9999	4860	0	0	0
2019/11/21 07:03:01	BASE	0.61	267	1.65	259	-8.4	83	-10.8	9	0	984.9	NA	0.0000		9999	5020	0	0	0
2019/11/21 07:04:01	BASE	0.68	269	1.65	259	-8.4	83	-10.8	10	0	984.9	NA	0.0000		9999	4720	5450	0	0
2019/11/21 07:05:01	BASE	0.39	279	1.65	259	-8.4	83	-10.8	11	0	984.9	NA	0.0000		9999	4630	0	0	0
2019/11/21 07:06:01	BASE	0.61	281	1.80	247	-8.4	83	-10.8	11	0	984.9	NA	0.0000		9999	4720	0	0	0
2019/11/21 07:07:01	BASE	0.87	277	1.80	247	-8.4	83	-10.8	12	0	984.9	NA	0.0000		9999	4720	0	0	0
2019/11/21 07:08:01	BASE	0.40	284	1.80	247	-8.4	83	-10.8	13	0	984.9	NA	0.0000		9999	4590	0	0	0
2019/11/21 07:09:01	BASE	0.23	295	1.80	247	-8.4	83	-10.8	14	0	984.9	NA	0.0000		9999	4490	0	0	0
2019/11/21 07:10:01	BASE	0.20	309	1.80	247	-8.4	83	-10.8	14	0	984.9	NA	0.0000		9999	4790	0	0	0
2019/11/21 07:11:01	BASE	0.49	329	1.80	247	-8.4	83	-10.8	14	0	984.9	NA	0.0000		9999	4760	5220	0	0
2019/11/21 07:12:01	BASE	0.92	336	1.80	247	-8.4	83	-10.8	14	0	984.9	NA	0.0000		9999	4590	0	0	0
2019/11/21 07:13:01	BASE	1.27	324	1.80	247	-8.4	83	-10.8	14	0	984.9	NA	0.0000		9999	4950	0	0	0
2019/11/21 07:14:01	BASE	1.24	315	1.80	247	-8.4	83	-10.8	13	0	984.9	NA	0.0000		9999	4460	0	0	0
2019/11/21 07:15:01	BASE	1.25	318	1.80	247	-8.5	83	-10.8	13	0	984.9	NA	0.0000		9999	4630	0	0	0
2019/11/21 07:16:01	BASE	1.31	329	1.75	328	-8.5	83	-10.9	13	0	984.9	NA	0.0000		9999	4530	5250	0	0
2019/11/21 07:17:01	BASE	1.14	336	1.75	328	-8.5	83	-10.9	13	0	984.9	NA	0.0000		9999	4590	0	0	0
2019/11/21 07:18:01	BASE	0.85	328	1.75	328	-8.5	83	-10.9	14	0	985.0	NA	0.0000		9999	4560	0	0	0
2019/11/21 07:19:01	BASE	0.45	323	1.75	328	-8.5	83	-10.9	14	0	985.1	NA	0.0000		9999	4490	0	0	0
2019/11/21 07:20:01	BASE	0.18	334	1.75	328	-8.5	83	-10.9	13	0	985.1	NA	0.0000		9999	4560	0	0	0
2019/11/21 07:21:01	BASE	0.14	336	1.75	328	-8.5	83	-10.9	13	0	985.1	NA	0.0000		9999	4660	0	0	0
2019/11/21 07:22:01	BASE	0.50	326	1.75	328	-8.5	83	-10.9	14	0	985.0	NA	0.0000		9999	4400	0	0	0
2019/11/21 07:23:01	BASE	0.64	328	1.75	328	-8.5	83	-10.9	14	0	985.0	NA	0.0000		9999	4300	4790	0	0
2019/11/21 07:24:01	BASE	0.28	345	1.75	328	-8.5	83	-10.9	14	0	985.1	NA	0.0000		9999	4300	0	0	0
2019/11/21 07:25:01	BASE	0.00	355	1.65	329	-8.5	82	-11.0	14	0	985.1	NA	0.0000		9999	4460	0	0	0
2019/11/21 07:26:01	BASE	0.00	345	1.65	329	-8.5	82	-11.0	14	0	985.1	NA	0.0000		9999	4460	0	0	0
2019/11/21 07:27:01	BASE	0.05	337	1.39	331	-8.5	82	-11.0	15	0	985.1	NA	0.0000		9999	4460	0	0	0
2019/11/21 07:28:01	BASE	0.19	345	1.39	331	-8.5	82	-11.0	15	0	985.1	NA	0.0000		9999	4490	0	0	0
2019/11/21 07:29:01	BASE	0.53	351	1.39	331	-8.5	82	-11.0	16	0	985.1	NA	0.0000		9999	4490	0	0	0
2019/11/21 07:30:01	BASE	1.19	350	1.95	1	-8.4	82	-11.0	17	0	985.0	NA	0.0000		9999	4330	0	0	0
2019/11/21 07:31:01	BASE	1.79	352	2.26	348	-8.4	82	-10.9	17	0	984.9	NA	0.0000		9999	4130	0	0	0
2019/11/21 07:32:01	BASE	1.73	351	2.26	345	-8.4	82	-10.9	17	0	984.9	NA	0.0000		9999	4070	5350	0	0
2019/11/21 07:33:01	BASE	0.78	360	2.26	345	-8.4	82	-10.9	17	0	985.0	NA	0.0000		9999	4100	4950	0	0
2019/11/21 07:34:01	BASE	0.04	2	2.26	345	-8.3	82	-10.8	16	0	985.1	NA	0.0000		9999	4330	0	0	0
2019/11/21 07:35:01	BASE	0.00	357	2.26	345	-8.3	82	-10.8	16	0	985.1	NA	0.0000		9999	4330	0	0	0
2019/11/21 07:36:01	BASE	0.44	7	2.26	345	-8.3	82	-10.8	16	0	985.1	NA	0.0000		9999	4130	0	0	0
2019/11/21 07:37:01	BASE	0.44	11	2.26	345	-8.3	82	-10.8	16	0	985.1	NA	0.0000		9999	4170	0	0	0
2019/11/21 07:38:01	BASE	0.00	16	2.26	345	-8.3	82	-10.8	16	0	985.1	NA	0.0000		9999	4070	0	0	0
2019/11/21 07:39:01	BASE	0.18	22	2.26	345	-8.3	82	-10.8	16	0	985.1	NA	0.0000		9999	4040	0	0	0
2019/11/21 07:40:01	BASE	0.80	23	2.26	345	-8.3	82	-10.8	16	0	985.1	NA	0.0000		9999	4070	0	0	0
2019/11/21 07:41:01	BASE	1.24	4	2.26	345	-8.3	82	-10.8	17	0	985.1	NA	0.0000		9999	4000	0	0	0
2019/11/21 07:42:01	BASE	1.18	349	1.70	350	-8.3	82	-10.8	18	0	985.1	NA	0.0000		9999	3940	0	0	0
2019/11/21 07:43:01	BASE	0.95	346	1.70	350	-8.3	82	-10.8	19	0	985.1	NA	0.0000		9999	4070	0	0	0
2019/11/21 07:44:01	BASE	1.02	345	1.70	350	-8.3	82	-10.8	20	0	985.2	NA	0.0000		9999	4040	0	0	0
2019/11/21 07:45:01	BASE	1.27	352	1.70	350	-8.3	82	-10.8	22	0	985.2	NA	0.0000		9999	4100	0	0	0
2019/11/21 07:46:01	BASE	1.33	358	1.70	347	-8.2	82	-10.8	22	0	985.2	NA	0.0000		9999	3970	4920	0	0
2019/11/21 07:47:01	BASE	1.24	350	1.70	347	-8.2	82	-10.8	23	0	985.2	NA	0.0000		9999	4070	0	0	0
2019/11/21 07:48:01	BASE	1.19	335	1.70	347	-8.2	82	-10.8	23	0	985.2	NA	0.0000		9999	4000	0	0	0
2019/11/21 07:49:01	BASE	1.49	324	1.95	314	-8.2	82	-10.8	23	0	985.2	NA	0.0000		9999	4000	0	0	0
2019/11/21 07:50:01	BASE	1.18	326	1.95	314	-8.2	82	-10.8	23	0	985.2	NA	0.0000		9999	4040	0	0	0
2019/11/21 07:51:01	BASE	1.12	337	1.95	346	-8.2	82	-10.8	24	0	985.2	NA	0.0000		9999	4000	0	0	0
2019/11/21 07:52:01	BASE	1.85	344	2.31	348	-8.2	82	-10.8	24	0	985.2	NA	0.0000		9999	3870	0	0	0
2019/11/21 07:53:01	BASE	2.19	343	2.52	329	-8.2	81	-10.9	25	0	985.2	NA	0.0000		9999	3710	5180	0	0
2019/11/21 07:54:01	BASE	2.21	332	2.52	329	-8.2	81	-10.9	25	0	985.2	NA	0.0000		9999	3840	0	0	0
2019/11/21 07:55:01	BASE	2.18	328	2.52	329	-8.2	81	-10.9	25	0	985.2	NA	0.0000		9999	3900	0	0	0
2019/11/21 07:56:01	BASE	2.05	333	2.52	329	-8.2	81	-10.9	26	0	985.2	NA	0.0000		9999	3740	0	0	0
2019/11/21 07:57:01	BASE	2.08	333	2.68	331	-8.2	81	-10.9	26	0	985.2	NA	0.0000		9999	3770	0	0	0
2019/11/21 07:58:01	BASE	2.23	332	2.68	331	-8.2	81	-10.9	27	0	985.2	NA	0.0000		9999	3770	0	0	0
2019/11/21 07:59:01	BASE	2.09	335	2.68	331	-8.2	81	-10.9	28	0	985.2	NA	0.0000		9999	3640	0	0	0
2019/11/21 08:00:01	BASE	2.12	338	2.68	331	-8.2	81	-10.9	29	0	985.2	NA	0.0000		9999	3640	0	0	0
2019/11/21 08:01:01	BASE	2.26	338	2.68	331	-8.2	81	-10.9	30	0	985.2	NA	0.0000		9999	3540	4890	0	0
2019/11/21 08:02:01	BASE	2.04	339	2.68	331	-8.2	81	-10.9	31	0	985.2	NA	0.0000		9999	3580	4860	0	0
2019/11/21 08:03:01	BASE	1.81	336	2.68	331	-8.2	81	-10.9	32	0	985.2	NA	0.0000		9999	3710	0	0	0
2019/11/21 08:04:01	BASE	1.63	336	2.68	331	-8.2	81	-10.9	33	0	985.2	NA	0.0000		9999	3610	5380	0	0
2019/11/21 08:05:01	BASE	1.53	348	2.68	331	-8.2	81	-10.9	34	0	985.2	NA	0.0000		9999	3640	0	0	0
2019/11/21 08:06:01	BASE	1.62	352	2.68	331	-8.2	81	-10.9	35	0	985.2	NA	0.0000		9999	3510	0	0	0
2019/11/21 08:07:01	BASE	1.59	349	2.62	336	-8.2	81	-10.8	36	0	985.2	NA	0.0000		9999	3410	5410	0	0
2019/11/21 08:08:01	BASE	1.70	341	2.62	336	-8.2	81	-10.8	37	0	985.3	NA	0.0000		9999	3540	0	0	0
2019/11/21 08:09:01	BASE	1.66	340	2.62	336	-8.1	81	-10.8	36	0	985.3	NA	0.0000		9999	3510	0	0	0
2019/11/21 08:10:01	BASE	1.23	352	2.62	336	-8.1	81	-10.8	36	0	985.3	NA	0.0000		9999	3580	0	0	0
2019/11/21 08:11:01	BASE	0.57	351	2.26	325	-8.1	81	-10.8	37	0	985.3	NA	0.0000		9999	3350	0	0	0
2019/11/21 08:12:01	BASE	0.14	349	2.26	325	-8.1	81	-10.8	38	0	985.3	NA	0.0000		9999	3410	0	0	0
2019/11/21 08:13:01	BASE	0.68	356	2.06	329	-8.1	81	-10.8	39	0	985.3	NA	0.0000		9999	3610	0	0	0
2019/11/21 08:14:01	BASE	1.56	359	2.31	348	-8.1	81	-10.8	40	0	985.3	NA	0.0000		9999	3350	0	0	0
2019/11/21 08:15:01	BASE	2.02	350	2.47	343	-8.1	81	-10.9	42	0	985.3	NA	0.0000		9999	3310	0	0	0
2019/11/21 08:16:01	BASE	2.18	345	2.47	343	-8.1	81	-10.9	43	0	985.3	NA	0.0000		9999	3480	0	0	0
2019/11/21 08:17:01	BASE	2.10	346	2.47	343	-8.1	80	-10.9	44	0	985.2	NA	0.0000		9999	3450	0	0	0
2019/11/21 08:18:01	BASE	2.07	348	2.47	343	-8.1	80	-10.9	45	0	985.2	NA	0.0000		9999	3350	0	0	0
2019/11/21 08:19:01	BASE	2.08	353	2.47	343	-8.1	80	-10.9	46	0	985.2	NA	0.0000		9999	3250	0	0	0
2019/11/21 08:20:01	BASE	2.07	356	2.47	343	-8.1	80	-10.9	47	0	985.2	NA	0.0000		9999	3180	0	0	0
2019/11/21 08:21:01	BASE	1.93	352	2.47	343	-8.1	81	-10.8	47	0	985.2	NA	0.0000		9999	3250	6270	0	0
2019/11/21 08:22:01	BASE	1.56	353	2.47	343	-8.1	81	-10.8	48	0	985.3	NA	0.0000		9999	3250	0	0	0
2019/11/21 08:23:01	BASE	1.29	2	2.47	343	-8.1	81	-10.8	48	0	985.3	NA	0.0000		9999	3410	0	0	0
2019/11/21 08:24:01	BASE	1.34	2	2.47	343	-8.1	81	-10.8	48	0	985.3	NA	0.0000		9999	3350	0	0	0
2019/11/21 08:25:01	BASE	1.57	358	2.42	352	-8.1	80	-10.9	49	0	985.3	NA	0.0000		9999	3250	0	0	0
2019/11/21 08:26:01	BASE	1.67	359	2.42	352	-8.1	80	-10.9	49	0	985.4	NA	0.0000		9999	3180	0	0	0
2019/11/21 08:27:01	BASE	1.57	357	2.42	352	-8.0	80	-10.9	49	0	985.4	NA	0.0000		9999	3080	0	0	0
2019/11/21 08:28:01	BASE	1.38	354	2.42	352	-8.0	80	-10.9	50	0	985.4	NA	0.0000		9999	3120	0	0	0
2019/11/21 08:29:01	BASE	1.57	353	2.42	352	-8.0	80	-10.8	51	0	985.4	NA	0.0000		9999	3080	0	0	0
2019/11/21 08:30:01	BASE	1.91	341	2.26	337	-8.0	80	-10.8	53	0	985.4	NA	0.0000		9999	3050	0	0	0
2019/11/21 08:31:01	BASE	1.53	326	2.26	337	-8.0	80	-10.8	55	0	985.4	NA	0.0000		9999	2990	0	0	0
2019/11/21 08:32:01	BASE	0.69	326	2.26	337	-8.0	80	-10.9	57	0	985.4	NA	0.0000		9999	3150	0	0	0
2019/11/21 08:33:01	BASE	0.75	326	2.26	337	-8.0	79	-10.9	59	0	985.3	NA	0.0000		9999	3080	6400	0	0
2019/11/21 08:34:01	BASE	1.66	338	2.47	2	-8.0	79	-10.9	61	0	985.3	NA	0.0000		9999	3120	0	0	0
2019/11/21 08:35:01	BASE	2.17	354	2.73	350	-8.0	79	-11.0	62	0	985.3	NA	0.0000		9999	2990	6270	0	0
2019/11/21 08:36:01	BASE	2.59	345	3.29	332	-7.9	79	-10.9	62	0	985.3	NA	0.0000		9999	2920	6230	0	0
2019/11/21 08:37:01	BASE	2.88	337	3.40	327	-7.9	79	-10.9	63	0	985.3	NA	0.0000		9999	2920	3840	6070	0
2019/11/21 08:38:01	BASE	2.50	340	3.40	327	-7.9	79	-10.9	63	0	985.3	NA	0.0000		9999	2920	3810	6230	0
2019/11/21 08:39:01	BASE	2.40	343	3.40	327	-7.9	79	-10.9	63	0	985.4	NA	0.0000		9999	2950	5870	0	0
2019/11/21 08:40:01	BASE	2.55	346	3.40	327	-7.9	79	-10.9	64	0	985.4	NA	0.0000		9999	2950	4070	0	0
2019/11/21 08:41:01	BASE	2.05	345	3.40	327	-7.9	79	-10.9	66	0	985.3	NA	0.0000		9999	2850	3810	0	0
2019/11/21 08:42:01	BASE	2.06	327	3.40	327	-7.9	79	-10.9	67	0	985.3	NA	0.0000		9999	2760	6040	0	0
2019/11/21 08:43:01	BASE	2.11	298	3.40	327	-7.9	79	-10.9	68	0	985.3	NA	0.0000		9999	2760	5870	0	0
2019/11/21 08:44:01	BASE	1.47	289	3.40	327	-7.9	78	-11.0	69	0	985.3	NA	0.0000		9999	2760	5910	0	0
2019/11/21 08:45:01	BASE	0.97	289	3.40	327	-7.9	78	-11.0	70	0	985.4	NA	0.0000		9999	2720	5740	0	0
2019/11/21 08:46:01	BASE	0.72	292	3.40	327	-7.9	78	-11.0	70	0	985.4	NA	0.0000		9999	2760	6100	0	0
2019/11/21 08:47:01	BASE	0.86	294	3.34	297	-7.9	78	-11.0	70	0	985.4	NA	0.0000		9999	2790	3580	6100	0
2019/11/21 08:48:01	BASE	1.20	303	3.34	297	-7.9	78	-11.0	69	0	985.4	NA	0.0000		9999	2850	6000	0	0
2019/11/21 08:49:01	BASE	1.47	318	3.34	297	-7.8	78	-11.0	70	0	985.4	NA	0.0000		9999	2790	0	0	0
2019/11/21 08:50:01	BASE	1.82	322	3.34	297	-7.8	78	-11.0	72	0	985.4	NA	0.0000		9999	2850	0	0	0
2019/11/21 08:51:01	BASE	2.24	319	3.34	297	-7.8	78	-10.9	72	0	985.4	NA	0.0000		9999	2890	0	0	0
2019/11/21 08:52:01	BASE	2.05	312	2.62	290	-7.8	79	-10.9	73	0	985.4	NA	0.0000		9999	2820	3580	0	0
2019/11/21 08:53:01	BASE	2.42	312	3.45	306	-7.8	79	-10.8	74	0	985.4	NA	0.0000		9999	2820	3670	0	0
2019/11/21 08:54:01	BASE	2.87	314	3.45	306	-7.8	79	-10.8	76	0	985.4	NA	0.0000		9999	2760	0	0	0
2019/11/21 08:55:01	BASE	2.74	320	3.45	321	-7.8	79	-10.8	78	0	985.4	NA	0.0000		9999	2720	3970	6170	0
2019/11/21 08:56:01	BASE	2.84	327	3.45	321	-7.8	79	-10.8	79	0	985.4	NA	0.0000		9999	2760	6100	0	0
2019/11/21 08:57:01	BASE	2.92	321	3.45	321	-7.8	79	-10.8	79	0	985.5	NA	0.0000		9999	2690	3580	6000	0
2019/11/21 08:58:01	BASE	2.78	315	3.45	321	-7.8	79	-10.8	76	0	985.6	NA	0.0000		9999	2760	6040	0	0
2019/11/21 08:59:01	BASE	2.61	313	3.45	321	-7.8	79	-10.8	75	0	985.6	NA	0.0000		9999	2850	0	0	0
2019/11/21 09:00:01	BASE	2.93	309	3.96	307	-7.8	79	-10.8	77	0	985.6	NA	0.0000		9999	2850	0	0	0
2019/11/21 09:01:01	BASE	3.07	315	3.96	307	-7.7	79	-10.8	79	0	985.6	NA	0.0000		9999	2920	0	0	0
2019/11/21 09:02:01	BASE	3.02	319	3.96	307	-7.7	79	-10.7	81	0	985.6	NA	0.0000		9999	2790	0	0	0
2019/11/21 09:03:01	BASE	3.10	316	3.96	307	-7.7	79	-10.7	82	0	985.6	NA	0.0000		9999	2820	0	0	0
2019/11/21 09:04:01	BASE	2.75	316	3.96	307	-7.7	79	-10.7	84	0	985.6	NA	0.0000		9999	2820	3510	0	0
2019/11/21 09:05:01	BASE	2.96	316	4.12	307	-7.7	79	-10.8	87	0	985.6	NA	0.0000		9999	2790	3510	0	0
2019/11/21 09:06:01	BASE	3.46	318	4.12	307	-7.7	78	-10.8	89	0	985.6	NA	0.0000		9999	2720	0	0	0
2019/11/21 09:07:01	BASE	3.26	323	4.12	307	-7.7	78	-10.8	89	0	985.6	NA	0.0000		9999	2690	3480	21260	0
2019/11/21 09:08:01	BASE	2.88	323	4.12	307	-7.7	78	-10.9	89	0	985.7	NA	0.0000		9999	2660	3480	0	0
2019/11/21 09:09:01	BASE	2.24	329	4.12	307	-7.7	78	-10.9	90	0	985.7	NA	0.0000		9999	2720	3450	0	0
2019/11/21 09:10:01	BASE	2.05	338	4.12	307	-7.7	77	-11.0	92	0	985.7	NA	0.0000		9999	2790	3410	0	0
2019/11/21 09:11:01	BASE	2.31	330	4.12	307	-7.7	77	-11.0	94	0	985.7	NA	0.0000		9999	2760	0	0	0
2019/11/21 09:12:01	BASE	2.21	331	4.12	307	-7.7	77	-11.1	98	0	985.6	NA	0.0000		9999	2820	3450	0	0
2019/11/21 09:13:01	BASE	2.10	340	4.12	307	-7.7	76	-11.1	101	0	985.7	NA	0.0000		9999	2790	3450	0	0
2019/11/21 09:14:01	BASE	1.85	323	4.12	307	-7.7	76	-11.1	100	0	985.7	NA	0.0000		9999	2820	3410	6430	0
2019/11/21 09:15:01	BASE	1.86	314	3.96	319	-7.7	76	-11.1	97	0	985.7	NA	0.0000		9999	2850	6400	0	0
2019/11/21 09:16:01	BASE	2.11	325	3.81	305	-7.7	77	-11.1	97	0	985.7	NA	0.0000		9999	2850	0	0	0
2019/11/21 09:17:01	BASE	2.41	327	3.81	305	-7.7	77	-11.1	98	0	985.7	NA	0.0000		9999	2820	0	0	0
2019/11/21 09:18:01	BASE	2.43	329	3.55	343	-7.7	77	-11.0	100	0	985.7	NA	0.0000		9999	2690	0	0	0
2019/11/21 09:19:01	BASE	2.24	328	3.55	343	-7.7	77	-11.0	100	0	985.7	NA	0.0000		9999	2620	0	0	0
2019/11/21 09:20:01	BASE	2.10	314	3.55	343	-7.7	77	-11.0	98	0	985.8	NA	0.0000		9999	2790	3450	0	0
2019/11/21 09:21:01	BASE	1.72	305	3.55	343	-7.7	77	-10.9	96	0	985.8	NA	0.0000		9999	2890	0	0	0
2019/11/21 09:22:01	BASE	1.76	314	3.19	335	-7.7	78	-10.9	95	0	985.8	NA	0.0000		9999	2890	0	0	0
2019/11/21 09:23:01	BASE	1.92	326	3.19	335	-7.7	78	-10.9	97	0	985.8	NA	0.0000		9999	2820	0	0	0
2019/11/21 09:24:01	BASE	1.73	333	3.19	335	-7.7	78	-10.8	98	0	985.8	NA	0.0000		9999	2720	0	0	0
2019/11/21 09:25:01	BASE	1.79	338	3.04	327	-7.7	78	-10.8	98	0	985.8	NA	0.0000		9999	2620	0	0	0
2019/11/21 09:26:01	BASE	1.90	339	3.04	327	-7.6	79	-10.7	96	0	985.9	NA	0.0000		9999	2720	0	0	0
2019/11/21 09:27:01	BASE	2.06	341	2.78	350	-7.6	79	-10.7	96	0	985.9	NA	0.0000		9999	2850	0	0	0
2019/11/21 09:28:01	BASE	2.30	341	2.78	350	-7.6	79	-10.6	99	0	985.9	NA	0.0000		9999	2820	0	0	0
2019/11/21 09:29:01	BASE	2.38	339	2.78	350	-7.6	79	-10.6	103	0	985.9	NA	0.0000		9999	2790	0	0	0
2019/11/21 09:30:01	BASE	2.53	337	2.88	338	-7.6	79	-10.5	103	0	985.9	NA	0.0000		9999	2760	0	0	0
2019/11/21 09:31:01	BASE	2.28	337	2.88	338	-7.6	80	-10.5	101	0	985.9	NA	0.0000		9999	2690	0	0	0
2019/11/21 09:32:01	BASE	2.01	334	2.88	338	-7.6	80	-10.5	99	0	985.9	NA	0.0000		9999	2660	0	0	0
2019/11/21 09:33:01	BASE	1.88	332	2.88	338	-7.6	80	-10.5	98	0	985.9	NA	0.0000		9999	2660	0	0	0
2019/11/21 09:34:01	BASE	1.81	341	2.88	338	-7.6	80	-10.5	99	0	985.9	NA	0.0000		9999	2590	3310	0	0
2019/11/21 09:35:01	BASE	2.09	348	2.88	338	-7.6	80	-10.4	101	0	985.8	NA	0.0000		9999	2560	0	0	0
2019/11/21 09:36:01	BASE	2.41	350	2.88	338	-7.6	80	-10.4	102	0	985.8	NA	0.0000		9999	2690	0	0	0
2019/11/21 09:37:01	BASE	2.40	343	2.88	338	-7.6	80	-10.4	101	0	985.9	NA	0.0000		9999	2690	0	0	0
2019/11/21 09:38:01	BASE	2.11	336	2.88	338	-7.6	80	-10.4	104	0	985.9	NA	0.0000		9999	2660	0	0	0
2019/11/21 09:39:01	BASE	1.95	341	2.88	338	-7.6	80	-10.4	107	0	985.9	NA	0.0000		9999	2590	0	0	0
2019/11/21 09:40:01	BASE	1.97	349	2.83	332	-7.6	80	-10.4	108	0	985.9	NA	0.0000		9999	2530	0	0	0
2019/11/21 09:41:01	BASE	1.93	349	2.83	332	-7.6	80	-10.4	108	0	985.9	NA	0.0000		9999	2530	3250	0	0
2019/11/21 09:42:01	BASE	2.02	350	2.83	332	-7.6	80	-10.4	108	0	985.9	NA	0.0000		9999	2490	3250	0	0
2019/11/21 09:43:01	BASE	2.26	351	2.83	332	-7.6	80	-10.4	110	0	985.9	NA	0.0000		9999	2490	0	0	0
2019/11/21 09:44:01	BASE	2.26	347	2.83	332	-7.6	80	-10.4	111	0	985.9	NA	0.0000		9999	2460	0	0	0
2019/11/21 09:45:01	BASE	2.39	347	2.93	355	-7.5	80	-10.4	112	0	985.9	NA	0.0000		9999	2430	3280	0	0
2019/11/21 09:46:01	BASE	2.51	348	2.93	355	-7.5	80	-10.4	114	0	986.0	NA	0.0000		9999	2430	3280	0	0
2019/11/21 09:47:01	BASE	2.38	351	2.93	355	-7.5	80	-10.4	116	0	985.9	NA	0.0000		9999	2490	3280	0	0
2019/11/21 09:48:01	BASE	2.25	355	2.93	355	-7.5	80	-10.4	118	0	985.9	NA	0.0000		9999	2400	3870	0	0
2019/11/21 09:49:01	BASE	2.21	352	2.93	355	-7.5	80	-10.3	119	0	986.0	NA	0.0000		9999	2430	3510	0	0
2019/11/21 09:50:01	BASE	2.43	348	2.98	351	-7.5	80	-10.3	119	0	986.0	NA	0.0000		9999	2460	4070	0	0
2019/11/21 09:51:01	BASE	2.82	344	3.34	341	-7.5	80	-10.3	119	0	985.9	NA	0.0000		9999	2530	0	0	0
2019/11/21 09:52:01	BASE	2.63	339	3.34	341	-7.5	80	-10.3	118	0	986.0	NA	0.0000		9999	2590	3310	0	0
2019/11/21 09:53:01	BASE	2.11	346	3.34	341	-7.5	80	-10.3	120	0	985.9	NA	0.0000		9999	2560	0	0	0
2019/11/21 09:54:01	BASE	1.98	355	3.34	341	-7.5	80	-10.4	119	0	986.0	NA	0.0000		9999	2430	0	0	0
2019/11/21 09:55:01	BASE	1.85	352	3.34	341	-7.5	80	-10.4	116	0	986.0	NA	0.0000		9999	2430	0	0	0
2019/11/21 09:56:01	BASE	1.55	336	3.34	341	-7.5	80	-10.4	116	0	986.0	NA	0.0000		9999	2430	0	0	0
2019/11/21 09:57:01	BASE	1.35	331	3.34	341	-7.5	80	-10.4	116	0	986.0	NA	0.0000		9999	2490	0	0	0
2019/11/21 09:58:01	BASE	1.31	334	3.34	341	-7.5	79	-10.4	117	0	986.0	NA	0.0000		9999	2490	0	0	0
2019/11/21 09:59:01	BASE	1.34	336	3.34	341	-7.4	79	-10.4	117	0	986.0	NA	0.0000		9999	2490	0	0	0
2019/11/21 10:00:01	BASE	1.71	345	3.34	341	-7.4	79	-10.4	119	0	986.0	NA	0.0000		9999	2490	0	0	0
2019/11/21 10:01:01	BASE	1.98	348	2.68	332	-7.4	79	-10.4	121	0	986.0	NA	0.0000		9999	2430	0	0	0
2019/11/21 10:02:01	BASE	2.23	344	2.62	335	-7.4	79	-10.4	121	0	986.0	NA	0.0000		9999	2430	0	0	0
2019/11/21 10:03:01	BASE	2.30	341	2.62	335	-7.4	79	-10.4	121	0	986.0	NA	0.0000		9999	2400	0	0	0
2019/11/21 10:04:01	BASE	2.06	342	2.62	335	-7.4	79	-10.4	121	0	986.0	NA	0.0000		9999	2460	0	0	0
2019/11/21 10:05:01	BASE	2.09	332	2.62	335	-7.4	79	-10.4	121	0	986.1	NA	0.0000		9999	2460	0	0	0
2019/11/21 10:06:01	BASE	1.90	322	2.62	335	-7.4	79	-10.4	122	0	986.2	NA	0.0000		9999	2490	3220	0	0
2019/11/21 10:07:01	BASE	1.50	317	2.62	335	-7.4	79	-10.4	122	0	986.2	NA	0.0000		9999	2560	0	0	0
2019/11/21 10:08:01	BASE	1.21	308	2.62	335	-7.4	79	-10.4	122	0	986.2	NA	0.0000		9999	2620	0	0	0
2019/11/21 10:09:01	BASE	0.63	299	2.62	335	-7.4	80	-10.3	123	0	986.2	NA	0.0000		9999	2590	3280	0	0
2019/11/21 10:10:01	BASE	0.09	305	2.62	335	-7.4	80	-10.3	125	0	986.2	NA	0.0000		9999	2530	0	0	0
2019/11/21 10:11:01	BASE	0.15	295	2.62	335	-7.4	80	-10.3	125	0	986.2	NA	0.0000		9999	2490	3220	0	0
2019/11/21 10:12:01	BASE	0.15	272	2.52	342	-7.4	79	-10.4	126	0	986.2	NA	0.0000		9999	2460	3180	0	0
2019/11/21 10:13:01	BASE	0.05	295	2.47	327	-7.4	79	-10.4	128	0	986.2	NA	0.0000		9999	2460	3180	0	0
2019/11/21 10:14:01	BASE	0.33	324	2.47	327	-7.4	79	-10.4	130	0	986.2	NA	0.0000		9999	2530	3180	0	0
2019/11/21 10:15:01	BASE	0.28	327	1.95	317	-7.4	79	-10.4	131	0	986.2	NA	0.0000		9999	2490	0	0	0
2019/11/21 10:16:01	BASE	0.49	342	1.75	5	-7.4	79	-10.4	133	0	986.2	NA	0.0000		9999	2430	0	0	0
2019/11/21 10:17:01	BASE	1.33	5	1.95	11	-7.4	79	-10.4	135	0	986.2	NA	0.0000		9999	2490	0	0	0
2019/11/21 10:18:01	BASE	1.73	15	2.16	13	-7.4	79	-10.4	138	0	986.2	NA	0.0000		9999	2460	3050	0	0
2019/11/21 10:19:01	BASE	2.10	6	2.73	352	-7.4	79	-10.4	141	0	986.1	NA	0.0000		9999	2430	21850	0	0
2019/11/21 10:20:01	BASE	2.37	352	2.73	352	-7.3	79	-10.4	146	0	986.0	NA	0.0000		9999	2530	0	0	0
2019/11/21 10:21:01	BASE	2.54	352	3.24	2	-7.3	79	-10.4	152	0	986.0	NA	0.0000		9999	2530	0	0	0
2019/11/21 10:22:01	BASE	2.59	354	3.24	2	-7.3	78	-10.4	157	0	986.0	NA	0.0000		9999	2490	3870	0	0
2019/11/21 10:23:01	BASE	2.70	344	3.65	330	-7.3	78	-10.4	163	0	986.0	NA	0.0000		9999	2460	0	0	0
2019/11/21 10:24:01	BASE	2.69	340	3.65	330	-7.3	78	-10.5	170	0	986.0	NA	0.0000		9999	2300	3840	0	0
2019/11/21 10:25:01	BASE	2.46	349	3.65	330	-7.3	78	-10.5	173	0	986.0	NA	0.0000		9999	2260	0	0	0
2019/11/21 10:26:01	BASE	2.79	357	3.65	330	-7.3	78	-10.4	173	0	986.0	NA	0.0000		9999	2430	3670	0	0
2019/11/21 10:27:01	BASE	3.00	355	3.65	330	-7.3	78	-10.4	172	0	986.0	NA	0.0000		9999	2400	24410	0	0
2019/11/21 10:28:01	BASE	2.94	339	3.65	330	-7.2	78	-10.4	174	0	986.0	NA	0.0000		9999	2360	0	0	0
2019/11/21 10:29:01	BASE	2.90	327	3.65	330	-7.2	78	-10.4	177	0	986.0	NA	0.0000		9999	2260	0	0	0
2019/11/21 10:30:01	BASE	2.65	327	3.65	330	-7.2	78	-10.3	180	0	986.1	NA	0.0000		9999	2230	0	0	0
2019/11/21 10:31:01	BASE	2.30	340	3.65	330	-7.2	78	-10.3	184	0	986.1	NA	0.0000		9999	2260	0	0	0
2019/11/21 10:32:01	BASE	2.38	342	3.65	330	-7.1	78	-10.3	188	0	986.1	NA	0.0000		9999	2260	3410	0	0
2019/11/21 10:33:01	BASE	2.34	336	3.40	354	-7.2	78	-10.3	194	0	986.2	NA	0.0000		9999	2360	3410	0	0
2019/11/21 10:34:01	BASE	2.06	340	3.40	354	-7.2	78	-10.3	198	0	986.2	NA	0.0000		9999	2300	3450	0	0
2019/11/21 10:35:00	BASE	2.01	340	3.40	354	-7.2	78	-10.4	199	0	986.2	NA	0.0000		9999	2230	3580	0	0
2019/11/21 10:36:01	BASE	2.14	340	3.24	348	-7.3	78	-10.5	200	0	986.2	NA	0.0000		9999	2170	3640	0	0
2019/11/21 10:37:00	BASE	2.03	335	3.24	348	-7.3	78	-10.5	199	0	986.2	NA	0.0000		9999	2200	3610	0	0
2019/11/21 10:38:01	BASE	2.00	329	3.09	328	-7.3	77	-10.5	196	0	986.2	NA	0.0000		9999	2170	3580	0	0
2019/11/21 10:39:00	BASE	2.15	329	3.04	332	-7.2	77	-10.6	191	0	986.2	NA	0.0000		9999	2170	3610	0	0
2019/11/21 10:40:01	BASE	2.01	332	3.04	332	-7.2	77	-10.5	187	0	986.2	NA	0.0000		9999	2200	0	0	0
2019/11/21 10:41:00	BASE	2.25	327	3.04	332	-7.1	77	-10.5	188	0	986.2	NA	0.0000		9999	2200	0	0	0
2019/11/21 10:42:01	BASE	2.57	325	3.14	325	-7.1	77	-10.5	190	0	986.2	NA	0.0000		9999	2200	0	0	0
2019/11/21 10:43:00	BASE	2.51	323	3.14	325	-7.1	76	-10.5	191	0	986.2	NA	0.0000		9999	2230	0	0	0
2019/11/21 10:44:01	BASE	2.25	322	3.14	325	-7.1	76	-10.5	194	0	986.3	NA	0.0000		9999	2300	0	0	0
2019/11/21 10:45:00	BASE	2.21	328	3.14	325	-7.1	76	-10.6	194	0	986.2	NA	0.0000		9999	2200	0	0	0
2019/11/21 10:46:01	BASE	2.26	336	3.14	325	-7.1	76	-10.6	197	0	986.2	NA	0.0000		9999	2170	2790	0	0
2019/11/21 10:47:00	BASE	2.61	339	3.34	334	-7.1	76	-10.6	197	0	986.2	NA	0.0000		9999	2030	2690	0	0
2019/11/21 10:48:01	BASE	3.04	334	3.34	331	-7.1	76	-10.5	197	0	986.2	NA	0.0000		9999	1940	0	0	0
2019/11/21 10:49:00	BASE	2.87	334	3.45	335	-7.1	77	-10.5	197	0	986.3	NA	0.0000		9999	1900	17520	18010	0
2019/11/21 10:50:00	BASE	2.75	338	3.45	335	-7.1	77	-10.5	199	0	986.3	NA	0.0000		9999	2030	0	0	0
2019/11/21 10:51:00	BASE	2.71	335	3.45	335	-7.1	77	-10.4	199	0	986.3	NA	0.0000		9999	2620	0	0	0
2019/11/21 10:52:00	BASE	2.18	339	3.45	335	-7.1	77	-10.5	197	0	986.3	NA	0.0000		9999	2230	0	0	0
2019/11/21 10:53:00	BASE	1.90	348	3.45	335	-7.1	77	-10.5	195	0	986.3	NA	0.0000		9999	2200	0	0	0
2019/11/21 10:54:01	BASE	2.25	346	3.45	335	-7.1	76	-10.6	194	0	986.3	NA	0.0000		9999	2130	0	0	0
2019/11/21 10:55:00	BASE	2.50	343	3.45	335	-7.1	76	-10.6	193	0	986.2	NA	0.0000		9999	2590	0	0	0
2019/11/21 10:56:00	BASE	2.51	347	3.45	335	-7.1	76	-10.6	191	0	986.2	NA	0.0000		9999	2490	3350	0	0
2019/11/21 10:57:00	BASE	2.74	352	3.45	335	-7.1	76	-10.6	202	0	986.2	NA	0.0000		9999	2490	3350	0	0
2019/11/21 10:58:00	BASE	2.87	354	3.45	2	-7.1	76	-10.6	223	0	986.2	NA	0.0000		9999	3480	0	0	0
2019/11/21 10:59:01	BASE	2.97	358	3.86	7	-7.0	76	-10.5	235	0	986.2	NA	0.0000		9999	2660	3280	0	0
2019/11/21 11:00:00	BASE	3.74	4	4.99	352	-7.0	76	-10.5	242	0	986.2	NA	0.0000		9999	2430	3640	0	0
2019/11/21 11:01:00	BASE	3.73	6	4.99	352	-7.0	76	-10.5	241	0	986.2	NA	0.0000		9999	2400	0	0	0
2019/11/21 11:02:01	BASE	3.20	4	4.99	352	-7.0	76	-10.5	247	0	986.2	NA	0.0000		9999	2360	3540	0	0
2019/11/21 11:03:00	BASE	3.13	358	4.99	352	-6.9	76	-10.5	249	0	986.2	NA	0.0000		9999	2430	3510	0	0
2019/11/21 11:04:00	BASE	2.92	349	4.99	352	-6.9	75	-10.5	249	0	986.2	NA	0.0000		9999	2360	3540	0	0
2019/11/21 11:05:00	BASE	2.79	343	4.99	352	-6.9	75	-10.6	252	0	986.2	NA	0.0000		9999	2360	3510	0	0
2019/11/21 11:06:00	BASE	2.77	346	4.99	352	-6.9	75	-10.6	250	0	986.2	NA	0.0000		9999	2400	3610	0	0
2019/11/21 11:07:00	BASE	2.82	349	4.99	352	-6.9	75	-10.6	246	0	986.2	NA	0.0000		9999	3640	0	0	0
2019/11/21 11:08:00	BASE	2.67	354	4.99	352	-6.9	75	-10.6	249	0	986.3	NA	0.0000		9999	2360	3450	0	0
2019/11/21 11:09:00	BASE	2.69	359	4.99	352	-6.9	75	-10.7	254	0	986.3	NA	0.0000		9999	2330	3610	21590	0
2019/11/21 11:10:00	BASE	3.28	357	4.12	347	-6.9	74	-10.6	248	0	986.2	NA	0.0000		9999	2130	3540	0	0
2019/11/21 11:11:00	BASE	3.33	355	4.12	347	-6.9	74	-10.7	249	0	986.3	NA	0.0000		9999	1970	3640	22380	0
2019/11/21 11:12:00	BASE	3.31	353	4.12	347	-6.8	74	-10.7	245	0	986.3	NA	0.0000		9999	1800	3640	0	0
2019/11/21 11:13:00	BASE	3.72	352	4.32	354	-6.8	74	-10.7	239	0	986.3	NA	0.0000		9999	1710	0	0	0
2019/11/21 11:14:00	BASE	3.46	354	4.32	354	-6.8	74	-10.7	251	0	986.3	NA	0.0000		9999	1710	3580	0	0
2019/11/21 11:15:01	BASE	3.02	354	4.32	354	-6.9	74	-10.7	255	0	986.3	NA	0.0000		9999	3580	0	0	0
2019/11/21 11:16:00	BASE	2.48	353	4.32	354	-6.9	74	-10.8	250	0	986.4	NA	0.0000		9999	1770	0	0	0
2019/11/21 11:17:00	BASE	1.95	6	4.32	354	-6.9	74	-10.8	248	0	986.4	NA	0.0000		9999	3580	22870	0	0
2019/11/21 11:18:01	BASE	2.28	6	4.32	354	-6.9	73	-10.9	249	0	986.4	NA	0.0000		9999	3610	0	0	0
2019/11/21 11:19:00	BASE	2.58	356	4.32	354	-6.9	73	-10.9	249	0	986.4	NA	0.0000		9999	3610	0	0	0
2019/11/21 11:20:00	BASE	2.57	354	4.32	354	-6.9	73	-10.9	245	0	986.4	NA	0.0000		9999	2000	3640	0	0
2019/11/21 11:21:00	BASE	2.85	352	4.32	354	-6.9	73	-10.9	238	0	986.4	NA	0.0000		9999	3610	0	0	0
2019/11/21 11:22:01	BASE	3.02	357	4.32	354	-6.9	73	-10.9	230	0	986.4	NA	0.0000		9999	1870	0	0	0
2019/11/21 11:23:00	BASE	2.73	2	3.65	352	-6.9	73	-10.9	229	0	986.4	NA	0.0000		9999	3610	0	0	0
2019/11/21 11:24:01	BASE	2.69	2	3.45	360	-6.8	73	-10.9	230	0	986.4	NA	0.0000		9999	2430	0	0	0
2019/11/21 11:25:00	BASE	3.02	354	3.60	348	-6.8	72	-11.0	235	0	986.4	NA	0.0000		9999	3610	0	0	0
2019/11/21 11:26:01	BASE	3.08	346	3.65	347	-6.8	72	-11.0	243	0	986.4	NA	0.0000		9999	3640	0	0	0
2019/11/21 11:27:00	BASE	2.77	346	3.65	347	-6.8	72	-11.0	245	0	986.5	NA	0.0000		9999	3480	0	0	0
2019/11/21 11:28:00	BASE	2.44	352	3.65	347	-6.8	72	-11.0	246	0	986.5	NA	0.0000		9999	3540	0	0	0
2019/11/21 11:29:00	BASE	2.52	355	3.65	347	-6.8	72	-11.0	253	0	986.5	NA	0.0000		9999	2030	2790	0	0
2019/11/21 11:30:00	BASE	2.75	348	3.65	347	-6.7	72	-11.0	253	0	986.5	NA	0.0000		9999	2820	0	0	0
2019/11/21 11:31:01	BASE	2.69	344	3.65	347	-6.7	72	-11.0	250	0	986.5	NA	0.0000		9999	2660	0	0	0
2019/11/21 11:32:01	BASE	2.39	345	3.65	347	-6.8	72	-11.0	249	0	986.5	NA	0.0000		9999	2720	0	0	0
2019/11/21 11:33:00	BASE	2.51	342	3.65	347	-6.8	72	-11.0	252	0	986.6	NA	0.0000		9999	2360	0	0	0
2019/11/21 11:34:00	BASE	2.44	338	3.65	347	-6.8	72	-11.0	259	0	986.6	NA	0.0000		9999	2330	2950	3740	0
2019/11/21 11:35:00	BASE	2.33	337	3.65	347	-6.8	72	-11.1	263	0	986.6	NA	0.0000		9999	2300	3810	0	0
2019/11/21 11:36:01	BASE	2.75	339	3.55	338	-6.8	72	-11.1	265	0	986.6	NA	0.0000		9999	2300	0	0	0
2019/11/21 11:37:00	BASE	3.01	337	3.55	338	-6.8	71	-11.1	268	0	986.6	NA	0.0000		9999	2300	0	0	0
2019/11/21 11:38:01	BASE	3.05	336	3.55	338	-6.8	71	-11.2	273	0	986.6	NA	0.0000		9999	2130	0	0	0
2019/11/21 11:39:00	BASE	2.54	334	3.55	338	-6.8	71	-11.2	283	0	986.6	NA	0.0000		9999	2030	0	0	0
2019/11/21 11:40:00	BASE	1.90	335	3.55	338	-6.8	71	-11.3	293	0	986.6	NA	0.0000		9999	1870	3670	0	0
2019/11/21 11:41:00	BASE	2.04	335	3.55	338	-6.8	70	-11.3	300	0	986.6	NA	0.0000		9999	1740	3610	0	0
2019/11/21 11:42:01	BASE	2.31	335	3.55	338	-6.8	70	-11.3	299	0	986.6	NA	0.0000		9999	2100	3450	0	0
2019/11/21 11:43:01	BASE	2.30	336	3.55	338	-6.8	70	-11.4	296	0	986.6	NA	0.0000		9999	1940	0	0	0
2019/11/21 11:44:01	BASE	2.20	334	3.55	338	-6.8	70	-11.4	292	0	986.6	NA	0.0000		9999	1900	0	0	0
2019/11/21 11:45:01	BASE	1.85	332	3.55	338	-6.8	69	-11.4	293	0	986.6	NA	0.0000		9999	2430	3580	0	0
2019/11/21 11:46:01	BASE	1.66	333	3.50	335	-6.7	69	-11.4	301	0	986.6	NA	0.0000		9999	2400	3810	0	0
2019/11/21 11:47:00	BASE	1.90	338	3.19	332	-6.7	69	-11.4	311	0	986.6	NA	0.0000		9999	2400	3840	0	0
2019/11/21 11:48:01	BASE	1.79	338	2.93	330	-6.7	69	-11.4	320	0	986.6	NA	0.0000		9999	2430	3970	0	0
2019/11/21 11:49:00	BASE	1.52	335	2.57	336	-6.7	69	-11.4	332	0	986.6	NA	0.0000		9999	1840	0	0	0
2019/11/21 11:50:00	BASE	1.43	330	2.57	336	-6.7	69	-11.4	351	0	986.6	NA	0.0000		9999	1770	0	0	0
2019/11/21 11:51:00	BASE	1.30	321	2.57	336	-6.8	69	-11.5	353	0	986.6	NA	0.0000		9999	3710	0	0	0
2019/11/21 11:52:00	BASE	1.17	317	2.57	336	-6.8	69	-11.6	370	0	986.6	NA	0.0000		9999	1610	3640	0	0
2019/11/21 11:53:00	BASE	1.10	317	2.47	337	-6.7	68	-11.6	386	0	986.6	NA	0.0000		9999	3710	0	0	0
2019/11/21 11:54:01	BASE	1.00	315	2.31	341	-6.7	68	-11.6	483	0	986.6	NA	0.0000		9999	1480	0	0	0
2019/11/21 11:55:00	BASE	0.46	314	2.31	341	-6.7	68	-11.6	479	0	986.6	NA	0.0000		9999	3740	0	0	0
2019/11/21 11:56:00	BASE	0.00	319	2.31	341	-6.6	68	-11.6	445	0	986.6	NA	0.0000		9999	3770	0	0	0
2019/11/21 11:57:00	BASE	0.00	318	1.80	335	-6.5	68	-11.5	460	0	986.6	NA	0.0000		9999	1900	24050	0	0
2019/11/21 11:58:00	BASE	0.23	316	1.59	336	-6.4	67	-11.5	439	0	986.6	NA	0.0000		9999	1710	3870	0	0
2019/11/21 11:59:00	BASE	0.54	315	1.54	321	-6.4	67	-11.5	431	0	986.6	NA	0.0000		9999	3640	0	0	0
2019/11/21 12:00:00	BASE	0.91	313	1.54	321	-6.3	67	-11.5	453	0	986.6	NA	0.0000		9999	3580	22670	0	0
2019/11/21 12:01:00	BASE	1.16	313	1.54	321	-6.3	66	-11.6	452	0	986.6	NA	0.0000		9999	3840	0	0	0
2019/11/21 12:02:00	BASE	0.85	311	1.54	321	-6.3	66	-11.6	461	0	986.6	NA	0.0000		9999	4000	0	0	0
2019/11/21 12:03:00	BASE	0.46	306	1.54	321	-6.3	65	-11.8	535	0	986.6	NA	0.0000		9999	3810	0	0	0
2019/11/21 12:04:00	BASE	0.23	302	1.54	321	-6.3	65	-11.8	582	0	986.6	NA	0.0000		9999	3710	0	0	0
2019/11/21 12:05:00	BASE	0.04	304	1.54	321	-6.3	64	-11.9	663	0	986.6	NA	0.0000		9999	3970	22540	0	0
2019/11/21 12:06:00	BASE	0.00	301	1.54	321	-6.2	64	-11.9	505	0	986.6	NA	0.0000		9999	3870	0	0	0
2019/11/21 12:07:00	BASE	0.00	294	1.54	321	-6.2	64	-11.9	562	0	986.6	NA	0.0000		9999	3670	0	0	0
2019/11/21 12:08:00	BASE	0.00	287	1.34	312	-6.2	64	-11.9	561	0	986.6	NA	0.0000		9999	3740	0	0	0
2019/11/21 12:09:00	BASE	0.00	285	1.34	312	-6.2	64	-12.0	540	0	986.6	NA	0.0000		9999	3870	0	0	0
2019/11/21 12:10:00	BASE	0.13	287	1.23	298	-6.3	64	-12.0	1015	0	986.6	NA	0.0000		9999	3900	0	0	0
2019/11/21 12:11:00	BASE	0.82	295	1.85	303	-6.3	64	-12.0	632	0	986.6	NA	0.0000		9999	3670	0	0	0
2019/11/21 12:12:00	BASE	1.66	301	2.11	289	-6.2	64	-11.9	604	0	986.6	NA	0.0000		9999	3770	0	0	0
2019/11/21 12:13:00	BASE	1.88	302	2.11	289	-6.1	64	-11.8	549	0	986.7	NA	0.0000		9999	3810	0	0	0
2019/11/21 12:14:00	BASE	1.83	301	2.11	289	-6.1	64	-11.8	514	0	986.7	NA	0.0000		9999	3840	0	0	0
2019/11/21 12:15:00	BASE	1.81	301	2.11	289	-6.0	64	-11.8	506	0	986.7	NA	0.0000		9999	3740	21750	0	0
2019/11/21 12:16:00	BASE	1.76	307	2.11	289	-6.0	64	-11.8	464	0	986.7	NA	0.0000		9999	3840	0	0	0
2019/11/21 12:17:00	BASE	1.83	308	2.37	307	-6.1	63	-11.9	442	0	986.6	NA	0.0000		9999	3870	0	0	0
2019/11/21 12:18:00	BASE	2.04	305	2.42	306	-6.1	63	-12.0	441	0	986.6	NA	0.0000		9999	3770	0	0	0
2019/11/21 12:19:00	BASE	2.07	300	2.42	306	-6.1	64	-11.9	480	0	986.7	NA	0.0000		9999	3710	19590	20830	0
2019/11/21 12:20:00	BASE	2.04	299	2.42	306	-6.1	64	-11.9	634	0	986.7	NA	0.0000		9999	3640	0	0	0
2019/11/21 12:21:00	BASE	2.10	302	2.42	306	-6.1	64	-11.9	459	0	986.7	NA	0.0000		9999	3670	0	0	0
2019/11/21 12:22:00	BASE	2.11	304	2.42	306	-6.1	63	-12.0	451	0	986.7	NA	0.0000		9999	3740	0	0	0
2019/11/21 12:23:00	BASE	2.26	307	2.62	314	-6.1	63	-12.0	493	0	986.7	NA	0.0000		9999	3710	0	0	0
2019/11/21 12:24:00	BASE	2.35	311	2.73	321	-6.0	63	-12.0	535	0	986.7	NA	0.0000		9999	3670	0	0	0
2019/11/21 12:25:00	BASE	2.25	316	2.73	321	-6.1	63	-11.9	606	0	986.7	NA	0.0000		9999	3610	22700	0	0
2019/11/21 12:26:00	BASE	2.20	318	3.04	321	-6.0	64	-11.7	570	0	986.7	NA	0.0000		9999	3710	0	0	0
2019/11/21 12:27:00	BASE	2.42	316	3.04	321	-6.0	65	-11.6	545	0	986.7	NA	0.0000		9999	3740	0	0	0
2019/11/21 12:28:01	BASE	2.81	316	3.34	318	-6.0	65	-11.5	630	0	986.7	NA	0.0000		9999	3770	0	0	0
2019/11/21 12:29:00	BASE	2.62	325	3.34	318	-6.1	66	-11.4	538	0	986.6	NA	0.0000		9999	3740	0	0	0
2019/11/21 12:30:00	BASE	2.33	328	3.34	318	-6.1	66	-11.4	602	0	986.6	NA	0.0000		9999	3640	0	0	0
2019/11/21 12:31:00	BASE	2.26	323	3.34	318	-6.1	66	-11.4	776	0	986.7	NA	0.0000		9999	3710	0	0	0
2019/11/21 12:32:00	BASE	2.13	317	3.34	318	-6.1	66	-11.4	596	0	986.7	NA	0.0000		9999	3670	0	0	0
2019/11/21 12:33:00	BASE	2.31	314	3.34	318	-6.0	66	-11.3	687	0	986.7	NA	0.0000		9999	3770	0	0	0
2019/11/21 12:34:01	BASE	2.42	317	3.34	318	-6.0	66	-11.3	595	0	986.6	NA	0.0000		9999	3670	21620	0	0
2019/11/21 12:35:00	BASE	2.07	325	3.34	318	-6.0	66	-11.3	505	0	986.6	NA	0.0000		9999	3670	0	0	0
2019/11/21 12:36:01	BASE	1.80	336	3.34	318	-6.0	66	-11.3	577	0	986.6	NA	0.0000		9999	3670	0	0	0
2019/11/21 12:37:00	BASE	1.83	335	3.34	318	-6.0	66	-11.3	693	0	986.7	NA	0.0000		9999	3740	0	0	0
2019/11/21 12:38:01	BASE	2.10	335	2.78	324	-6.0	66	-11.3	683	0	986.6	NA	0.0000		9999	2820	0	0	0
2019/11/21 12:39:01	BASE	2.21	345	2.78	324	-6.0	66	-11.4	580	0	986.7	NA	0.0000		9999	2990	3710	0	0
2019/11/21 12:40:00	BASE	2.11	349	2.68	323	-6.0	66	-11.4	570	0	986.7	NA	0.0000		9999	3740	0	0	0
2019/11/21 12:41:01	BASE	2.18	350	2.68	323	-6.0	65	-11.5	549	0	986.7	NA	0.0000		9999	3640	0	0	0
2019/11/21 12:42:00	BASE	2.22	348	2.68	323	-6.0	65	-11.6	505	0	986.7	NA	0.0000		9999	3050	0	0	0
2019/11/21 12:43:00	BASE	2.23	346	2.68	323	-6.1	65	-11.7	491	0	986.7	NA	0.0000		9999	3050	3670	0	0
2019/11/21 12:44:01	BASE	2.15	345	2.62	193	-6.1	65	-11.7	533	0	986.7	NA	0.0000		9999	3710	0	0	0
2019/11/21 12:45:00	BASE	2.02	346	2.62	193	-6.1	65	-11.7	556	0	986.7	NA	0.0000		9999	3450	0	0	0
2019/11/21 12:46:00	BASE	2.10	344	2.62	331	-6.1	65	-11.6	538	0	986.7	NA	0.0000		9999	3580	0	0	0
2019/11/21 12:47:00	BASE	2.19	339	2.62	331	-6.0	65	-11.5	488	0	986.7	NA	0.0000		9999	3710	0	0	0
2019/11/21 12:48:00	BASE	2.31	337	2.68	334	-6.0	65	-11.5	489	0	986.6	NA	0.0000		9999	3710	0	0	0
2019/11/21 12:49:00	BASE	2.50	334	2.88	332	-5.9	65	-11.4	542	0	986.6	NA	0.0000		9999	3710	0	0	0
2019/11/21 12:50:00	BASE	2.58	333	2.88	335	-5.9	65	-11.4	626	0	986.6	NA	0.0000		9999	3740	0	0	0
2019/11/21 12:51:00	BASE	2.66	331	2.88	325	-5.8	65	-11.4	702	0	986.6	NA	0.0000		9999	3710	0	0	0
2019/11/21 12:52:00	BASE	2.94	327	3.29	329	-5.8	64	-11.4	664	0	986.6	NA	0.0000		9999	2990	3710	0	0
2019/11/21 12:53:00	BASE	2.97	328	3.29	329	-5.7	64	-11.4	616	0	986.6	NA	0.0000		9999	3640	0	0	0
2019/11/21 12:54:00	BASE	2.89	330	3.29	329	-5.6	64	-11.3	584	0	986.6	NA	0.0000		9999	3810	0	0	0
2019/11/21 12:55:00	BASE	3.11	330	3.50	334	-5.5	65	-11.1	598	0	986.6	NA	0.0000		9999	3770	0	0	0
2019/11/21 12:56:00	BASE	3.20	331	3.50	334	-5.4	65	-10.9	767	0	986.6	NA	0.0000		9999	3710	0	0	0
2019/11/21 12:57:00	BASE	3.15	332	3.50	334	-5.4	65	-10.9	627	0	986.6	NA	0.0000		9999	3710	0	0	0
2019/11/21 12:58:00	BASE	3.07	329	3.50	334	-5.3	65	-10.8	610	0	986.6	NA	0.0000		9999	3810	0	0	0
2019/11/21 12:59:00	BASE	3.02	325	3.50	334	-5.3	65	-10.8	703	0	986.6	NA	0.0000		9999	3900	0	0	0
2019/11/21 13:00:00	BASE	2.88	327	3.50	334	-5.3	65	-10.9	566	0	986.6	NA	0.0000		9999	3840	0	0	0
2019/11/21 13:01:00	BASE	2.95	327	3.50	323	-5.3	65	-10.9	529	0	986.6	NA	0.0000		9999	3840	0	0	0
2019/11/21 13:02:00	BASE	3.11	329	3.50	323	-5.3	65	-10.9	503	0	986.6	NA	0.0000		9999	3900	0	0	0
2019/11/21 13:03:00	BASE	3.26	334	3.65	328	-5.3	65	-10.8	556	0	986.6	NA	0.0000		9999	3900	0	0	0
2019/11/21 13:04:00	BASE	3.38	335	3.91	334	-5.3	66	-10.7	548	0	986.6	NA	0.0000		9999	3900	0	0	0
2019/11/21 13:05:00	BASE	3.48	336	3.91	334	-5.3	66	-10.7	493	0	986.6	NA	0.0000		9999	3870	0	0	0
2019/11/21 13:06:00	BASE	3.30	338	3.91	334	-5.3	66	-10.6	499	0	986.6	NA	0.0000		9999	3840	0	0	0
2019/11/21 13:07:00	BASE	3.14	339	3.91	334	-5.3	67	-10.5	470	0	986.6	NA	0.0000		9999	3900	0	0	0
2019/11/21 13:08:01	BASE	3.29	342	3.91	334	-5.4	67	-10.5	729	0	986.6	NA	0.0000		9999	3900	0	0	0
2019/11/21 13:09:00	BASE	3.23	345	3.91	334	-5.4	67	-10.5	610	0	986.7	NA	0.0000		9999	3840	0	0	0
2019/11/21 13:10:00	BASE	3.05	341	3.91	334	-5.4	68	-10.4	588	0	986.7	NA	0.0000		9999	3900	0	0	0
2019/11/21 13:11:00	BASE	2.88	338	3.91	334	-5.3	68	-10.3	493	0	986.7	NA	0.0000		9999	3870	0	0	0
2019/11/21 13:12:00	BASE	3.02	340	3.91	334	-5.3	69	-10.2	440	0	986.7	NA	0.0000		9999	3870	0	0	0
2019/11/21 13:13:00	BASE	3.30	343	3.91	334	-5.2	69	-10.0	509	0	986.7	NA	0.0000		9999	3810	0	0	0
2019/11/21 13:14:00	BASE	3.39	342	3.81	341	-5.2	69	-10.0	567	0	986.7	NA	0.0000		9999	3900	0	0	0
2019/11/21 13:15:00	BASE	3.31	341	3.76	338	-5.2	70	-9.9	493	0	986.8	NA	0.0000		9999	3580	0	0	0
2019/11/21 13:16:00	BASE	3.20	340	3.76	338	-5.2	70	-9.9	449	0	986.8	NA	0.0000		9999	3870	0	0	0
2019/11/21 13:17:00	BASE	3.19	336	3.76	338	-5.3	70	-9.9	420	0	986.8	NA	0.0000		9999	3970	0	0	0
2019/11/21 13:18:00	BASE	2.98	337	3.60	339	-5.3	70	-9.9	442	0	986.8	NA	0.0000		9999	3970	0	0	0
2019/11/21 13:19:00	BASE	2.66	342	3.60	339	-5.3	70	-9.9	491	0	986.8	NA	0.0000		9999	3870	0	0	0
2019/11/21 13:20:00	BASE	2.39	347	3.60	339	-5.2	70	-9.8	594	0	986.8	NA	0.0000		9999	3870	0	0	0
2019/11/21 13:21:00	BASE	2.22	357	3.60	339	-5.2	70	-9.8	546	0	986.9	NA	0.0000		9999	3870	0	0	0
2019/11/21 13:22:00	BASE	2.38	348	3.60	339	-5.1	70	-9.8	470	0	986.9	NA	0.0000		9999	3940	0	0	0
2019/11/21 13:23:00	BASE	2.44	332	3.60	339	-5.1	70	-9.7	450	0	986.7	NA	0.0000		9999	3940	0	0	0
2019/11/21 13:24:00	BASE	2.10	333	3.55	335	-5.1	70	-9.7	480	0	986.7	NA	0.0000		9999	3840	0	0	0
2019/11/21 13:25:00	BASE	1.76	339	3.55	335	-5.1	70	-9.7	531	0	986.4	NA	0.0000		9999	3870	0	0	0
2019/11/21 13:26:00	BASE	1.75	346	3.55	335	-5.1	70	-9.8	615	0	986.9	NA	0.0000		9999	3810	0	0	0
2019/11/21 13:27:00	BASE	1.73	347	2.98	343	-5.2	70	-9.8	558	0	987.0	NA	0.0000		9999	4000	0	0	0
2019/11/21 13:28:00	BASE	1.66	352	2.83	330	-5.2	70	-9.9	567	0	986.9	NA	0.0000		9999	4000	0	0	0
2019/11/21 13:29:00	BASE	1.64	5	2.83	330	-5.2	69	-9.9	530	0	986.8	NA	0.0000		9999	3940	0	0	0
2019/11/21 13:30:00	BASE	1.66	353	2.83	330	-5.2	69	-10.0	539	0	986.9	NA	0.0000		9999	3900	0	0	0
2019/11/21 13:31:00	BASE	1.71	321	2.83	330	-5.2	69	-10.1	539	0	986.9	NA	0.0000		9999	3970	0	0	0
2019/11/21 13:32:00	BASE	1.24	310	2.57	338	-5.2	68	-10.2	514	0	987.0	NA	0.0000		9999	3970	0	0	0
2019/11/21 13:33:00	BASE	0.49	319	2.31	335	-5.1	67	-10.3	489	0	987.0	NA	0.0000		9999	3870	0	0	0
2019/11/21 13:34:00	BASE	0.33	325	2.16	344	-5.1	66	-10.4	509	0	987.0	NA	0.0000		9999	3870	0	0	0
2019/11/21 13:35:00	BASE	0.40	329	2.16	344	-5.1	66	-10.5	535	0	986.7	NA	0.0000		9999	3840	18010	18800	0
2019/11/21 13:36:00	BASE	0.70	346	2.11	343	-5.1	65	-10.7	573	0	986.7	NA	0.0000		9999	3870	0	0	0
2019/11/21 13:37:00	BASE	0.73	360	2.06	313	-5.2	65	-10.8	539	0	986.7	NA	0.0000		9999	3940	0	0	0
2019/11/21 13:38:00	BASE	0.38	7	2.06	313	-5.2	65	-10.8	524	0	986.9	NA	0.0000		9999	3900	0	0	0
2019/11/21 13:39:00	BASE	0.65	353	2.06	313	-5.1	65	-10.7	503	0	987.0	NA	0.0000		9999	3900	20210	0	0
2019/11/21 13:40:00	BASE	1.20	340	2.01	308	-5.1	65	-10.6	534	0	987.0	NA	0.0000		9999	3940	0	0	0
2019/11/21 13:41:00	BASE	1.40	338	1.65	344	-5.0	65	-10.5	492	0	987.0	NA	0.0000		9999	4070	0	0	0
2019/11/21 13:42:00	BASE	1.25	335	1.65	344	-5.0	66	-10.4	476	0	986.8	NA	0.0000		9999	4000	0	0	0
2019/11/21 13:43:00	BASE	0.69	337	1.65	344	-5.0	66	-10.4	500	0	986.7	NA	0.0000		9999	4040	0	0	0
2019/11/21 13:44:00	BASE	0.09	335	1.65	344	-5.0	66	-10.4	605	0	987.0	NA	0.0000		9999	4000	0	0	0
2019/11/21 13:45:00	BASE	0.00	339	1.65	344	-4.9	66	-10.3	576	0	986.8	NA	0.0000		9999	3640	0	0	0
2019/11/21 13:46:00	BASE	0.00	335	1.65	344	-4.9	66	-10.3	521	0	986.7	NA	0.0000		9999	4040	0	0	0
2019/11/21 13:47:00	BASE	0.00	335	1.65	344	-4.8	65	-10.4	520	0	987.0	NA	0.0000		9999	3970	0	0	0
2019/11/21 13:48:00	BASE	0.00	339	1.65	344	-4.8	65	-10.4	610	0	986.7	NA	0.0000		9999	4000	0	0	0
2019/11/21 13:49:00	BASE	0.00	326	1.65	344	-4.8	65	-10.4	715	0	986.8	NA	0.0000		9999	4000	0	0	0
2019/11/21 13:50:00	BASE	0.00	317	1.49	338	-4.8	65	-10.4	567	0	986.9	NA	0.0000		9999	4040	0	0	0
2019/11/21 13:51:00	BASE	0.00	325	1.34	339	-4.8	65	-10.4	598	0	986.9	NA	0.0000		9999	4070	0	0	0
2019/11/21 13:52:00	BASE	0.00	338	1.18	343	-4.7	65	-10.4	504	0	986.7	NA	0.0000		9999	3740	0	0	0
2019/11/21 13:53:00	BASE	0.00	357	M	M	-4.7	65	-10.4	581	0	987.0	NA	0.0000		9999	4040	0	0	0
2019/11/21 13:54:00	BASE	0.00	1	M	M	-4.7	65	-10.4	602	0	987.1	NA	0.0000		9999	4040	0	0	0
2019/11/21 13:55:00	BASE	0.00	352	M	M	-4.7	65	-10.4	625	0	987.1	NA	0.0000		9999	4100	0	0	0
2019/11/21 13:56:00	BASE	0.00	343	M	M	-4.8	65	-10.5	798	0	987.1	NA	0.0000		9999	3450	0	0	0
2019/11/21 13:57:00	BASE	0.05	358	1.13	44	-4.8	65	-10.4	716	0	987.1	NA	0.0000		9999	3740	0	0	0
2019/11/21 13:58:00	BASE	0.43	29	1.23	20	-4.7	65	-10.3	816	0	987.1	NA	0.0000		9999	3280	0	0	0
2019/11/21 13:59:00	BASE	0.62	40	1.23	45	-4.7	65	-10.3	793	0	987.1	NA	0.0000		9999	3250	0	0	0
2019/11/21 14:00:00	BASE	0.24	50	1.23	45	-4.7	65	-10.4	796	0	987.1	NA	0.0000		9999	0	0	0	0
2019/11/21 14:01:00	BASE	0.00	61	1.23	45	-4.7	64	-10.4	681	0	987.1	NA	0.0000		9999	3280	0	0	0
2019/11/21 14:02:00	BASE	0.00	68	1.23	45	-4.8	64	-10.5	765	0	987.1	NA	0.0000		9999	3050	0	0	0
2019/11/21 14:03:00	BASE	0.00	67	1.23	45	-4.8	64	-10.5	766	0	987.1	NA	0.0000		9999	3510	0	0	0
2019/11/21 14:04:00	BASE	0.00	73	1.23	45	-4.8	65	-10.5	766	0	987.1	NA	0.0000		9999	2890	0	0	0
2019/11/21 14:05:00	BASE	0.00	87	1.23	45	-4.8	65	-10.4	773	0	987.1	NA	0.0000		9999	2890	0	0	0
2019/11/21 14:06:00	BASE	0.00	87	1.23	45	-4.7	65	-10.3	776	0	987.1	NA	0.0000		9999	0	0	0	0
2019/11/21 14:07:00	BASE	0.00	75	1.23	45	-4.6	64	-10.3	720	0	987.1	NA	0.0000		9999	0	0	0	0
2019/11/21 14:08:00	BASE	0.00	64	1.23	45	-4.5	64	-10.3	773	0	987.1	NA	0.0000		9999	3220	0	0	0
2019/11/21 14:09:00	BASE	0.00	56	M	M	-4.5	64	-10.2	772	0	987.1	NA	0.0000		9999	0	0	0	0
2019/11/21 14:10:00	BASE	0.00	55	M	M	-4.5	64	-10.2	775	0	987.1	NA	0.0000		9999	0	0	0	0
2019/11/21 14:11:00	BASE	0.00	64	M	M	-4.5	64	-10.2	776	0	987.1	NA	0.0000		9999	0	0	0	0
2019/11/21 14:12:00	BASE	0.00	100	M	M	-4.5	64	-10.2	784	0	987.2	NA	0.0000		9999	0	0	0	0
2019/11/21 14:13:00	BASE	0.00	102	M	M	-4.5	64	-10.2	688	0	987.2	NA	0.0000		9999	6730	0	0	0
2019/11/21 14:14:00	BASE	0.00	346	M	M	-4.5	64	-10.2	716	0	987.2	NA	0.0000		9999	0	0	0	0
2019/11/21 14:15:00	BASE	0.00	267	M	M	-4.5	65	-10.2	814	0	987.2	NA	0.0000		9999	0	0	0	0
2019/11/21 14:16:00	BASE	0.00	203	M	M	-4.4	65	-10.1	750	0	987.2	NA	0.0000		9999	0	0	0	0
2019/11/21 14:17:00	BASE	0.00	171	M	M	-4.4	65	-10.0	556	0	987.2	NA	0.0000		9999	6660	0	0	0
2019/11/21 14:18:00	BASE	0.00	179	M	M	-4.4	65	-10.0	862	0	987.2	NA	0.0000		9999	6590	0	0	0
2019/11/21 14:19:00	BASE	0.00	170	M	M	-4.4	65	-9.9	734	0	987.2	NA	0.0000		9999	0	0	0	0
2019/11/21 14:20:00	BASE	0.00	164	M	M	-4.4	65	-9.9	845	0	987.2	NA	0.0000		9999	0	0	0	0
2019/11/21 14:21:00	BASE	0.00	187	M	M	-4.4	66	-9.8	677	0	987.2	NA	0.0000		9999	0	0	0	0
2019/11/21 14:22:00	BASE	0.00	174	M	M	-4.4	66	-9.8	747	0	987.2	NA	0.0000		9999	0	0	0	0
2019/11/21 14:23:00	BASE	0.00	172	M	M	-4.4	66	-9.8	658	0	987.3	NA	0.0000		9999	0	0	0	0
2019/11/21 14:24:00	BASE	0.00	179	M	M	-4.4	66	-9.8	813	0	987.3	NA	0.0000		9999	0	0	0	0
2019/11/21 14:25:00	BASE	0.00	162	M	M	-4.5	66	-9.9	809	0	987.3	NA	0.0000		9999	0	0	0	0
2019/11/21 14:26:00	BASE	0.00	134	M	M	-4.5	66	-9.9	802	0	987.3	NA	0.0000		9999	0	0	0	0
2019/11/21 14:27:00	BASE	0.00	141	M	M	-4.5	66	-9.9	803	0	987.3	NA	0.0000		9999	0	0	0	0
2019/11/21 14:28:00	BASE	0.00	167	M	M	-4.5	66	-9.9	810	0	987.3	NA	0.0000		9999	0	0	0	0
2019/11/21 14:29:00	BASE	0.00	175	M	M	-4.6	66	-10.0	821	0	987.3	NA	0.0000		9999	8270	0	0	0
2019/11/21 14:30:00	BASE	0.00	170	M	M	-4.5	66	-9.9	802	0	987.3	NA	0.0000		9999	8170	0	0	0
2019/11/21 14:31:00	BASE	0.00	169	M	M	-4.4	66	-9.8	889	0	987.3	NA	0.0000		9999	8170	0	0	0
2019/11/21 14:32:00	BASE	0.00	174	M	M	-4.4	66	-9.8	751	0	987.3	NA	0.0000		9999	8240	0	0	0
2019/11/21 14:33:00	BASE	0.00	164	M	M	-4.4	66	-9.8	648	0	987.3	NA	0.0000		9999	8300	0	0	0
2019/11/21 14:34:00	BASE	0.00	129	M	M	-4.3	66	-9.7	862	0	987.3	NA	0.0000		9999	8270	0	0	0
2019/11/21 14:35:00	BASE	0.00	102	M	M	-4.2	66	-9.6	864	0	987.3	NA	0.0000		9999	8240	0	0	0
2019/11/21 14:36:00	BASE	0.00	124	M	M	-4.2	66	-9.6	874	0	987.3	NA	0.0000		9999	8200	0	0	0
2019/11/21 14:37:00	BASE	0.00	132	M	M	-4.1	66	-9.5	605	0	987.3	NA	0.0000		9999	8270	0	0	0
2019/11/21 14:38:00	BASE	0.00	99	M	M	-4.0	66	-9.5	768	0	987.3	NA	0.0000		9999	0	0	0	0
2019/11/21 14:39:00	BASE	0.00	32	M	M	-4.0	66	-9.4	790	0	987.3	NA	0.0000		9999	8330	0	0	0
2019/11/21 14:40:00	BASE	0.00	35	M	M	-4.0	66	-9.4	817	0	987.3	NA	0.0000		9999	8330	0	0	0
2019/11/21 14:41:00	BASE	0.00	61	M	M	-4.1	66	-9.5	822	0	987.3	NA	0.0000		9999	0	0	0	0
2019/11/21 14:42:00	BASE	0.00	76	M	M	-4.1	66	-9.5	812	0	987.3	NA	0.0000		9999	0	0	0	0
2019/11/21 14:43:00	BASE	0.00	81	M	M	-4.1	66	-9.5	808	0	987.3	NA	0.0000		9999	8300	0	0	0
2019/11/21 14:44:00	BASE	0.00	111	M	M	-4.1	66	-9.6	806	0	987.3	NA	0.0000		9999	8270	0	0	0
2019/11/21 14:45:00	BASE	0.00	135	M	M	-4.1	66	-9.6	806	0	987.3	NA	0.0000		9999	8400	0	0	0
2019/11/21 14:46:00	BASE	0.00	123	M	M	-4.1	65	-9.6	806	0	987.3	NA	0.0000		9999	0	0	0	0
2019/11/21 14:47:00	BASE	0.00	143	M	M	-4.1	65	-9.7	801	0	987.3	NA	0.0000		9999	0	0	0	0
2019/11/21 14:48:01	BASE	0.00	218	M	M	-4.0	66	-9.5	798	0	987.3	NA	0.0000		9999	0	0	0	0
2019/11/21 14:49:00	BASE	0.00	352	M	M	-3.9	66	-9.4	801	0	987.3	NA	0.0000		9999	0	0	0	0
2019/11/21 14:50:00	BASE	0.00	47	M	M	-3.8	65	-9.3	802	0	987.3	NA	0.0000		9999	0	0	0	0
2019/11/21 14:51:01	BASE	0.00	35	M	M	-3.7	65	-9.3	803	0	987.3	NA	0.0000		9999	0	0	0	0
2019/11/21 14:52:00	BASE	0.00	351	M	M	-3.6	65	-9.2	805	0	987.3	NA	0.0000		9999	0	0	0	0
2019/11/21 14:53:00	BASE	0.00	329	M	M	-3.6	65	-9.2	809	0	987.3	NA	0.0000		9999	0	0	0	0
2019/11/21 14:54:00	BASE	0.00	349	M	M	-3.6	65	-9.2	809	0	987.3	NA	0.0000		9999	0	0	0	0
2019/11/21 14:55:00	BASE	0.00	22	M	M	-3.6	65	-9.3	813	0	987.3	NA	0.0000		9999	0	0	0	0
2019/11/21 14:56:00	BASE	0.00	26	M	M	-3.7	65	-9.3	814	0	987.3	NA	0.0000		9999	0	0	0	0
2019/11/21 14:57:00	BASE	0.00	16	M	M	-3.8	65	-9.4	811	0	987.3	NA	0.0000		9999	0	0	0	0
2019/11/21 14:58:00	BASE	0.00	10	M	M	-4.0	65	-9.6	808	0	987.3	NA	0.0000		9999	0	0	0	0
2019/11/21 14:59:00	BASE	0.24	8	1.23	16	-4.2	66	-9.7	808	0	987.3	NA	0.0000		9999	0	0	0	0
2019/11/21 15:00:00	BASE	0.51	14	1.23	22	-4.3	66	-9.7	808	0	987.3	NA	0.0000		9999	0	0	0	0
2019/11/21 15:01:00	BASE	0.28	21	1.23	22	-4.3	67	-9.6	810	0	987.4	NA	0.0000		9999	0	0	0	0
2019/11/21 15:02:00	BASE	0.49	11	1.44	1	-4.3	67	-9.5	812	0	987.4	NA	0.0000		9999	0	0	0	0
2019/11/21 15:03:00	BASE	0.97	8	1.54	1	-4.3	67	-9.4	814	0	987.4	NA	0.0000		9999	0	0	0	0
2019/11/21 15:04:00	BASE	0.92	5	1.54	1	-4.2	67	-9.3	817	0	987.4	NA	0.0000		9999	0	0	0	0
2019/11/21 15:05:00	BASE	0.52	355	1.54	1	-4.2	67	-9.3	822	0	987.4	NA	0.0000		9999	0	0	0	0
2019/11/21 15:06:00	BASE	0.09	350	1.54	1	-4.3	67	-9.4	826	0	987.4	NA	0.0000		9999	0	0	0	0
2019/11/21 15:07:00	BASE	0.00	347	1.54	1	-4.3	67	-9.5	834	0	987.4	NA	0.0000		9999	0	0	0	0
2019/11/21 15:08:00	BASE	0.00	340	1.54	1	-4.3	67	-9.4	843	0	987.4	NA	0.0000		9999	0	0	0	0
2019/11/21 15:09:00	BASE	0.00	324	1.54	1	-4.3	67	-9.4	862	0	987.4	NA	0.0000		9999	0	0	0	0
2019/11/21 15:10:00	BASE	0.00	311	1.54	1	-4.1	67	-9.4	863	0	987.4	NA	0.0000		9999	8240	0	0	0
2019/11/21 15:11:00	BASE	0.00	306	1.54	1	-4.1	67	-9.4	925	0	987.5	NA	0.0000		9999	8170	0	0	0
2019/11/21 15:12:00	BASE	0.00	291	1.54	1	-4.1	66	-9.4	695	0	987.6	NA	0.0000		9999	8140	0	0	0
2019/11/21 15:13:00	BASE	0.00	277	1.49	2	-4.1	66	-9.5	677	0	987.6	NA	0.0000		9999	0	0	0	0
2019/11/21 15:14:00	BASE	0.20	287	1.39	305	-4.1	66	-9.5	976	0	987.6	NA	0.0000		9999	8200	0	0	0
2019/11/21 15:15:00	BASE	0.50	309	1.39	305	-4.1	66	-9.5	910	0	987.6	NA	0.0000		9999	8240	0	0	0
2019/11/21 15:16:00	BASE	0.40	321	1.39	305	-4.0	66	-9.3	884	0	987.6	NA	0.0000		9999	0	0	0	0
2019/11/21 15:17:00	BASE	0.10	320	1.39	305	-4.0	66	-9.3	609	0	987.6	NA	0.0000		9999	0	0	0	0
2019/11/21 15:18:00	BASE	0.00	315	1.39	305	-3.9	66	-9.3	770	0	987.6	NA	0.0000		9999	8170	0	0	0
2019/11/21 15:19:00	BASE	0.00	306	1.39	305	-3.8	66	-9.3	938	0	987.6	NA	0.0000		9999	8140	0	0	0
2019/11/21 15:20:00	BASE	0.20	298	1.39	305	-3.8	65	-9.4	988	0	987.6	NA	0.0000		9999	8070	0	0	0
2019/11/21 15:21:00	BASE	0.28	301	1.39	305	-3.8	65	-9.4	645	0	987.6	NA	0.0000		9999	8140	0	0	0
2019/11/21 15:22:00	BASE	0.70	313	1.49	325	-3.8	65	-9.3	728	0	987.6	NA	0.0000		9999	8070	0	0	0
2019/11/21 15:23:00	BASE	1.32	323	1.65	329	-3.8	65	-9.4	738	0	987.6	NA	0.0000		9999	8040	0	0	0
2019/11/21 15:24:00	BASE	0.97	331	1.65	329	-3.8	65	-9.3	603	0	987.6	NA	0.0000		9999	7970	0	0	0
2019/11/21 15:25:00	BASE	0.87	320	1.65	329	-3.7	66	-9.2	656	0	987.6	NA	0.0000		9999	7970	0	0	0
2019/11/21 15:26:00	BASE	0.90	303	1.65	329	-3.8	66	-9.3	692	0	987.6	NA	0.0000		9999	8040	0	0	0
2019/11/21 15:27:00	BASE	0.91	298	1.65	329	-3.8	66	-9.3	579	0	987.6	NA	0.0000		9999	6500	8240	0	0
2019/11/21 15:28:00	BASE	1.36	295	1.65	301	-3.9	66	-9.3	723	0	987.6	NA	0.0000		9999	6430	0	0	0
2019/11/21 15:29:00	BASE	1.48	297	1.75	300	-3.9	67	-9.2	673	0	987.6	NA	0.0000		9999	8330	0	0	0
2019/11/21 15:30:00	BASE	1.32	300	1.75	300	-3.9	67	-9.2	898	0	987.6	NA	0.0000		9999	0	0	0	0
2019/11/21 15:31:00	BASE	1.29	301	1.75	300	-4.0	67	-9.2	751	0	987.7	NA	0.0000		9999	6430	0	0	0
2019/11/21 15:32:00	BASE	1.02	309	1.75	300	-3.9	67	-9.1	734	0	987.7	NA	0.0000		9999	6430	0	0	0
2019/11/21 15:33:00	BASE	0.65	325	1.75	300	-3.9	67	-9.1	678	0	987.7	NA	0.0000		9999	0	0	0	0
2019/11/21 15:34:00	BASE	0.50	324	1.75	300	-4.0	67	-9.3	821	0	987.7	NA	0.0000		9999	6400	0	0	0
2019/11/21 15:35:00	BASE	0.33	309	1.75	300	-4.0	67	-9.2	852	0	987.7	NA	0.0000		9999	6400	0	0	0
2019/11/21 15:36:00	BASE	0.39	302	1.75	300	-3.9	67	-9.1	879	0	987.7	NA	0.0000		9999	6370	0	0	0
2019/11/21 15:37:00	BASE	0.85	301	1.75	300	-3.9	67	-9.0	763	0	987.7	NA	0.0000		9999	6400	0	0	0
2019/11/21 15:38:00	BASE	1.05	302	1.75	300	-3.8	67	-8.9	776	0	987.7	NA	0.0000		9999	0	0	0	0
2019/11/21 15:39:00	BASE	1.10	305	1.65	288	-3.6	67	-8.8	862	0	987.7	NA	0.0000		9999	0	0	0	0
2019/11/21 15:40:00	BASE	1.43	302	1.85	298	-3.6	67	-8.9	786	0	987.7	NA	0.0000		9999	0	0	0	0
2019/11/21 15:41:00	BASE	1.48	302	1.85	298	-3.7	67	-9.0	875	0	987.7	NA	0.0000		9999	6400	0	0	0
2019/11/21 15:42:00	BASE	1.40	311	1.85	298	-3.7	66	-9.1	791	0	987.7	NA	0.0000		9999	6300	0	0	0
2019/11/21 15:43:00	BASE	1.32	307	1.85	298	-3.7	66	-9.1	663	0	987.8	NA	0.0000		9999	6370	0	0	0
2019/11/21 15:44:00	BASE	1.48	306	1.95	316	-3.7	67	-9.0	886	0	987.8	NA	0.0000		9999	6330	0	0	0
2019/11/21 15:45:00	BASE	1.66	314	1.95	316	-3.6	67	-8.8	919	0	987.8	NA	0.0000		9999	6330	21720	0	0
2019/11/21 15:46:00	BASE	1.58	319	1.95	316	-3.6	67	-8.7	799	0	987.8	NA	0.0000		9999	6330	21200	0	0
2019/11/21 15:47:00	BASE	1.34	322	1.95	316	-3.5	68	-8.6	905	0	987.8	NA	0.0000		9999	6330	0	0	0
2019/11/21 15:48:00	BASE	1.35	320	2.16	315	-3.5	68	-8.6	958	0	987.8	NA	0.0000		9999	6330	0	0	0
2019/11/21 15:49:00	BASE	1.89	314	2.52	307	-3.4	68	-8.5	854	0	987.8	NA	0.0000		9999	6370	0	0	0
2019/11/21 15:50:00	BASE	2.18	312	2.52	307	-3.4	68	-8.5	805	0	987.8	NA	0.0000		9999	6370	0	0	0
2019/11/21 15:51:00	BASE	1.99	321	2.52	307	-3.4	68	-8.4	733	0	987.8	NA	0.0000		9999	6330	0	0	0
2019/11/21 15:52:00	BASE	1.90	321	2.52	307	-3.3	68	-8.3	827	0	987.8	NA	0.0000		9999	6300	0	0	0
2019/11/21 15:53:00	BASE	1.98	315	2.52	307	-3.2	68	-8.2	815	0	987.8	NA	0.0000		9999	6270	0	0	0
2019/11/21 15:54:00	BASE	2.02	317	2.52	316	-3.3	68	-8.3	775	0	987.8	NA	0.0000		9999	6230	0	0	0
2019/11/21 15:55:00	BASE	2.11	316	2.52	315	-3.3	68	-8.3	915	0	987.8	NA	0.0000		9999	6270	0	0	0
2019/11/21 15:56:00	BASE	1.98	315	2.52	315	-3.3	68	-8.4	961	0	987.8	NA	0.0000		9999	6300	0	0	0
2019/11/21 15:57:00	BASE	1.70	315	2.52	315	-3.3	68	-8.4	900	0	987.9	NA	0.0000		9999	6300	0	0	0
2019/11/21 15:58:00	BASE	1.66	314	2.52	315	-3.3	68	-8.4	834	0	987.9	NA	0.0000		9999	6300	19650	0	0
2019/11/21 15:59:00	BASE	1.71	314	2.52	315	-3.2	68	-8.3	739	0	987.9	NA	0.0000		9999	6270	0	0	0
2019/11/21 16:00:00	BASE	1.69	322	2.52	315	-3.2	68	-8.3	746	0	987.9	NA	0.0000		9999	6270	0	0	0
2019/11/21 16:01:00	BASE	1.36	327	2.52	315	-3.2	68	-8.3	927	0	987.9	NA	0.0000		9999	0	0	0	0
2019/11/21 16:02:00	BASE	1.32	324	2.52	315	-3.2	68	-8.2	955	0	987.9	NA	0.0000		9999	6230	0	0	0
2019/11/21 16:03:00	BASE	1.21	315	2.52	315	-3.2	68	-8.2	949	0	987.8	NA	0.0000		9999	6270	0	0	0
2019/11/21 16:04:00	BASE	1.15	319	2.52	315	-3.2	68	-8.2	783	0	987.9	NA	0.0000		9999	6200	0	0	0
2019/11/21 16:05:00	BASE	1.73	336	2.31	343	-3.1	68	-8.1	859	0	987.9	NA	0.0000		9999	6200	0	0	0
2019/11/21 16:06:00	BASE	1.89	348	2.31	343	-3.1	68	-8.2	899	0	987.9	NA	0.0000		9999	0	0	0	0
2019/11/21 16:07:00	BASE	1.60	348	2.31	343	-3.2	68	-8.3	907	0	987.9	NA	0.0000		9999	0	0	0	0
2019/11/21 16:08:00	BASE	1.50	348	2.31	343	-3.3	68	-8.3	869	0	987.9	NA	0.0000		9999	0	0	0	0
2019/11/21 16:09:00	BASE	1.51	345	2.31	343	-3.4	68	-8.4	926	0	987.9	NA	0.0000		9999	6230	6660	0	0
2019/11/21 16:10:00	BASE	1.69	344	2.31	343	-3.4	69	-8.4	933	0	987.9	NA	0.0000		9999	6200	6590	22050	0
2019/11/21 16:11:00	BASE	1.87	346	2.31	343	-3.4	69	-8.3	812	0	987.9	NA	0.0000		9999	6660	0	0	0
2019/11/21 16:12:00	BASE	2.04	351	2.42	351	-3.4	70	-8.2	979	0	987.9	NA	0.0000		9999	6730	0	0	0
2019/11/21 16:13:00	BASE	1.88	348	2.42	351	-3.4	70	-8.1	914	0	987.9	NA	0.0000		9999	6170	6730	0	0
2019/11/21 16:14:00	BASE	1.51	352	2.42	351	-3.4	70	-8.1	905	0	987.9	NA	0.0000		9999	6730	0	0	0
2019/11/21 16:15:00	BASE	1.83	355	2.52	347	-3.3	69	-8.1	877	0	987.9	NA	0.0000		9999	6690	0	0	0
2019/11/21 16:16:00	BASE	2.07	348	2.52	347	-3.3	69	-8.2	1053	0	987.9	NA	0.0000		9999	6590	0	0	0
2019/11/21 16:17:00	BASE	2.03	346	2.52	347	-3.3	68	-8.3	889	0	987.9	NA	0.0000		9999	6630	0	0	0
2019/11/21 16:18:00	BASE	1.98	345	2.52	347	-3.3	68	-8.4	847	0	987.9	NA	0.0000		9999	6590	0	0	0
2019/11/21 16:19:00	BASE	2.15	344	2.68	342	-3.3	67	-8.5	697	0	987.9	NA	0.0000		9999	6560	0	0	0
2019/11/21 16:20:00	BASE	2.43	334	2.73	322	-3.3	67	-8.5	757	0	987.9	NA	0.0000		9999	6530	0	0	0
2019/11/21 16:21:00	BASE	2.12	322	2.73	322	-3.3	67	-8.5	763	0	987.9	NA	0.0000		9999	6560	0	0	0
2019/11/21 16:22:00	BASE	1.84	319	2.73	322	-3.3	67	-8.5	725	0	987.9	NA	0.0000		9999	6560	0	0	0
2019/11/21 16:23:00	BASE	1.97	327	2.73	322	-3.1	67	-8.4	806	0	987.9	NA	0.0000		9999	6530	0	0	0
2019/11/21 16:24:00	BASE	1.87	339	2.73	322	-3.1	67	-8.5	696	0	988.0	NA	0.0000		9999	6460	0	0	0
2019/11/21 16:25:00	BASE	1.61	340	2.73	322	-3.1	66	-8.5	732	0	987.8	NA	0.0000		9999	6530	0	0	0
2019/11/21 16:26:00	BASE	1.52	337	2.73	322	-3.1	66	-8.5	718	0	988.0	NA	0.0000		9999	6170	6460	0	0
2019/11/21 16:27:00	BASE	1.78	333	2.73	322	-3.2	67	-8.5	683	0	987.8	NA	0.0000		9999	6460	19130	0	0
2019/11/21 16:28:00	BASE	2.16	321	2.73	322	-3.1	67	-8.4	734	0	988.0	NA	0.0000		9999	6400	0	0	0
2019/11/21 16:29:00	BASE	2.20	307	2.73	322	-3.1	67	-8.3	724	0	988.0	NA	0.0000		9999	6500	0	0	0
2019/11/21 16:30:00	BASE	2.12	303	2.47	303	-3.0	67	-8.2	751	0	988.0	NA	0.0000		9999	6430	0	0	0
2019/11/21 16:31:00	BASE	1.95	307	2.47	303	-2.9	67	-8.2	772	0	988.0	NA	0.0000		9999	6400	0	0	0
2019/11/21 16:32:00	BASE	1.69	309	2.47	303	-2.8	66	-8.3	819	0	988.0	NA	0.0000		9999	6300	0	0	0
2019/11/21 16:33:00	BASE	1.64	303	2.47	303	-2.8	66	-8.3	778	0	988.0	NA	0.0000		9999	6370	0	0	0
2019/11/21 16:34:00	BASE	1.75	302	2.47	303	-2.8	65	-8.4	913	0	988.0	NA	0.0000		9999	6300	0	0	0
2019/11/21 16:35:00	BASE	1.84	311	2.62	322	-2.7	65	-8.3	838	0	988.0	NA	0.0000		9999	6270	0	0	0
2019/11/21 16:36:00	BASE	2.27	312	2.88	314	-2.6	66	-8.2	855	0	988.0	NA	0.0000		9999	6230	0	0	0
2019/11/21 16:37:00	BASE	2.48	303	2.88	314	-2.6	66	-8.1	766	0	988.0	NA	0.0000		9999	6200	0	0	0
2019/11/21 16:38:00	BASE	2.20	301	2.88	314	-2.6	66	-8.1	1085	0	988.0	NA	0.0000		9999	6200	0	0	0
2019/11/21 16:39:00	BASE	2.28	305	3.09	305	-2.6	66	-8.1	878	0	988.0	NA	0.0000		9999	6170	0	0	0
2019/11/21 16:40:00	BASE	2.70	305	3.29	305	-2.6	65	-8.2	782	0	988.1	NA	0.0000		9999	6100	0	0	0
2019/11/21 16:41:00	BASE	2.48	309	3.29	305	-2.7	65	-8.4	772	0	988.1	NA	0.0000		9999	6140	0	0	0
2019/11/21 16:42:00	BASE	1.85	309	3.29	305	-2.7	64	-8.6	812	0	988.1	NA	0.0000		9999	6170	0	0	0
2019/11/21 16:43:00	BASE	1.61	307	3.29	305	-2.7	64	-8.7	766	0	988.0	NA	0.0000		9999	6200	0	0	0
2019/11/21 16:44:00	BASE	1.63	310	3.29	305	-2.7	63	-8.7	756	0	988.0	NA	0.0000		9999	6100	0	0	0
2019/11/21 16:45:00	BASE	1.80	308	3.29	305	-2.7	63	-8.7	721	0	988.1	NA	0.0000		9999	6100	0	0	0
2019/11/21 16:46:00	BASE	1.99	307	3.29	305	-2.7	64	-8.6	744	0	988.1	NA	0.0000		9999	6140	0	0	0
2019/11/21 16:47:00	BASE	2.26	311	3.29	305	-2.6	64	-8.5	713	0	988.1	NA	0.0000		9999	6140	0	0	0
2019/11/21 16:48:00	BASE	2.62	313	3.29	305	-2.5	64	-8.4	692	0	988.1	NA	0.0000		9999	6140	0	0	0
2019/11/21 16:49:00	BASE	2.92	313	3.29	310	-2.6	64	-8.5	699	0	988.2	NA	0.0000		9999	6100	19750	0	0
2019/11/21 16:50:00	BASE	2.98	314	3.29	310	-2.6	64	-8.6	735	0	988.2	NA	0.0000		9999	6140	0	0	0
2019/11/21 16:51:00	BASE	2.62	311	3.29	310	-2.6	64	-8.6	719	0	988.2	NA	0.0000		9999	6170	0	0	0
2019/11/21 16:52:00	BASE	2.17	311	3.29	310	-2.6	63	-8.6	799	0	988.2	NA	0.0000		9999	6170	0	0	0
2019/11/21 16:53:00	BASE	1.94	313	3.29	310	-2.6	63	-8.8	904	0	988.2	NA	0.0000		9999	6200	0	0	0
2019/11/21 16:54:00	BASE	1.98	318	3.29	310	-2.6	62	-8.8	769	0	988.2	NA	0.0000		9999	6200	0	0	0
2019/11/21 16:55:00	BASE	2.01	322	3.29	310	-2.6	62	-8.9	739	0	988.2	NA	0.0000		9999	6170	0	0	0
2019/11/21 16:56:00	BASE	1.78	328	3.29	310	-2.7	61	-9.1	688	0	988.2	NA	0.0000		9999	6170	0	0	0
2019/11/21 16:57:00	BASE	1.29	327	3.29	310	-2.8	61	-9.3	715	0	988.2	NA	0.0000		9999	6170	22280	0	0
2019/11/21 16:58:00	BASE	1.02	318	3.29	310	-2.8	61	-9.2	698	0	988.2	NA	0.0000		9999	6170	0	0	0
2019/11/21 16:59:00	BASE	1.36	321	3.19	311	-2.8	62	-9.1	691	0	988.2	NA	0.0000		9999	6140	0	0	0
2019/11/21 17:00:00	BASE	1.67	325	2.62	303	-2.8	62	-9.1	750	0	988.0	NA	0.0000		9999	6140	0	0	0
2019/11/21 17:01:00	BASE	1.86	322	2.42	327	-2.8	62	-9.0	713	0	988.3	NA	0.0000		9999	6100	0	0	0
2019/11/21 17:02:00	BASE	1.84	319	2.42	327	-2.7	62	-9.0	713	0	988.3	NA	0.0000		9999	6140	0	0	0
2019/11/21 17:03:00	BASE	1.63	319	2.42	327	-2.7	63	-8.9	722	0	988.3	NA	0.0000		9999	6170	0	0	0
2019/11/21 17:04:00	BASE	1.69	333	2.21	347	-2.7	63	-8.8	700	0	988.3	NA	0.0000		9999	6100	0	0	0
2019/11/21 17:05:00	BASE	1.91	347	2.21	347	-2.7	63	-8.7	679	0	988.3	NA	0.0000		9999	6170	0	0	0
2019/11/21 17:06:00	BASE	1.94	349	2.21	339	-2.8	64	-8.7	685	0	988.3	NA	0.0000		9999	6140	0	0	0
2019/11/21 17:07:00	BASE	1.84	355	2.21	349	-2.8	64	-8.7	794	0	988.3	NA	0.0000		9999	6070	0	0	0
2019/11/21 17:08:00	BASE	1.62	344	2.21	349	-2.8	63	-8.8	679	0	988.3	NA	0.0000		9999	6100	0	0	0
2019/11/21 17:09:00	BASE	1.59	315	2.21	349	-2.8	63	-8.8	723	0	988.4	NA	0.0000		9999	6170	0	0	0
2019/11/21 17:10:00	BASE	1.77	310	2.21	349	-2.7	63	-8.8	659	0	988.4	NA	0.0000		9999	6170	0	0	0
2019/11/21 17:11:00	BASE	1.93	314	2.42	319	-2.7	63	-8.8	692	0	988.4	NA	0.0000		9999	6170	0	0	0
2019/11/21 17:12:00	BASE	1.99	312	2.42	319	-2.6	63	-8.8	784	0	988.4	NA	0.0000		9999	6100	0	0	0
2019/11/21 17:13:00	BASE	2.01	314	2.52	308	-2.6	62	-8.8	720	0	988.4	NA	0.0000		9999	6230	0	0	0
2019/11/21 17:14:00	BASE	2.28	315	2.68	319	-2.6	62	-8.8	797	0	988.4	NA	0.0000		9999	6040	0	0	0
2019/11/21 17:15:00	BASE	2.37	316	2.68	319	-2.6	61	-9.0	691	0	988.4	NA	0.0000		9999	6170	0	0	0
2019/11/21 17:16:00	BASE	2.18	318	2.68	319	-2.6	61	-9.0	690	0	988.4	NA	0.0000		9999	6200	0	0	0
2019/11/21 17:17:00	BASE	2.17	321	2.68	319	-2.6	61	-9.1	734	0	988.4	NA	0.0000		9999	6230	0	0	0
2019/11/21 17:18:00	BASE	2.09	319	2.68	319	-2.6	61	-9.2	709	0	988.5	NA	0.0000		9999	6200	0	0	0
2019/11/21 17:19:00	BASE	1.73	315	2.68	319	-2.7	60	-9.3	702	0	988.5	NA	0.0000		9999	6200	0	0	0
2019/11/21 17:20:00	BASE	1.66	316	2.68	319	-2.7	60	-9.3	720	0	988.5	NA	0.0000		9999	6230	0	0	0
2019/11/21 17:21:00	BASE	2.05	317	2.68	319	-2.7	60	-9.3	688	0	988.5	NA	0.0000		9999	6270	0	0	0
2019/11/21 17:22:00	BASE	2.18	320	2.68	319	-2.7	60	-9.4	654	0	988.5	NA	0.0000		9999	6200	0	0	0
2019/11/21 17:23:00	BASE	2.01	319	2.68	319	-2.7	60	-9.5	695	0	988.5	NA	0.0000		9999	6230	0	0	0
2019/11/21 17:24:00	BASE	1.80	320	2.52	330	-2.7	60	-9.5	665	0	988.4	NA	0.0000		9999	6140	22410	0	0
2019/11/21 17:25:00	BASE	2.08	322	2.98	321	-2.7	60	-9.5	620	0	988.5	NA	0.0000		9999	6170	0	0	0
2019/11/21 17:26:00	BASE	2.30	319	2.98	321	-2.7	60	-9.4	588	0	988.5	NA	0.0000		9999	6300	0	0	0
2019/11/21 17:27:00	BASE	1.75	323	2.98	321	-2.6	60	-9.4	578	0	988.5	NA	0.0000		9999	6200	0	0	0
2019/11/21 17:28:00	BASE	1.62	330	2.98	321	-2.5	60	-9.3	628	0	988.5	NA	0.0000		9999	6140	0	0	0
2019/11/21 17:29:00	BASE	1.90	329	2.98	321	-2.6	59	-9.4	525	0	988.5	NA	0.0000		9999	6200	0	0	0
2019/11/21 17:30:00	BASE	1.84	326	2.98	321	-2.7	59	-9.6	535	0	988.5	NA	0.0000		9999	6430	0	0	0
2019/11/21 17:31:00	BASE	1.71	321	2.98	321	-2.7	59	-9.7	474	0	988.5	NA	0.0000		9999	6300	0	0	0
2019/11/21 17:32:00	BASE	1.76	313	2.98	321	-2.8	58	-9.8	455	0	988.5	NA	0.0000		9999	6230	0	0	0
2019/11/21 17:33:00	BASE	2.03	310	2.98	321	-2.7	59	-9.7	449	0	988.5	NA	0.0000		9999	6370	0	0	0
2019/11/21 17:34:00	BASE	2.10	318	2.98	321	-2.7	59	-9.6	584	0	988.5	NA	0.0000		9999	6300	0	0	0
2019/11/21 17:35:00	BASE	1.85	319	2.83	316	-2.6	59	-9.6	841	0	988.5	NA	0.0000		9999	5970	0	0	0
2019/11/21 17:36:00	BASE	2.00	314	2.83	316	-2.5	59	-9.5	773	0	988.5	NA	0.0000		9999	6270	0	0	0
2019/11/21 17:37:00	BASE	2.21	315	2.83	316	-2.5	59	-9.4	624	0	988.5	NA	0.0000		9999	6100	0	0	0
2019/11/21 17:38:00	BASE	2.14	313	2.83	316	-2.5	59	-9.5	995	0	988.5	NA	0.0000		9999	0	0	0	0
2019/11/21 17:39:00	BASE	1.99	310	2.83	316	-2.5	59	-9.4	961	0	988.5	NA	0.0000		9999	6100	0	0	0
2019/11/21 17:40:00	BASE	1.46	311	2.83	316	-2.3	59	-9.2	931	0	988.5	NA	0.0000		9999	6170	0	0	0
2019/11/21 17:41:00	BASE	1.31	311	2.83	316	-2.2	59	-9.1	851	0	988.5	NA	0.0000		9999	6000	0	0	0
2019/11/21 17:42:00	BASE	1.38	306	2.83	316	-2.1	59	-9.1	980	0	988.5	NA	0.0000		9999	0	0	0	0
2019/11/21 17:43:00	BASE	1.33	310	2.62	304	-2.1	59	-9.1	784	0	988.5	NA	0.0000		9999	5910	0	0	0
2019/11/21 17:44:00	BASE	1.43	320	2.62	304	-2.1	58	-9.3	835	0	988.5	NA	0.0000		9999	5910	6460	0	0
2019/11/21 17:45:00	BASE	1.39	321	2.62	328	-2.2	58	-9.4	927	0	988.5	NA	0.0000		9999	6270	22470	0	0
2019/11/21 17:46:00	BASE	2.08	322	2.93	318	-2.2	58	-9.5	698	0	988.5	NA	0.0000		9999	6170	0	0	0
2019/11/21 17:47:00	BASE	2.70	319	2.93	318	-2.2	58	-9.4	658	0	988.6	NA	0.0000		9999	6140	0	0	0
2019/11/21 17:48:00	BASE	2.44	312	2.93	318	-2.3	59	-9.3	694	0	988.7	NA	0.0000		9999	6100	0	0	0
2019/11/21 17:49:00	BASE	2.12	311	2.93	318	-2.3	59	-9.2	624	0	988.7	NA	0.0000		9999	6040	0	0	0
2019/11/21 17:50:00	BASE	2.12	310	2.93	318	-2.3	59	-9.1	670	0	988.7	NA	0.0000		9999	5680	6100	0	0
2019/11/21 17:51:00	BASE	2.25	317	2.93	318	-2.3	59	-9.2	666	0	988.7	NA	0.0000		9999	6070	0	0	0
2019/11/21 17:52:00	BASE	2.24	320	2.93	318	-2.4	59	-9.2	702	0	988.7	NA	0.0000		9999	5970	0	0	0
2019/11/21 17:53:00	BASE	2.46	312	3.04	319	-2.2	60	-9.0	695	0	988.7	NA	0.0000		9999	6070	0	0	0
2019/11/21 17:54:00	BASE	2.70	310	3.04	319	-2.1	60	-8.8	633	0	988.7	NA	0.0000		9999	6070	0	0	0
2019/11/21 17:55:00	BASE	2.50	317	3.04	319	-2.1	60	-8.8	678	0	988.7	NA	0.0000		9999	6040	0	0	0
2019/11/21 17:56:00	BASE	2.13	324	3.04	319	-2.1	60	-8.7	734	0	988.7	NA	0.0000		9999	6100	0	0	0
2019/11/21 17:57:00	BASE	2.34	324	3.24	318	-2.1	60	-8.7	690	0	988.7	NA	0.0000		9999	5970	0	0	0
2019/11/21 17:58:00	BASE	2.86	315	3.45	304	-2.1	60	-8.9	662	0	988.7	NA	0.0000		9999	5940	0	0	0
2019/11/21 17:59:00	BASE	2.82	310	3.45	304	-2.3	60	-9.1	629	0	988.7	NA	0.0000		9999	5970	23260	0	0
2019/11/21 18:00:00	BASE	2.33	312	3.45	304	-2.3	59	-9.2	639	0	988.7	NA	0.0000		9999	5940	0	0	0
2019/11/21 18:01:00	BASE	1.85	318	3.45	304	-2.3	59	-9.2	619	0	988.7	NA	0.0000		9999	6000	0	0	0
2019/11/21 18:02:00	BASE	1.54	321	3.45	304	-2.4	59	-9.3	615	0	988.7	NA	0.0000		9999	6000	0	0	0
2019/11/21 18:03:00	BASE	1.58	315	3.45	304	-2.4	59	-9.4	601	0	988.7	NA	0.0000		9999	6040	0	0	0
2019/11/21 18:04:00	BASE	1.94	319	3.45	304	-2.4	59	-9.3	643	0	988.7	NA	0.0000		9999	6040	0	0	0
2019/11/21 18:05:00	BASE	2.27	325	3.45	304	-2.4	59	-9.3	604	0	988.7	NA	0.0000		9999	5940	0	0	0
2019/11/21 18:06:00	BASE	2.24	314	3.45	304	-2.3	59	-9.2	594	0	988.7	NA	0.0000		9999	6000	0	0	0
2019/11/21 18:07:00	BASE	1.88	309	3.45	304	-2.3	59	-9.1	619	0	988.7	NA	0.0000		9999	5940	0	0	0
2019/11/21 18:08:00	BASE	1.53	317	2.93	316	-2.3	59	-9.1	606	0	988.7	NA	0.0000		9999	5770	0	0	0
2019/11/21 18:09:00	BASE	1.38	323	2.93	316	-2.3	59	-9.1	576	0	988.7	NA	0.0000		9999	5810	0	0	0
2019/11/21 18:10:00	BASE	1.41	319	2.93	316	-2.2	59	-9.1	540	0	988.8	NA	0.0000		9999	5970	0	0	0
2019/11/21 18:11:00	BASE	1.76	316	2.93	316	-2.3	59	-9.2	523	0	988.8	NA	0.0000		9999	5810	0	0	0
2019/11/21 18:12:00	BASE	2.09	321	2.93	316	-2.3	59	-9.3	522	0	988.9	NA	0.0000		9999	5870	0	0	0
2019/11/21 18:13:00	BASE	2.12	322	2.93	316	-2.4	58	-9.4	518	0	988.9	NA	0.0000		9999	5910	0	0	0
2019/11/21 18:14:00	BASE	2.26	320	2.93	316	-2.4	58	-9.4	530	0	988.9	NA	0.0000		9999	5910	0	0	0
2019/11/21 18:15:00	BASE	2.31	317	2.88	325	-2.5	58	-9.6	550	0	988.9	NA	0.0000		9999	5910	0	0	0
2019/11/21 18:16:00	BASE	2.05	312	2.88	325	-2.5	58	-9.6	562	0	988.9	NA	0.0000		9999	6000	0	0	0
2019/11/21 18:17:00	BASE	1.82	312	2.88	325	-2.5	58	-9.6	579	0	988.9	NA	0.0000		9999	6040	22670	0	0
2019/11/21 18:18:00	BASE	2.01	315	2.88	325	-2.4	58	-9.5	600	0	988.9	NA	0.0000		9999	6100	0	0	0
2019/11/21 18:19:00	BASE	2.08	314	2.88	325	-2.5	58	-9.6	596	0	988.9	NA	0.0000		9999	6100	0	0	0
2019/11/21 18:20:00	BASE	1.76	311	2.88	325	-2.4	58	-9.7	614	0	988.9	NA	0.0000		9999	6040	0	0	0
2019/11/21 18:21:00	BASE	1.51	307	2.88	325	-2.4	57	-9.7	624	0	988.9	NA	0.0000		9999	5940	0	0	0
2019/11/21 18:22:00	BASE	1.38	310	2.88	325	-2.4	57	-9.7	707	0	988.9	NA	0.0000		9999	5910	0	0	0
2019/11/21 18:23:00	BASE	1.51	316	2.52	327	-2.3	57	-9.7	739	0	988.9	NA	0.0000		9999	5970	0	0	0
2019/11/21 18:24:00	BASE	1.80	322	2.47	315	-2.3	57	-9.7	710	0	988.9	NA	0.0000		9999	6100	0	0	0
2019/11/21 18:25:00	BASE	2.06	333	2.73	325	-2.3	58	-9.5	655	0	988.9	NA	0.0000		9999	5870	0	0	0
2019/11/21 18:26:00	BASE	2.08	336	2.73	325	-2.3	58	-9.5	656	0	988.9	NA	0.0000		9999	6000	0	0	0
2019/11/21 18:27:00	BASE	1.88	335	2.73	325	-2.3	58	-9.4	931	0	988.9	NA	0.0000		9999	5840	0	0	0
2019/11/21 18:28:00	BASE	1.73	335	2.73	325	-2.2	59	-9.2	475	0	988.9	NA	0.0000		9999	5740	0	0	0
2019/11/21 18:29:00	BASE	1.71	339	2.73	325	-2.1	59	-9.0	489	0	988.9	NA	0.0000		9999	0	0	0	0
2019/11/21 18:30:00	BASE	1.66	347	2.73	325	-2.2	59	-9.1	426	0	988.9	NA	0.0000		9999	5710	0	0	0
2019/11/21 18:31:00	BASE	1.52	341	2.73	325	-2.2	59	-9.1	491	0	989.0	NA	0.0000		9999	5710	0	0	0
2019/11/21 18:32:00	BASE	1.51	339	2.73	325	-2.2	58	-9.3	879	0	989.0	NA	0.0000		9999	5710	0	0	0
2019/11/21 18:33:00	BASE	1.71	345	2.73	325	-2.3	58	-9.5	983	0	989.0	NA	0.0000		9999	5580	0	0	0
2019/11/21 18:34:00	BASE	1.90	342	2.73	325	-2.4	57	-9.7	906	0	989.0	NA	0.0000		9999	5610	0	0	0
2019/11/21 18:35:00	BASE	1.97	335	2.31	333	-2.4	57	-9.7	978	0	989.0	NA	0.0000		9999	5580	0	0	0
2019/11/21 18:36:00	BASE	2.02	330	2.47	323	-2.4	57	-9.7	781	0	989.0	NA	0.0000		9999	5580	0	0	0
2019/11/21 18:37:00	BASE	1.92	322	2.47	323	-2.4	57	-9.7	572	0	989.0	NA	0.0000		9999	5450	0	0	0
2019/11/21 18:38:00	BASE	1.72	315	2.47	323	-2.4	57	-9.7	535	0	989.0	NA	0.0000		9999	5450	0	0	0
2019/11/21 18:39:00	BASE	1.51	314	2.47	323	-2.3	57	-9.7	530	0	989.0	NA	0.0000		9999	5480	0	0	0
2019/11/21 18:40:00	BASE	1.24	309	2.47	323	-2.3	57	-9.7	541	0	989.0	NA	0.0000		9999	5410	0	0	0
2019/11/21 18:41:00	BASE	1.30	309	2.47	323	-2.3	57	-9.7	579	0	989.0	NA	0.0000		9999	5450	0	0	0
2019/11/21 18:42:00	BASE	1.10	311	2.47	323	-2.3	56	-9.8	926	0	989.0	NA	0.0000		9999	5380	0	0	0
2019/11/21 18:43:00	BASE	0.93	307	2.47	323	-2.2	56	-9.8	944	0	989.0	NA	0.0000		9999	5380	0	0	0
2019/11/21 18:44:01	BASE	0.80	312	2.47	323	-2.2	56	-9.8	941	0	989.0	NA	0.0000		9999	5410	22800	0	0
2019/11/21 18:45:00	BASE	0.23	322	2.47	323	-2.1	56	-9.7	787	0	989.0	NA	0.0000		9999	5320	0	0	0
2019/11/21 18:46:00	BASE	0.00	328	2.21	312	-2.1	56	-9.8	693	0	989.0	NA	0.0000		9999	5320	0	0	0
2019/11/21 18:47:00	BASE	0.00	334	1.85	317	-2.2	56	-9.9	873	0	989.0	NA	0.0000		9999	5280	0	0	0
2019/11/21 18:48:00	BASE	0.00	329	1.75	308	-2.1	56	-9.8	733	0	989.1	NA	0.0000		9999	5280	0	0	0
2019/11/21 18:49:00	BASE	0.00	311	1.75	308	-2.1	56	-9.8	737	0	989.1	NA	0.0000		9999	5320	0	0	0
2019/11/21 18:50:00	BASE	0.00	304	1.75	308	-2.1	55	-9.8	762	0	989.1	NA	0.0000		9999	5250	0	0	0
2019/11/21 18:51:00	BASE	0.00	302	1.65	310	-2.1	55	-9.8	822	0	989.0	NA	0.0000		9999	5280	0	0	0
2019/11/21 18:52:00	BASE	0.39	303	1.65	310	-2.0	56	-9.7	745	0	989.0	NA	0.0000		9999	5150	0	0	0
2019/11/21 18:53:00	BASE	1.00	312	1.49	316	-2.0	55	-9.7	707	0	988.9	NA	0.0000		9999	5220	0	0	0
2019/11/21 18:54:00	BASE	0.99	320	1.49	316	-2.0	55	-9.8	726	0	989.0	NA	0.0000		9999	5120	0	0	0
2019/11/21 18:55:00	BASE	0.67	329	1.49	316	-2.1	55	-9.8	920	0	989.0	NA	0.0000		9999	5180	0	0	0
2019/11/21 18:56:00	BASE	0.33	327	1.49	316	-2.1	56	-9.8	673	0	989.0	NA	0.0000		9999	5150	0	0	0
2019/11/21 18:57:00	BASE	0.44	317	1.49	316	-2.1	56	-9.7	917	0	989.0	NA	0.0000		9999	5150	0	0	0
2019/11/21 18:58:00	BASE	0.67	316	1.49	307	-2.0	56	-9.7	666	0	989.0	NA	0.0000		9999	5180	0	0	0
2019/11/21 18:59:00	BASE	0.27	325	1.49	307	-2.0	56	-9.7	822	0	989.0	NA	0.0000		9999	5220	0	0	0
2019/11/21 19:00:00	BASE	0.00	334	1.49	307	-1.9	55	-9.7	793	0	989.0	NA	0.0000		9999	5220	0	0	0
2019/11/21 19:01:00	BASE	0.72	347	1.85	352	-1.8	55	-9.7	726	0	989.0	NA	0.0000		9999	5250	0	0	0
2019/11/21 19:02:00	BASE	1.36	357	1.85	352	-1.9	54	-9.9	840	0	989.0	NA	0.0000		9999	5250	0	0	0
2019/11/21 19:03:00	BASE	1.21	358	1.85	352	-2.0	54	-10.0	1085	0	989.0	NA	0.0000		9999	5250	0	0	0
2019/11/21 19:04:00	BASE	1.06	357	1.85	352	-2.1	55	-10.1	882	0	989.0	NA	0.0000		9999	5250	18340	19720	0
2019/11/21 19:05:00	BASE	0.75	353	1.85	352	-2.3	55	-10.1	676	0	989.0	NA	0.0000		9999	5220	0	0	0
2019/11/21 19:06:00	BASE	0.25	359	1.85	352	-2.4	55	-10.2	683	0	989.0	NA	0.0000		9999	5250	0	0	0
2019/11/21 19:07:00	BASE	0.00	12	1.85	352	-2.5	55	-10.2	853	0	989.0	NA	0.0000		9999	5410	0	0	0
2019/11/21 19:08:00	BASE	0.13	23	1.85	352	-2.5	55	-10.2	647	0	989.0	NA	0.0000		9999	5410	0	0	0
2019/11/21 19:09:00	BASE	0.13	26	1.85	352	-2.5	55	-10.2	705	0	989.1	NA	0.0000		9999	5280	0	0	0
2019/11/21 19:10:00	BASE	0.00	33	1.85	352	-2.4	55	-10.1	647	0	989.0	NA	0.0000		9999	5380	0	0	0
2019/11/21 19:11:00	BASE	0.00	43	1.44	360	-2.3	55	-10.0	590	0	989.0	NA	0.0000		9999	5350	0	0	0
2019/11/21 19:12:00	BASE	0.11	30	1.39	47	-2.2	55	-10.1	538	0	989.0	NA	0.0000		9999	5320	0	0	0
2019/11/21 19:13:00	BASE	0.44	36	1.39	47	-2.1	55	-10.0	532	0	989.1	NA	0.0000		9999	5350	0	0	0
2019/11/21 19:14:00	BASE	1.08	46	1.80	46	-2.0	55	-9.9	518	0	989.1	NA	0.0000		9999	5410	0	0	0
2019/11/21 19:15:00	BASE	1.48	37	1.80	46	-2.0	55	-9.9	514	0	989.1	NA	0.0000		9999	5380	0	0	0
2019/11/21 19:16:00	BASE	1.44	34	1.80	46	-1.9	54	-9.9	517	0	989.1	NA	0.0000		9999	5410	0	0	0
2019/11/21 19:17:00	BASE	1.40	29	1.80	46	-1.8	54	-9.8	531	0	989.1	NA	0.0000		9999	5320	0	0	0
2019/11/21 19:18:00	BASE	1.40	23	1.80	19	-1.9	54	-10.0	532	0	989.1	NA	0.0000		9999	5350	0	0	0
2019/11/21 19:19:00	BASE	1.34	26	1.80	19	-2.0	54	-10.1	530	0	989.1	NA	0.0000		9999	5380	0	0	0
2019/11/21 19:20:00	BASE	0.85	36	1.80	19	-2.0	54	-10.1	538	0	989.1	NA	0.0000		9999	5350	0	0	0
2019/11/21 19:21:00	BASE	0.41	47	1.80	19	-2.1	54	-10.2	580	0	989.1	NA	0.0000		9999	5380	0	0	0
2019/11/21 19:22:00	BASE	0.28	58	1.80	19	-2.1	54	-10.2	558	0	989.1	NA	0.0000		9999	5380	0	0	0
2019/11/21 19:23:00	BASE	0.22	55	1.80	19	-2.0	54	-10.1	544	0	989.1	NA	0.0000		9999	5410	0	0	0
2019/11/21 19:24:00	BASE	0.18	46	1.80	19	-1.9	54	-10.1	530	0	989.1	NA	0.0000		9999	5410	0	0	0
2019/11/21 19:25:00	BASE	0.05	41	1.80	19	-1.9	53	-10.2	532	0	989.1	NA	0.0000		9999	5410	0	0	0
2019/11/21 19:26:00	BASE	0.00	45	1.80	19	-2.0	53	-10.3	542	0	989.1	NA	0.0000		9999	5450	0	0	0
2019/11/21 19:27:00	BASE	0.00	36	1.80	19	-2.0	53	-10.3	520	0	989.1	NA	0.0000		9999	5380	0	0	0
2019/11/21 19:28:00	BASE	0.00	7	1.75	29	-2.0	53	-10.2	528	0	989.1	NA	0.0000		9999	5320	0	0	0
2019/11/21 19:29:00	BASE	0.05	2	1.18	40	-2.1	53	-10.3	516	0	989.1	NA	0.0000		9999	5350	0	0	0
2019/11/21 19:30:00	BASE	0.09	10	1.18	40	-2.0	54	-10.1	502	0	989.1	NA	0.0000		9999	5320	0	0	0
2019/11/21 19:31:00	BASE	0.04	359	1.18	40	-2.0	54	-10.1	489	0	989.1	NA	0.0000		9999	5450	0	0	0
2019/11/21 19:32:00	BASE	0.00	4	1.18	40	-2.1	54	-10.1	481	0	989.1	NA	0.0000		9999	5380	0	0	0
2019/11/21 19:33:00	BASE	0.00	22	1.08	17	-2.1	54	-10.1	477	0	989.1	NA	0.0000		9999	5450	0	0	0
2019/11/21 19:34:00	BASE	0.00	22	1.08	17	-2.0	55	-9.9	468	0	989.1	NA	0.0000		9999	5380	0	0	0
2019/11/21 19:35:00	BASE	0.00	17	1.08	17	-2.0	54	-10.0	465	0	989.1	NA	0.0000		9999	5380	0	0	0
2019/11/21 19:36:00	BASE	0.00	28	1.08	17	-2.0	54	-10.1	460	0	989.1	NA	0.0000		9999	5320	0	0	0
2019/11/21 19:37:00	BASE	0.00	31	1.08	17	-2.0	54	-10.0	459	0	989.1	NA	0.0000		9999	5410	0	0	0
2019/11/21 19:38:00	BASE	0.00	357	1.08	17	-2.0	54	-10.1	468	0	989.1	NA	0.0000		9999	5380	0	0	0
2019/11/21 19:39:00	BASE	0.00	339	1.03	8	-2.1	54	-10.3	455	0	989.1	NA	0.0000		9999	5380	0	0	0
2019/11/21 19:40:00	BASE	0.00	342	M	M	-2.2	54	-10.3	449	0	989.1	NA	0.0000		9999	5450	0	0	0
2019/11/21 19:41:00	BASE	0.00	10	M	M	-2.0	54	-10.2	441	0	989.1	NA	0.0000		9999	5450	0	0	0
2019/11/21 19:42:00	BASE	0.00	46	M	M	-1.9	54	-10.0	437	0	989.1	NA	0.0000		9999	5450	0	0	0
2019/11/21 19:43:00	BASE	0.00	34	M	M	-1.9	54	-10.1	436	0	989.1	NA	0.0000		9999	5380	0	0	0
2019/11/21 19:44:00	BASE	0.00	38	M	M	-1.9	54	-10.0	439	0	989.1	NA	0.0000		9999	5410	0	0	0
2019/11/21 19:45:00	BASE	0.05	95	1.18	142	-1.8	54	-10.0	440	0	989.1	NA	0.0000		9999	5350	0	0	0
2019/11/21 19:46:00	BASE	0.05	119	1.18	142	-1.9	54	-10.1	431	0	989.1	NA	0.0000		9999	5410	22510	0	0
2019/11/21 19:47:00	BASE	0.00	110	1.18	142	-2.0	54	-10.2	446	0	989.1	NA	0.0000		9999	5350	0	0	0
2019/11/21 19:48:00	BASE	0.00	111	1.18	142	-2.0	54	-10.1	437	0	989.2	NA	0.0000		9999	5510	0	0	0
2019/11/21 19:49:00	BASE	0.26	122	1.34	130	-1.9	55	-9.9	422	0	989.2	NA	0.0000		9999	5610	0	0	0
2019/11/21 19:50:00	BASE	0.91	127	1.44	119	-1.9	55	-9.8	423	0	989.2	NA	0.0000		9999	5580	0	0	0
2019/11/21 19:51:00	BASE	1.30	117	1.44	119	-2.0	55	-9.8	416	0	989.2	NA	0.0000		9999	5480	0	0	0
2019/11/21 19:52:00	BASE	1.16	108	1.44	119	-2.1	55	-9.8	437	0	989.2	NA	0.0000		9999	5410	19650	0	0
2019/11/21 19:53:00	BASE	0.84	102	1.44	119	-2.2	55	-10.0	483	0	989.2	NA	0.0000		9999	5510	0	0	0
2019/11/21 19:54:00	BASE	0.51	104	1.44	119	-2.3	55	-10.1	426	0	989.2	NA	0.0000		9999	5480	0	0	0
2019/11/21 19:55:00	BASE	0.34	113	1.44	119	-2.3	55	-10.2	416	0	989.2	NA	0.0000		9999	5480	0	0	0
2019/11/21 19:56:00	BASE	1.06	135	1.95	147	-2.3	55	-10.2	407	0	989.2	NA	0.0000		9999	5510	0	0	0
2019/11/21 19:57:00	BASE	1.24	150	1.95	147	-2.3	55	-10.1	378	0	989.2	NA	0.0000		9999	5480	0	0	0
2019/11/21 19:58:00	BASE	1.08	156	1.95	147	-2.3	55	-10.0	368	0	989.2	NA	0.0000		9999	5540	0	0	0
2019/11/21 19:59:00	BASE	1.47	160	1.95	147	-2.3	56	-10.0	425	0	989.2	NA	0.0000		9999	5540	20380	0	0
2019/11/21 20:00:00	BASE	1.54	156	1.95	147	-2.3	56	-10.0	413	0	989.2	NA	0.0000		9999	5510	0	0	0
2019/11/21 20:01:00	BASE	1.57	152	1.95	136	-2.4	56	-10.0	436	0	989.2	NA	0.0000		9999	5580	0	0	0
2019/11/21 20:02:00	BASE	1.47	151	1.95	136	-2.4	55	-10.1	496	0	989.2	NA	0.0000		9999	5710	0	0	0
2019/11/21 20:03:00	BASE	1.01	148	1.95	136	-2.4	55	-10.1	536	0	989.2	NA	0.0000		9999	5740	0	0	0
2019/11/21 20:04:00	BASE	1.03	145	1.95	136	-2.3	55	-10.1	492	0	989.2	NA	0.0000		9999	5640	0	0	0
2019/11/21 20:05:00	BASE	1.48	147	1.95	136	-2.3	55	-10.0	481	0	989.2	NA	0.0000		9999	5610	0	0	0
2019/11/21 20:06:00	BASE	1.48	155	1.95	136	-2.3	56	-10.0	616	0	989.2	NA	0.0000		9999	5580	0	0	0
2019/11/21 20:07:00	BASE	1.38	169	1.95	136	-2.3	56	-9.9	601	0	989.2	NA	0.0000		9999	5640	0	0	0
2019/11/21 20:08:00	BASE	1.31	169	1.95	136	-2.2	56	-9.8	497	0	989.2	NA	0.0000		9999	5540	0	0	0
2019/11/21 20:09:00	BASE	1.23	161	1.95	136	-2.2	56	-9.8	465	0	989.2	NA	0.0000		9999	5510	0	0	0
2019/11/21 20:10:00	BASE	1.12	147	1.95	136	-2.2	56	-9.7	483	0	989.2	NA	0.0000		9999	5540	0	0	0
2019/11/21 20:11:00	BASE	1.52	135	2.06	140	-2.2	56	-9.7	498	0	989.2	NA	0.0000		9999	5540	0	0	0
2019/11/21 20:12:00	BASE	1.70	133	2.06	132	-2.2	56	-9.7	491	0	989.3	NA	0.0000		9999	5580	0	0	0
2019/11/21 20:13:00	BASE	1.40	132	2.06	132	-2.3	56	-9.8	493	0	989.3	NA	0.0000		9999	5480	0	0	0
2019/11/21 20:14:00	BASE	1.38	127	2.06	132	-2.3	56	-9.9	489	0	989.3	NA	0.0000		9999	5580	0	0	0
2019/11/21 20:15:00	BASE	1.35	121	2.06	132	-2.3	56	-10.0	442	0	989.3	NA	0.0000		9999	5480	0	0	0
2019/11/21 20:16:00	BASE	1.26	117	2.06	132	-2.4	55	-10.1	413	0	989.3	NA	0.0000		9999	5450	0	0	0
2019/11/21 20:17:00	BASE	1.31	115	2.06	132	-2.4	55	-10.2	404	0	989.4	NA	0.0000		9999	5510	0	0	0
2019/11/21 20:18:00	BASE	1.49	122	2.06	132	-2.4	55	-10.2	405	0	989.4	NA	0.0000		9999	5610	0	0	0
2019/11/21 20:19:00	BASE	1.74	132	2.26	134	-2.4	55	-10.3	388	0	989.4	NA	0.0000		9999	5480	0	0	0
2019/11/21 20:20:00	BASE	1.90	135	2.31	139	-2.4	55	-10.2	377	0	989.4	NA	0.0000		9999	5480	0	0	0
2019/11/21 20:21:00	BASE	1.80	135	2.31	139	-2.4	55	-10.2	379	0	989.4	NA	0.0000		9999	5580	0	0	0
2019/11/21 20:22:00	BASE	1.69	138	2.31	139	-2.5	56	-10.1	377	0	989.4	NA	0.0000		9999	5640	0	0	0
2019/11/21 20:23:00	BASE	1.64	139	2.31	139	-2.5	56	-10.0	390	0	989.4	NA	0.0000		9999	5610	0	0	0
2019/11/21 20:24:00	BASE	1.42	138	2.31	139	-2.5	56	-10.0	383	0	989.4	NA	0.0000		9999	5610	0	0	0
2019/11/21 20:25:00	BASE	1.34	135	2.31	139	-2.4	56	-10.0	382	0	989.4	NA	0.0000		9999	5680	0	0	0
2019/11/21 20:26:00	BASE	1.66	130	2.31	139	-2.4	56	-10.0	396	0	989.4	NA	0.0000		9999	5580	0	0	0
2019/11/21 20:27:00	BASE	1.76	130	2.31	139	-2.4	56	-9.9	408	0	989.4	NA	0.0000		9999	5610	0	0	0
2019/11/21 20:28:00	BASE	1.69	129	2.31	139	-2.4	57	-9.8	381	0	989.4	NA	0.0000		9999	5610	0	0	0
2019/11/21 20:29:00	BASE	1.63	129	2.31	139	-2.4	57	-9.8	356	0	989.4	NA	0.0000		9999	5610	0	0	0
2019/11/21 20:30:00	BASE	1.43	134	2.16	126	-2.4	57	-9.8	356	0	989.5	NA	0.0000		9999	5540	0	0	0
2019/11/21 20:31:00	BASE	1.26	127	2.16	126	-2.4	57	-9.8	370	0	989.4	NA	0.0000		9999	5580	0	0	0
2019/11/21 20:32:00	BASE	1.27	127	2.16	126	-2.5	57	-9.9	371	0	989.4	NA	0.0000		9999	5480	0	0	0
2019/11/21 20:33:00	BASE	1.44	141	2.16	126	-2.5	56	-10.0	374	0	989.5	NA	0.0000		9999	5410	0	0	0
2019/11/21 20:34:00	BASE	1.49	150	2.16	126	-2.5	56	-10.0	392	0	989.5	NA	0.0000		9999	5410	0	0	0
2019/11/21 20:35:00	BASE	1.66	144	2.16	126	-2.4	56	-9.9	414	0	989.5	NA	0.0000		9999	5450	0	0	0
2019/11/21 20:36:00	BASE	1.91	138	2.21	141	-2.4	57	-9.9	363	0	989.5	NA	0.0000		9999	5480	0	0	0
2019/11/21 20:37:00	BASE	1.80	139	2.21	141	-2.4	57	-9.9	334	0	989.6	NA	0.0000		9999	5480	0	0	0
2019/11/21 20:38:00	BASE	1.84	139	2.42	141	-2.4	57	-9.9	400	0	989.5	NA	0.0000		9999	5450	0	0	0
2019/11/21 20:39:00	BASE	2.15	140	2.47	143	-2.5	56	-10.0	556	0	989.5	NA	0.0000		9999	5540	0	0	0
2019/11/21 20:40:00	BASE	2.17	140	2.47	143	-2.5	56	-10.0	657	0	989.5	NA	0.0000		9999	5580	0	0	0
2019/11/21 20:41:00	BASE	2.17	139	2.52	137	-2.5	56	-10.1	543	0	989.5	NA	0.0000		9999	5680	0	0	0
2019/11/21 20:42:00	BASE	2.14	138	2.52	137	-2.5	56	-10.1	409	0	989.5	NA	0.0000		9999	5610	0	0	0
2019/11/21 20:43:00	BASE	2.04	138	2.52	137	-2.5	56	-10.1	478	0	989.5	NA	0.0000		9999	5540	0	0	0
2019/11/21 20:44:00	BASE	2.05	139	2.52	137	-2.5	56	-10.1	555	0	989.5	NA	0.0000		9999	0	0	0	0
2019/11/21 20:45:00	BASE	2.16	140	2.52	137	-2.5	56	-10.1	527	0	989.5	NA	0.0000		9999	0	0	0	0
2019/11/21 20:46:00	BASE	2.20	141	2.52	137	-2.5	56	-10.1	508	0	989.5	NA	0.0000		9999	0	0	0	0
2019/11/21 20:47:00	BASE	2.11	141	2.52	137	-2.5	56	-10.1	496	0	989.5	NA	0.0000		9999	0	0	0	0
2019/11/21 20:48:00	BASE	2.02	142	2.52	137	-2.5	56	-10.0	487	0	989.5	NA	0.0000		9999	0	0	0	0
2019/11/21 20:49:00	BASE	1.99	143	2.52	137	-2.5	56	-10.0	481	0	989.5	NA	0.0000		9999	0	0	0	0
2019/11/21 20:50:00	BASE	2.09	140	2.52	137	-2.5	57	-9.9	477	0	989.5	NA	0.0000		9999	0	0	0	0
2019/11/21 20:51:00	BASE	2.09	137	2.47	138	-2.5	57	-9.8	474	0	989.5	NA	0.0000		9999	0	0	0	0
2019/11/21 20:52:00	BASE	2.11	138	2.47	138	-2.4	58	-9.7	471	0	989.6	NA	0.0000		9999	0	0	0	0
2019/11/21 20:53:00	BASE	2.23	140	2.47	138	-2.4	58	-9.5	469	0	989.6	NA	0.0000		9999	0	0	0	0
2019/11/21 20:54:00	BASE	2.31	139	2.62	135	-2.5	59	-9.5	466	0	989.6	NA	0.0000		9999	0	0	0	0
2019/11/21 20:55:00	BASE	2.32	138	2.62	135	-2.5	59	-9.5	463	0	989.5	NA	0.0000		9999	0	0	0	0
2019/11/21 20:56:00	BASE	2.35	139	2.62	141	-2.5	59	-9.4	461	0	989.5	NA	0.0000		9999	0	0	0	0
2019/11/21 20:57:00	BASE	2.29	140	2.62	141	-2.5	60	-9.3	459	0	989.6	NA	0.0000		9999	0	0	0	0
2019/11/21 20:58:00	BASE	2.15	141	2.62	141	-2.5	61	-9.1	456	0	989.6	NA	0.0000		9999	0	0	0	0
2019/11/21 20:59:00	BASE	2.18	141	2.62	141	-2.5	62	-8.8	454	0	989.6	NA	0.0000		9999	0	0	0	0
2019/11/21 21:00:00	BASE	2.25	139	2.62	141	-2.5	63	-8.5	451	0	989.6	NA	0.0000		9999	0	0	0	0
2019/11/21 21:01:00	BASE	2.31	132	2.62	124	-2.5	65	-8.2	449	0	989.6	NA	0.0000		9999	0	0	0	0
2019/11/21 21:02:00	BASE	2.41	125	2.73	119	-2.6	66	-8.1	447	0	989.6	NA	0.0000		9999	0	0	0	0
2019/11/21 21:03:00	BASE	2.40	123	2.73	119	-2.6	66	-8.0	444	0	989.6	NA	0.0000		9999	0	0	0	0
2019/11/21 21:04:00	BASE	2.18	123	2.73	119	-2.6	67	-7.9	442	0	989.6	NA	0.0000		9999	0	0	0	0
2019/11/21 21:05:00	BASE	2.02	125	2.73	119	-2.6	67	-7.9	440	0	989.6	NA	0.0000		9999	0	0	0	0
2019/11/21 21:06:00	BASE	2.00	129	2.73	119	-2.7	67	-7.9	437	0	989.6	NA	0.0000		9999	0	0	0	0
2019/11/21 21:07:00	BASE	2.10	129	2.73	119	-2.7	68	-7.8	435	0	989.6	NA	0.0000		9999	0	0	0	0
2019/11/21 21:08:00	BASE	2.23	129	2.73	119	-2.7	68	-7.8	433	0	989.6	NA	0.0000		9999	0	0	0	0
2019/11/21 21:09:00	BASE	2.23	127	2.73	119	-2.7	68	-7.8	431	0	989.6	NA	0.0000		9999	0	0	0	0
2019/11/21 21:10:00	BASE	2.27	126	2.73	119	-2.7	67	-7.9	429	0	989.6	NA	0.0000		9999	0	0	0	0
2019/11/21 21:11:00	BASE	2.43	129	2.78	127	-2.7	67	-7.9	427	0	989.5	NA	0.0000		9999	0	0	0	0
2019/11/21 21:12:00	BASE	2.58	129	2.88	127	-2.7	67	-8.0	425	0	989.5	NA	0.0000		9999	0	0	0	0
2019/11/21 21:13:00	BASE	2.64	128	2.98	127	-2.7	67	-8.0	422	0	989.5	NA	0.0000		9999	0	0	0	0
2019/11/21 21:14:00	BASE	2.64	129	2.98	127	-2.7	67	-8.0	420	0	989.5	NA	0.0000		9999	0	0	0	0
2019/11/21 21:15:00	BASE	2.72	129	2.98	133	-2.7	67	-7.9	418	0	989.5	NA	0.0000		9999	0	0	0	0
2019/11/21 21:16:00	BASE	2.74	131	2.98	133	-2.7	68	-7.9	416	0	989.5	NA	0.0000		9999	0	0	0	0
2019/11/21 21:17:00	BASE	2.75	131	3.19	130	-2.7	68	-7.8	414	0	989.4	NA	0.0000		9999	0	0	0	0
2019/11/21 21:18:00	BASE	2.87	132	3.29	139	-2.7	69	-7.6	412	0	989.4	NA	0.0000		9999	0	0	0	0
2019/11/21 21:19:00	BASE	2.99	138	3.29	139	-2.7	70	-7.4	409	0	989.4	NA	0.0000		9999	0	0	0	0
2019/11/21 21:20:00	BASE	3.05	138	3.29	139	-2.7	71	-7.2	407	0	989.4	NA	0.0000		9999	0	0	0	0
2019/11/21 21:21:00	BASE	3.01	139	3.40	147	-2.7	72	-7.1	405	0	989.4	NA	0.0000		9999	0	0	0	0
2019/11/21 21:22:00	BASE	2.93	139	3.40	147	-2.7	72	-7.0	403	0	989.3	NA	0.0000		9999	0	0	0	0
2019/11/21 21:23:00	BASE	2.82	139	3.40	147	-2.7	73	-6.9	402	0	989.4	NA	0.0000		9999	0	0	0	0
2019/11/21 21:24:00	BASE	2.91	139	3.40	147	-2.7	73	-6.9	399	0	989.4	NA	0.0000		9999	0	0	0	0
2019/11/21 21:25:00	BASE	2.86	133	3.40	147	-2.7	73	-7.0	398	0	989.4	NA	0.0000		9999	0	0	0	0
2019/11/21 21:26:00	BASE	3.02	129	3.65	130	-2.7	72	-7.0	395	0	989.3	NA	0.0000		9999	0	0	0	0
2019/11/21 21:27:00	BASE	3.52	127	3.91	126	-2.7	72	-7.1	393	0	989.4	NA	0.0000		9999	0	0	0	0
2019/11/21 21:28:00	BASE	3.65	127	3.91	126	-2.8	71	-7.2	391	0	989.4	NA	0.0000		9999	0	0	0	0
2019/11/21 21:29:00	BASE	3.68	129	3.96	129	-2.8	71	-7.4	389	0	989.4	NA	0.0000		9999	0	0	0	0
2019/11/21 21:30:00	BASE	3.69	129	3.96	129	-2.8	70	-7.6	387	0	989.4	NA	0.0000		9999	0	0	0	0
2019/11/21 21:31:00	BASE	3.64	128	3.96	129	-2.8	69	-7.7	385	0	989.4	NA	0.0000		9999	0	0	0	0
2019/11/21 21:32:00	BASE	3.42	126	3.96	129	-2.8	68	-7.8	383	0	989.4	NA	0.0000		9999	0	0	0	0
2019/11/21 21:33:00	BASE	3.20	125	3.96	129	-2.8	68	-7.8	381	0	989.4	NA	0.0000		9999	0	0	0	0
2019/11/21 21:34:00	BASE	3.08	126	3.96	129	-2.8	68	-7.8	379	0	989.4	NA	0.0000		9999	0	0	0	0
2019/11/21 21:35:00	BASE	2.95	125	3.96	129	-2.8	69	-7.8	377	0	989.4	NA	0.0000		9999	0	0	0	0
2019/11/21 21:36:00	BASE	3.12	126	3.96	129	-2.8	69	-7.7	374	0	989.4	NA	0.0000		9999	0	0	0	0
2019/11/21 21:37:00	BASE	3.12	128	3.96	129	-2.8	69	-7.6	373	0	989.4	NA	0.0000		9999	0	0	0	0
2019/11/21 21:38:00	BASE	2.92	127	3.96	129	-2.8	70	-7.6	370	0	989.4	NA	0.0000		9999	0	0	0	0
2019/11/21 21:39:00	BASE	3.00	125	3.91	130	-2.8	70	-7.5	368	0	989.4	NA	0.0000		9999	0	0	0	0
2019/11/21 21:40:00	BASE	3.08	126	3.76	115	-2.8	71	-7.4	366	0	989.4	NA	0.0000		9999	0	0	0	0
2019/11/21 21:41:00	BASE	3.11	130	3.70	133	-2.8	71	-7.3	364	0	989.4	NA	0.0000		9999	0	0	0	0
2019/11/21 21:42:00	BASE	3.29	129	4.12	125	-2.8	72	-7.2	362	0	989.4	NA	0.0000		9999	0	0	0	0
2019/11/21 21:43:00	BASE	3.28	128	4.12	125	-2.8	72	-7.1	360	0	989.4	NA	0.0000		9999	0	0	0	0
2019/11/21 21:44:00	BASE	3.10	129	4.12	125	-2.8	73	-7.0	357	0	989.4	NA	0.0000		9999	0	0	0	0
2019/11/21 21:45:00	BASE	3.19	129	4.12	125	-2.8	73	-7.0	355	0	989.4	NA	0.0000		9999	0	0	0	0
2019/11/21 21:46:00	BASE	3.36	129	4.12	125	-2.8	73	-7.0	353	0	989.4	NA	0.0000		9999	0	0	0	0
2019/11/21 21:47:00	BASE	3.56	129	4.12	125	-2.8	72	-7.1	351	0	989.4	NA	0.0000		9999	0	0	0	0
2019/11/21 21:48:00	BASE	3.55	127	4.12	125	-2.8	72	-7.2	349	0	989.4	NA	0.0000		9999	0	0	0	0
2019/11/21 21:49:00	BASE	3.39	124	4.32	127	-2.8	71	-7.3	347	0	989.4	NA	0.0000		9999	0	0	0	0
2019/11/21 21:50:00	BASE	3.47	121	4.32	127	-2.8	70	-7.6	345	0	989.4	NA	0.0000		9999	0	0	0	0
2019/11/21 21:51:00	BASE	3.46	122	4.32	127	-2.8	69	-7.8	343	0	989.4	NA	0.0000		9999	0	0	0	0
2019/11/21 21:52:00	BASE	3.33	124	4.32	127	-2.8	68	-8.0	341	0	989.4	NA	0.0000		9999	0	0	0	0
2019/11/21 21:53:00	BASE	3.27	125	4.32	127	-2.8	67	-8.1	338	0	989.4	NA	0.0000		9999	0	0	0	0
2019/11/21 21:54:01	BASE	3.32	127	4.32	127	-2.8	67	-8.2	336	0	989.4	NA	0.0000		9999	0	0	0	0
2019/11/21 21:55:00	BASE	3.43	126	4.32	127	-2.8	67	-8.2	334	0	989.4	NA	0.0000		9999	0	0	0	0
2019/11/21 21:56:00	BASE	3.43	127	4.32	127	-2.8	67	-8.1	333	0	989.4	NA	0.0000		9999	0	0	0	0
2019/11/21 21:57:00	BASE	3.42	129	4.32	127	-2.8	67	-8.1	331	0	989.4	NA	0.0000		9999	0	0	0	0
2019/11/21 21:58:00	BASE	3.58	130	4.32	127	-2.8	67	-8.1	329	0	989.4	NA	0.0000		9999	0	0	0	0
2019/11/21 21:59:00	BASE	3.70	130	4.12	126	-2.8	67	-8.1	327	0	989.4	NA	0.0000		9999	0	0	0	0
2019/11/21 22:00:00	BASE	3.58	128	4.12	126	-2.8	67	-8.1	326	0	989.4	NA	0.0000		9999	0	0	0	0
2019/11/21 22:01:00	BASE	3.49	128	4.12	126	-2.8	67	-8.1	324	0	989.4	NA	0.0000		9999	0	0	0	0
2019/11/21 22:02:00	BASE	3.70	128	4.22	129	-2.8	67	-8.0	322	0	989.4	NA	0.0000		9999	0	0	0	0
2019/11/21 22:03:00	BASE	3.77	130	4.22	129	-2.8	67	-8.0	321	0	989.4	NA	0.0000		9999	0	0	0	0
2019/11/21 22:04:00	BASE	3.76	131	4.22	129	-2.8	68	-8.0	318	0	989.4	NA	0.0000		9999	0	0	0	0
2019/11/21 22:05:00	BASE	3.96	130	4.27	130	-2.8	68	-7.9	316	0	989.4	NA	0.0000		9999	0	0	0	0
2019/11/21 22:06:00	BASE	3.88	129	4.27	130	-2.8	68	-7.9	313	0	989.4	NA	0.0000		9999	0	0	0	0
2019/11/21 22:07:00	BASE	3.67	127	4.27	130	-2.8	68	-7.9	311	0	989.4	NA	0.0000		9999	0	0	0	0
2019/11/21 22:08:00	BASE	3.53	126	4.27	130	-2.8	68	-7.8	308	0	989.4	NA	0.0000		9999	0	0	0	0
2019/11/21 22:09:00	BASE	3.61	127	4.27	130	-2.8	69	-7.8	306	0	989.5	NA	0.0000		9999	0	0	0	0
2019/11/21 22:10:00	BASE	3.76	128	4.27	130	-2.8	69	-7.7	304	0	989.5	NA	0.0000		9999	0	0	0	0
2019/11/21 22:11:00	BASE	3.74	127	4.27	130	-2.8	69	-7.6	302	0	989.4	NA	0.0000		9999	0	0	0	0
2019/11/21 22:12:00	BASE	3.71	127	4.27	130	-2.8	70	-7.6	300	0	989.4	NA	0.0000		9999	0	0	0	0
2019/11/21 22:13:00	BASE	3.72	128	4.27	130	-2.8	70	-7.5	299	0	989.4	NA	0.0000		9999	0	0	0	0
2019/11/21 22:14:00	BASE	3.61	128	4.27	130	-2.9	70	-7.5	297	0	989.4	NA	0.0000		9999	0	0	0	0
2019/11/21 22:15:00	BASE	3.46	127	4.12	125	-2.9	71	-7.5	295	0	989.4	NA	0.0000		9999	0	0	0	0
2019/11/21 22:16:00	BASE	3.41	127	4.12	125	-2.9	71	-7.4	293	0	989.4	NA	0.0000		9999	0	0	0	0
2019/11/21 22:17:00	BASE	3.28	126	4.12	125	-2.9	72	-7.3	292	0	989.4	NA	0.0000		9999	0	0	0	0
2019/11/21 22:18:00	BASE	3.09	126	4.12	125	-2.9	72	-7.2	290	0	989.4	NA	0.0000		9999	0	0	0	0
2019/11/21 22:19:00	BASE	3.08	126	4.12	125	-2.9	72	-7.2	289	0	989.5	NA	0.0000		9999	0	0	0	0
2019/11/21 22:20:00	BASE	3.18	127	4.12	125	-2.9	73	-7.1	288	0	989.5	NA	0.0000		9999	0	0	0	0
2019/11/21 22:21:00	BASE	3.00	126	4.01	124	-2.9	73	-7.1	287	0	989.5	NA	0.0000		9999	0	0	0	0
2019/11/21 22:22:00	BASE	3.03	126	4.01	124	-2.9	73	-7.1	289	0	989.5	NA	0.0000		9999	0	0	0	0
2019/11/21 22:23:00	BASE	3.20	127	3.81	123	-2.9	73	-7.1	272	0	989.5	NA	0.0000		9999	0	0	0	0
2019/11/21 22:24:00	BASE	3.02	128	3.81	123	-2.9	73	-7.1	263	0	989.5	NA	0.0000		9999	0	0	0	0
2019/11/21 22:25:00	BASE	3.11	128	3.70	130	-2.9	73	-7.1	227	0	989.5	NA	0.0000		9999	0	0	0	0
2019/11/21 22:26:00	BASE	3.37	129	3.91	126	-2.9	73	-7.1	267	0	989.5	NA	0.0000		9999	0	0	0	0
2019/11/21 22:27:00	BASE	3.32	129	3.91	126	-2.9	73	-7.1	223	0	989.5	NA	0.0000		9999	0	0	0	0
2019/11/21 22:28:00	BASE	3.04	128	3.91	126	-3.0	73	-7.1	236	0	989.5	NA	0.0000		9999	0	0	0	0
2019/11/21 22:29:00	BASE	3.11	128	3.91	126	-3.0	73	-7.1	216	0	989.5	NA	0.0000		9999	0	0	0	0
2019/11/21 22:30:00	BASE	3.38	129	3.91	126	-3.0	73	-7.2	245	0	989.5	NA	0.0000		9999	0	0	0	0
2019/11/21 22:31:00	BASE	3.26	129	3.91	126	-3.0	73	-7.2	140	0	989.5	NA	0.0000		9999	0	0	0	0
2019/11/21 22:32:00	BASE	3.01	131	3.91	126	-3.0	73	-7.2	104	0	989.5	NA	0.0000		9999	0	0	0	0
2019/11/21 22:33:00	BASE	2.66	131	3.91	126	-3.0	73	-7.2	119	0	989.6	NA	0.0000		9999	0	0	0	0
2019/11/21 22:34:00	BASE	2.55	130	3.91	126	-3.0	73	-7.2	127	0	989.6	NA	0.0000		9999	0	0	0	0
2019/11/21 22:35:00	BASE	2.62	126	3.91	126	-3.0	73	-7.1	92	0	989.6	NA	0.0000		9999	0	0	0	0
2019/11/21 22:36:00	BASE	2.41	125	3.65	130	-3.0	74	-7.0	99	0	989.6	NA	0.0000		9999	0	0	0	0
2019/11/21 22:37:00	BASE	2.18	129	3.65	130	-3.1	75	-6.9	98	0	989.7	NA	0.0000		9999	0	0	0	0
2019/11/21 22:38:00	BASE	2.02	129	3.65	130	-3.1	76	-6.7	100	0	989.7	NA	0.0000		9999	0	0	0	0
2019/11/21 22:39:00	BASE	1.74	128	3.65	130	-3.1	77	-6.6	111	0	989.7	NA	0.0000		9999	0	0	0	0
2019/11/21 22:40:00	BASE	1.87	125	3.45	130	-3.2	78	-6.5	110	0	989.7	NA	0.0000		9999	0	0	0	0
2019/11/21 22:41:00	BASE	2.05	126	3.24	129	-3.2	79	-6.4	111	0	989.7	NA	0.0000		9999	0	0	0	0
2019/11/21 22:42:00	BASE	2.02	131	3.04	125	-3.2	79	-6.3	109	0	989.7	NA	0.0000		9999	0	0	0	0
2019/11/21 22:43:00	BASE	1.99	133	3.04	125	-3.3	80	-6.2	120	0	989.7	NA	0.0000		9999	0	0	0	0
2019/11/21 22:44:00	BASE	1.89	133	2.88	116	-3.3	81	-6.2	117	0	989.7	NA	0.0000		9999	0	0	0	0
2019/11/21 22:45:00	BASE	1.72	130	2.62	130	-3.3	81	-6.1	118	0	989.7	NA	0.0000		9999	11250	0	0	0
2019/11/21 22:46:00	BASE	1.63	124	2.42	134	-3.4	82	-6.1	124	0	989.7	NA	0.0000		9999	11290	0	0	0
2019/11/21 22:47:00	BASE	1.70	118	2.37	124	-3.4	82	-6.0	132	0	989.7	NA	0.0000		9999	11290	0	0	0
2019/11/21 22:48:00	BASE	1.79	114	2.37	124	-3.4	82	-6.0	114	0	989.7	NA	0.0000		9999	11250	0	0	0
2019/11/21 22:49:00	BASE	2.03	112	2.42	114	-3.4	83	-6.0	107	0	989.6	NA	0.0000		9999	11220	0	0	0
2019/11/21 22:50:00	BASE	2.40	112	2.78	114	-3.5	83	-5.9	103	0	989.6	NA	0.0000		9999	11250	0	0	0
2019/11/21 22:51:00	BASE	2.64	111	2.78	114	-3.5	83	-6.0	101	0	989.6	NA	0.0000		9999	11220	0	0	0
2019/11/21 22:52:00	BASE	2.59	107	2.78	114	-3.5	83	-6.0	99	0	989.6	NA	0.0000		9999	11250	0	0	0
2019/11/21 22:53:00	BASE	2.50	102	2.78	114	-3.5	83	-6.0	94	0	989.7	NA	0.0000		9999	11250	0	0	0
2019/11/21 22:54:00	BASE	2.46	95	2.78	114	-3.5	83	-6.0	90	0	989.7	NA	0.0000		9999	11320	0	0	0
2019/11/21 22:55:00	BASE	2.21	80	2.78	114	-3.5	83	-6.0	86	0	989.7	NA	0.0000		9999	11250	0	0	0
2019/11/21 22:56:00	BASE	2.05	64	2.78	114	-3.5	83	-5.9	83	0	989.7	NA	0.0000		9999	11320	0	0	0
2019/11/21 22:57:00	BASE	1.88	64	2.78	114	-3.4	83	-5.8	82	0	989.7	NA	0.0000		9999	11290	0	0	0
2019/11/21 22:58:00	BASE	1.37	79	2.78	114	-3.3	83	-5.8	83	0	989.6	NA	0.0000		9999	11320	0	0	0
2019/11/21 22:59:00	BASE	1.54	93	2.78	99	-3.3	83	-5.8	83	0	989.6	NA	0.0000		9999	0	0	0	0
2019/11/21 23:00:00	BASE	2.19	104	2.78	99	-3.3	83	-5.8	84	0	989.6	NA	0.0000		9999	11350	0	0	0
2019/11/21 23:01:00	BASE	2.24	118	2.78	99	-3.3	82	-6.0	86	0	989.6	NA	0.0000		9999	11350	0	0	0
2019/11/21 23:02:00	BASE	1.94	123	2.78	99	-3.4	81	-6.1	87	0	989.6	NA	0.0000		9999	11350	0	0	0
2019/11/21 23:03:00	BASE	1.71	119	2.78	99	-3.5	81	-6.3	87	0	989.6	NA	0.0000		9999	11390	0	0	0
2019/11/21 23:04:00	BASE	1.69	121	2.78	99	-3.5	80	-6.4	88	0	989.6	NA	0.0000		9999	11390	0	0	0
2019/11/21 23:05:00	BASE	1.82	121	2.78	99	-3.5	80	-6.5	90	0	989.6	NA	0.0000		9999	11350	0	0	0
2019/11/21 23:06:00	BASE	2.12	113	2.78	99	-3.5	79	-6.5	92	0	989.6	NA	0.0000		9999	11290	0	0	0
2019/11/21 23:07:00	BASE	2.33	105	2.78	99	-3.5	79	-6.6	93	0	989.5	NA	0.0000		9999	11350	0	0	0
2019/11/21 23:08:00	BASE	2.29	106	2.78	99	-3.5	79	-6.6	94	0	989.5	NA	0.0000		9999	11350	0	0	0
2019/11/21 23:09:00	BASE	2.12	106	2.73	107	-3.5	79	-6.6	94	0	989.5	NA	0.0000		9999	11350	0	0	0
2019/11/21 23:10:00	BASE	1.91	107	2.73	107	-3.5	79	-6.6	94	0	989.5	NA	0.0000		9999	11350	0	0	0
2019/11/21 23:11:00	BASE	1.77	105	2.73	107	-3.5	79	-6.5	94	0	989.5	NA	0.0000		9999	11350	0	0	0
2019/11/21 23:12:00	BASE	1.73	100	2.73	107	-3.5	80	-6.5	94	0	989.5	NA	0.0000		9999	11350	0	0	0
2019/11/21 23:13:00	BASE	2.13	101	2.73	107	-3.5	80	-6.4	94	0	989.5	NA	0.0000		9999	11350	0	0	0
2019/11/21 23:14:00	BASE	2.32	97	2.73	92	-3.5	80	-6.5	93	0	989.5	NA	0.0000		9999	11320	0	0	0
2019/11/21 23:15:00	BASE	1.77	101	2.73	92	-3.5	80	-6.5	92	0	989.5	NA	0.0000		9999	11290	0	0	0
2019/11/21 23:16:00	BASE	1.20	87	2.73	92	-3.5	79	-6.5	91	0	989.5	NA	0.0000		9999	11320	0	0	0
2019/11/21 23:17:00	BASE	0.77	65	2.73	92	-3.4	79	-6.6	90	0	989.5	NA	0.0000		9999	11350	0	0	0
2019/11/21 23:18:00	BASE	0.99	60	2.73	92	-3.4	78	-6.6	88	0	989.5	NA	0.0000		9999	11320	0	0	0
2019/11/21 23:19:00	BASE	1.40	51	2.73	92	-3.3	78	-6.7	87	0	989.5	NA	0.0000		9999	11320	0	0	0
2019/11/21 23:20:00	BASE	1.08	42	2.73	92	-3.2	77	-6.7	86	0	989.5	NA	0.0000		9999	11390	0	0	0
2019/11/21 23:21:00	BASE	0.59	27	2.73	92	-3.2	76	-6.8	85	0	989.4	NA	0.0000		9999	11390	0	0	0
2019/11/21 23:22:00	BASE	0.22	17	2.73	92	-3.2	75	-7.0	83	0	989.4	NA	0.0000		9999	11390	0	0	0
2019/11/21 23:23:00	BASE	0.04	17	2.73	92	-3.2	75	-7.0	82	0	989.4	NA	0.0000		9999	11390	0	0	0
2019/11/21 23:24:00	BASE	0.05	10	1.65	54	-3.2	75	-7.1	82	0	989.4	NA	0.0000		9999	11350	0	0	0
2019/11/21 23:25:00	BASE	0.09	357	1.65	54	-3.3	74	-7.2	81	0	989.5	NA	0.0000		9999	11420	0	0	0
2019/11/21 23:26:00	BASE	0.04	356	1.65	54	-3.3	74	-7.3	80	0	989.5	NA	0.0000		9999	11390	0	0	0
2019/11/21 23:27:00	BASE	0.00	346	1.65	54	-3.3	74	-7.3	79	0	989.5	NA	0.0000		9999	11390	0	0	0
2019/11/21 23:28:00	BASE	0.74	337	1.70	340	-3.3	73	-7.4	78	0	989.5	NA	0.0000		9999	11290	0	0	0
2019/11/21 23:29:00	BASE	1.37	341	1.75	316	-3.3	73	-7.5	77	0	989.5	NA	0.0000		9999	11320	0	0	0
2019/11/21 23:30:00	BASE	1.31	344	1.75	316	-3.3	73	-7.5	76	0	989.5	NA	0.0000		9999	11250	0	0	0
2019/11/21 23:31:00	BASE	1.27	347	1.75	316	-3.3	73	-7.5	75	0	989.5	NA	0.0000		9999	11350	0	0	0
2019/11/21 23:32:00	BASE	0.68	341	1.75	316	-3.3	73	-7.4	74	0	989.4	NA	0.0000		9999	11320	0	0	0
2019/11/21 23:33:00	BASE	0.23	322	1.75	316	-3.3	73	-7.4	73	0	989.4	NA	0.0000		9999	11290	0	0	0
2019/11/21 23:34:00	BASE	0.40	309	1.75	316	-3.3	73	-7.4	72	0	989.4	NA	0.0000		9999	11220	0	0	0
2019/11/21 23:35:00	BASE	0.47	318	1.75	316	-3.3	73	-7.4	70	0	989.4	NA	0.0000		9999	11290	0	0	0
2019/11/21 23:36:00	BASE	0.46	326	1.75	316	-3.2	73	-7.3	69	0	989.4	NA	0.0000		9999	11320	0	0	0
2019/11/21 23:37:00	BASE	0.73	314	1.75	316	-3.2	73	-7.4	67	0	989.4	NA	0.0000		9999	11290	0	0	0
2019/11/21 23:38:00	BASE	1.26	313	2.06	321	-3.2	73	-7.4	66	0	989.4	NA	0.0000		9999	11190	0	0	0
2019/11/21 23:39:00	BASE	1.70	319	2.06	321	-3.2	72	-7.5	64	0	989.4	NA	0.0000		9999	11250	0	0	0
2019/11/21 23:40:00	BASE	1.85	311	2.06	321	-3.2	72	-7.5	62	0	989.4	NA	0.0000		9999	11250	0	0	0
2019/11/21 23:41:00	BASE	2.07	303	2.78	308	-3.2	71	-7.6	60	0	989.4	NA	0.0000		9999	11250	0	0	0
2019/11/21 23:42:00	BASE	2.19	301	2.78	308	-3.2	71	-7.7	58	0	989.4	NA	0.0000		9999	11250	0	0	0
2019/11/21 23:43:00	BASE	2.20	300	2.78	308	-3.2	71	-7.7	57	0	989.3	NA	0.0000		9999	11190	0	0	0
2019/11/21 23:44:00	BASE	2.19	300	2.78	308	-3.2	71	-7.7	55	0	989.2	NA	0.0000		9999	11160	0	0	0
2019/11/21 23:45:00	BASE	1.82	293	2.78	308	-3.1	71	-7.7	55	0	989.2	NA	0.0000		9999	11160	0	0	0
2019/11/21 23:46:00	BASE	1.69	266	2.78	308	-3.2	71	-7.7	55	0	989.2	NA	0.0000		9999	11190	0	0	0
2019/11/21 23:47:00	BASE	2.09	246	2.78	308	-3.2	71	-7.7	54	0	989.3	NA	0.0000		9999	11190	0	0	0
2019/11/21 23:48:00	BASE	2.35	249	2.78	308	-3.3	71	-7.7	54	0	989.3	NA	0.0000		9999	11220	0	0	0
2019/11/21 23:49:00	BASE	2.12	255	2.78	308	-3.3	72	-7.7	53	0	989.3	NA	0.0000		9999	11290	0	0	0
2019/11/21 23:50:00	BASE	1.76	267	2.78	308	-3.4	72	-7.7	53	0	989.3	NA	0.0000		9999	11250	0	0	0
2019/11/21 23:51:00	BASE	1.41	272	2.68	256	-3.4	73	-7.6	53	0	989.2	NA	0.0000		9999	11250	0	0	0
2019/11/21 23:52:00	BASE	1.42	267	2.68	256	-3.4	73	-7.5	53	0	989.2	NA	0.0000		9999	11220	0	0	0
2019/11/21 23:53:00	BASE	1.93	257	2.68	256	-3.4	73	-7.5	52	0	989.3	NA	0.0000		9999	11250	0	0	0
2019/11/21 23:54:00	BASE	2.36	251	2.68	243	-3.4	74	-7.5	50	0	989.3	NA	0.0000		9999	11250	0	0	0
2019/11/21 23:55:00	BASE	2.30	252	2.68	243	-3.4	74	-7.4	48	0	989.4	NA	0.0000		9999	11250	0	0	0
2019/11/21 23:56:00	BASE	1.87	251	2.68	243	-3.5	74	-7.4	46	0	989.4	NA	0.0000		9999	11250	0	0	0
2019/11/21 23:57:00	BASE	1.57	246	2.68	243	-3.5	74	-7.4	44	0	989.4	NA	0.0000		9999	11220	0	0	0
2019/11/21 23:58:00	BASE	1.80	238	2.68	243	-3.5	74	-7.4	42	0	989.4	NA	0.0000		9999	11120	0	0	0
2019/11/21 23:59:00	BASE	2.07	237	2.68	243	-3.4	74	-7.4	40	0	989.4	NA	0.0000		9999	11190	0	0	0